<?xml version="1.0" encoding="UTF-8" standalone="no" ?>
<gpx xmlns="http://www.topografix.com/GPX/1/1" xmlns:xsi="http://www.w3.org/2001/XMLSchema-instance" xsi:schemaLocation="http://www.topografix.com/GPX/1/1 http://www.topografix.com/GPX/1/1/gpx.xsd" version="1.1" creator="VisuGPX - https://www.visugpx.com">
  <metadata>
    <name>sophie et pierre</name>
    <desc><![CDATA[vvvvvvvvvvvvvvvvvvvvvvvvvvvvvvvvvvvvvvvvvvvvvvvvvvvvvvvvvvvvvvvvvvvvvvvvvvvvvvvvvvvvvvvv]]></desc>
  </metadata>
  <trk>
    <name><![CDATA[180509152118]]></name>
    <trkseg>
      <trkpt lat="50.62096" lon="3.07261">
        <ele>114.4</ele>
        <time>2018-05-09T13:25:23Z</time>
      </trkpt>
      <trkpt lat="50.62108" lon="3.07253">
        <ele>114.8</ele>
        <time>2018-05-09T13:25:27Z</time>
      </trkpt>
      <trkpt lat="50.62125" lon="3.07245">
        <ele>114.8</ele>
        <time>2018-05-09T13:25:31Z</time>
      </trkpt>
      <trkpt lat="50.62143" lon="3.07237">
        <ele>114.4</ele>
        <time>2018-05-09T13:25:35Z</time>
      </trkpt>
      <trkpt lat="50.6216" lon="3.07227">
        <ele>114.6</ele>
        <time>2018-05-09T13:25:39Z</time>
      </trkpt>
      <trkpt lat="50.62183" lon="3.07222">
        <ele>115.4</ele>
        <time>2018-05-09T13:25:43Z</time>
      </trkpt>
      <trkpt lat="50.62199" lon="3.07214">
        <ele>115</ele>
        <time>2018-05-09T13:25:47Z</time>
      </trkpt>
      <trkpt lat="50.62222" lon="3.0721">
        <ele>114.8</ele>
        <time>2018-05-09T13:25:51Z</time>
      </trkpt>
      <trkpt lat="50.62234" lon="3.07206">
        <ele>114.8</ele>
        <time>2018-05-09T13:25:55Z</time>
      </trkpt>
      <trkpt lat="50.62244" lon="3.07214">
        <ele>114.4</ele>
        <time>2018-05-09T13:25:59Z</time>
      </trkpt>
      <trkpt lat="50.62259" lon="3.0722">
        <ele>114.2</ele>
        <time>2018-05-09T13:26:03Z</time>
      </trkpt>
      <trkpt lat="50.62276" lon="3.0722">
        <ele>114.4</ele>
        <time>2018-05-09T13:26:07Z</time>
      </trkpt>
      <trkpt lat="50.62291" lon="3.07212">
        <ele>113.8</ele>
        <time>2018-05-09T13:26:11Z</time>
      </trkpt>
      <trkpt lat="50.62304" lon="3.07209">
        <ele>114</ele>
        <time>2018-05-09T13:26:15Z</time>
      </trkpt>
      <trkpt lat="50.6232" lon="3.07205">
        <ele>113.4</ele>
        <time>2018-05-09T13:26:19Z</time>
      </trkpt>
      <trkpt lat="50.62342" lon="3.07203">
        <ele>113.4</ele>
        <time>2018-05-09T13:26:23Z</time>
      </trkpt>
      <trkpt lat="50.62358" lon="3.07185">
        <ele>112.4</ele>
        <time>2018-05-09T13:26:27Z</time>
      </trkpt>
      <trkpt lat="50.62372" lon="3.07169">
        <ele>112.8</ele>
        <time>2018-05-09T13:26:31Z</time>
      </trkpt>
      <trkpt lat="50.62395" lon="3.07155">
        <ele>112.8</ele>
        <time>2018-05-09T13:26:35Z</time>
      </trkpt>
      <trkpt lat="50.62409" lon="3.07141">
        <ele>113.4</ele>
        <time>2018-05-09T13:26:39Z</time>
      </trkpt>
      <trkpt lat="50.6242" lon="3.07133">
        <ele>113.4</ele>
        <time>2018-05-09T13:26:43Z</time>
      </trkpt>
      <trkpt lat="50.62423" lon="3.07132">
        <ele>113</ele>
        <time>2018-05-09T13:26:47Z</time>
      </trkpt>
      <trkpt lat="50.62425" lon="3.07127">
        <ele>113</ele>
        <time>2018-05-09T13:27:43Z</time>
      </trkpt>
      <trkpt lat="50.62431" lon="3.07119">
        <ele>113.8</ele>
        <time>2018-05-09T13:27:47Z</time>
      </trkpt>
      <trkpt lat="50.6244" lon="3.07103">
        <ele>113.4</ele>
        <time>2018-05-09T13:27:51Z</time>
      </trkpt>
      <trkpt lat="50.62452" lon="3.07086">
        <ele>113.6</ele>
        <time>2018-05-09T13:27:55Z</time>
      </trkpt>
      <trkpt lat="50.62465" lon="3.07067">
        <ele>113.6</ele>
        <time>2018-05-09T13:27:59Z</time>
      </trkpt>
      <trkpt lat="50.6248" lon="3.07049">
        <ele>113.4</ele>
        <time>2018-05-09T13:28:03Z</time>
      </trkpt>
      <trkpt lat="50.62495" lon="3.07028">
        <ele>113.6</ele>
        <time>2018-05-09T13:28:07Z</time>
      </trkpt>
      <trkpt lat="50.6251" lon="3.07007">
        <ele>113.8</ele>
        <time>2018-05-09T13:28:11Z</time>
      </trkpt>
      <trkpt lat="50.62524" lon="3.06988">
        <ele>113.8</ele>
        <time>2018-05-09T13:28:15Z</time>
      </trkpt>
      <trkpt lat="50.62537" lon="3.06976">
        <ele>114.2</ele>
        <time>2018-05-09T13:28:19Z</time>
      </trkpt>
      <trkpt lat="50.62547" lon="3.06973">
        <ele>113.8</ele>
        <time>2018-05-09T13:28:23Z</time>
      </trkpt>
      <trkpt lat="50.62556" lon="3.06972">
        <ele>114.2</ele>
        <time>2018-05-09T13:28:27Z</time>
      </trkpt>
      <trkpt lat="50.62565" lon="3.06971">
        <ele>114.2</ele>
        <time>2018-05-09T13:28:31Z</time>
      </trkpt>
      <trkpt lat="50.62578" lon="3.06971">
        <ele>114.4</ele>
        <time>2018-05-09T13:28:35Z</time>
      </trkpt>
      <trkpt lat="50.62591" lon="3.0697">
        <ele>113.8</ele>
        <time>2018-05-09T13:28:39Z</time>
      </trkpt>
      <trkpt lat="50.62606" lon="3.06969">
        <ele>114.2</ele>
        <time>2018-05-09T13:28:43Z</time>
      </trkpt>
      <trkpt lat="50.62623" lon="3.0697">
        <ele>114</ele>
        <time>2018-05-09T13:28:47Z</time>
      </trkpt>
      <trkpt lat="50.62636" lon="3.06969">
        <ele>114</ele>
        <time>2018-05-09T13:28:51Z</time>
      </trkpt>
      <trkpt lat="50.6265" lon="3.0697">
        <ele>113.8</ele>
        <time>2018-05-09T13:28:55Z</time>
      </trkpt>
      <trkpt lat="50.62666" lon="3.0697">
        <ele>113.2</ele>
        <time>2018-05-09T13:28:59Z</time>
      </trkpt>
      <trkpt lat="50.62681" lon="3.0697">
        <ele>113.8</ele>
        <time>2018-05-09T13:29:03Z</time>
      </trkpt>
      <trkpt lat="50.62695" lon="3.06967">
        <ele>113</ele>
        <time>2018-05-09T13:29:07Z</time>
      </trkpt>
      <trkpt lat="50.62709" lon="3.06962">
        <ele>113.4</ele>
        <time>2018-05-09T13:29:11Z</time>
      </trkpt>
      <trkpt lat="50.62724" lon="3.06965">
        <ele>113.2</ele>
        <time>2018-05-09T13:29:15Z</time>
      </trkpt>
      <trkpt lat="50.62734" lon="3.06964">
        <ele>113.2</ele>
        <time>2018-05-09T13:29:19Z</time>
      </trkpt>
      <trkpt lat="50.62742" lon="3.06961">
        <ele>113</ele>
        <time>2018-05-09T13:29:23Z</time>
      </trkpt>
      <trkpt lat="50.62753" lon="3.06963">
        <ele>113</ele>
        <time>2018-05-09T13:29:27Z</time>
      </trkpt>
      <trkpt lat="50.62766" lon="3.06961">
        <ele>113</ele>
        <time>2018-05-09T13:29:31Z</time>
      </trkpt>
      <trkpt lat="50.62778" lon="3.06959">
        <ele>112.8</ele>
        <time>2018-05-09T13:29:35Z</time>
      </trkpt>
      <trkpt lat="50.6279" lon="3.0696">
        <ele>112.8</ele>
        <time>2018-05-09T13:29:39Z</time>
      </trkpt>
      <trkpt lat="50.62806" lon="3.06965">
        <ele>112.6</ele>
        <time>2018-05-09T13:29:43Z</time>
      </trkpt>
      <trkpt lat="50.62819" lon="3.06966">
        <ele>112.6</ele>
        <time>2018-05-09T13:29:47Z</time>
      </trkpt>
      <trkpt lat="50.62827" lon="3.06956">
        <ele>112.6</ele>
        <time>2018-05-09T13:29:51Z</time>
      </trkpt>
      <trkpt lat="50.6282" lon="3.06942">
        <ele>112.6</ele>
        <time>2018-05-09T13:29:55Z</time>
      </trkpt>
      <trkpt lat="50.62825" lon="3.06924">
        <ele>112.6</ele>
        <time>2018-05-09T13:29:59Z</time>
      </trkpt>
      <trkpt lat="50.62828" lon="3.06908">
        <ele>112.6</ele>
        <time>2018-05-09T13:30:03Z</time>
      </trkpt>
      <trkpt lat="50.62832" lon="3.06894">
        <ele>112.8</ele>
        <time>2018-05-09T13:30:07Z</time>
      </trkpt>
      <trkpt lat="50.62826" lon="3.06872">
        <ele>113</ele>
        <time>2018-05-09T13:30:11Z</time>
      </trkpt>
      <trkpt lat="50.62823" lon="3.06851">
        <ele>113</ele>
        <time>2018-05-09T13:30:15Z</time>
      </trkpt>
      <trkpt lat="50.62827" lon="3.06832">
        <ele>113</ele>
        <time>2018-05-09T13:30:19Z</time>
      </trkpt>
      <trkpt lat="50.62836" lon="3.06813">
        <ele>112.8</ele>
        <time>2018-05-09T13:30:23Z</time>
      </trkpt>
      <trkpt lat="50.62848" lon="3.06794">
        <ele>112.8</ele>
        <time>2018-05-09T13:30:27Z</time>
      </trkpt>
      <trkpt lat="50.62861" lon="3.0677">
        <ele>112.6</ele>
        <time>2018-05-09T13:30:31Z</time>
      </trkpt>
      <trkpt lat="50.62867" lon="3.06748">
        <ele>112.6</ele>
        <time>2018-05-09T13:30:35Z</time>
      </trkpt>
      <trkpt lat="50.62873" lon="3.06724">
        <ele>112.2</ele>
        <time>2018-05-09T13:30:39Z</time>
      </trkpt>
      <trkpt lat="50.62881" lon="3.06703">
        <ele>112.2</ele>
        <time>2018-05-09T13:30:43Z</time>
      </trkpt>
      <trkpt lat="50.6289" lon="3.06685">
        <ele>112</ele>
        <time>2018-05-09T13:30:47Z</time>
      </trkpt>
      <trkpt lat="50.62905" lon="3.06663">
        <ele>112</ele>
        <time>2018-05-09T13:30:51Z</time>
      </trkpt>
      <trkpt lat="50.62916" lon="3.06646">
        <ele>111.8</ele>
        <time>2018-05-09T13:30:55Z</time>
      </trkpt>
      <trkpt lat="50.62931" lon="3.06624">
        <ele>112</ele>
        <time>2018-05-09T13:30:59Z</time>
      </trkpt>
      <trkpt lat="50.62944" lon="3.06605">
        <ele>111.8</ele>
        <time>2018-05-09T13:31:03Z</time>
      </trkpt>
      <trkpt lat="50.62955" lon="3.06585">
        <ele>111.4</ele>
        <time>2018-05-09T13:31:07Z</time>
      </trkpt>
      <trkpt lat="50.62966" lon="3.06561">
        <ele>111.6</ele>
        <time>2018-05-09T13:31:11Z</time>
      </trkpt>
      <trkpt lat="50.62979" lon="3.0654">
        <ele>111.8</ele>
        <time>2018-05-09T13:31:15Z</time>
      </trkpt>
      <trkpt lat="50.62992" lon="3.06519">
        <ele>111.4</ele>
        <time>2018-05-09T13:31:19Z</time>
      </trkpt>
      <trkpt lat="50.63009" lon="3.06496">
        <ele>111.8</ele>
        <time>2018-05-09T13:31:23Z</time>
      </trkpt>
      <trkpt lat="50.6302" lon="3.06473">
        <ele>111.8</ele>
        <time>2018-05-09T13:31:27Z</time>
      </trkpt>
      <trkpt lat="50.63032" lon="3.0645">
        <ele>111.6</ele>
        <time>2018-05-09T13:31:31Z</time>
      </trkpt>
      <trkpt lat="50.63044" lon="3.06428">
        <ele>111.2</ele>
        <time>2018-05-09T13:31:35Z</time>
      </trkpt>
      <trkpt lat="50.63058" lon="3.06415">
        <ele>111.4</ele>
        <time>2018-05-09T13:31:39Z</time>
      </trkpt>
      <trkpt lat="50.63069" lon="3.0639">
        <ele>111.4</ele>
        <time>2018-05-09T13:31:43Z</time>
      </trkpt>
      <trkpt lat="50.63082" lon="3.06367">
        <ele>110.8</ele>
        <time>2018-05-09T13:31:47Z</time>
      </trkpt>
      <trkpt lat="50.63097" lon="3.06342">
        <ele>110.8</ele>
        <time>2018-05-09T13:31:51Z</time>
      </trkpt>
      <trkpt lat="50.63104" lon="3.06314">
        <ele>110</ele>
        <time>2018-05-09T13:31:55Z</time>
      </trkpt>
      <trkpt lat="50.63115" lon="3.06287">
        <ele>109.8</ele>
        <time>2018-05-09T13:31:59Z</time>
      </trkpt>
      <trkpt lat="50.63127" lon="3.06264">
        <ele>110.4</ele>
        <time>2018-05-09T13:32:03Z</time>
      </trkpt>
      <trkpt lat="50.63139" lon="3.06242">
        <ele>110</ele>
        <time>2018-05-09T13:32:07Z</time>
      </trkpt>
      <trkpt lat="50.63153" lon="3.06224">
        <ele>109.8</ele>
        <time>2018-05-09T13:32:11Z</time>
      </trkpt>
      <trkpt lat="50.63166" lon="3.06201">
        <ele>109.4</ele>
        <time>2018-05-09T13:32:15Z</time>
      </trkpt>
      <trkpt lat="50.63178" lon="3.06177">
        <ele>109.8</ele>
        <time>2018-05-09T13:32:19Z</time>
      </trkpt>
      <trkpt lat="50.63192" lon="3.0615">
        <ele>110.6</ele>
        <time>2018-05-09T13:32:23Z</time>
      </trkpt>
      <trkpt lat="50.63205" lon="3.06125">
        <ele>110.2</ele>
        <time>2018-05-09T13:32:27Z</time>
      </trkpt>
      <trkpt lat="50.63215" lon="3.06106">
        <ele>109.8</ele>
        <time>2018-05-09T13:32:31Z</time>
      </trkpt>
      <trkpt lat="50.63223" lon="3.06089">
        <ele>109.8</ele>
        <time>2018-05-09T13:32:55Z</time>
      </trkpt>
      <trkpt lat="50.63227" lon="3.06081">
        <ele>109.8</ele>
        <time>2018-05-09T13:32:59Z</time>
      </trkpt>
      <trkpt lat="50.63237" lon="3.06067">
        <ele>110.2</ele>
        <time>2018-05-09T13:33:03Z</time>
      </trkpt>
      <trkpt lat="50.6325" lon="3.0605">
        <ele>110.2</ele>
        <time>2018-05-09T13:33:07Z</time>
      </trkpt>
      <trkpt lat="50.63261" lon="3.0603">
        <ele>110.2</ele>
        <time>2018-05-09T13:33:11Z</time>
      </trkpt>
      <trkpt lat="50.63272" lon="3.06007">
        <ele>110</ele>
        <time>2018-05-09T13:33:15Z</time>
      </trkpt>
      <trkpt lat="50.63282" lon="3.05984">
        <ele>110</ele>
        <time>2018-05-09T13:33:19Z</time>
      </trkpt>
      <trkpt lat="50.63294" lon="3.05962">
        <ele>110.4</ele>
        <time>2018-05-09T13:33:23Z</time>
      </trkpt>
      <trkpt lat="50.6331" lon="3.05935">
        <ele>110.2</ele>
        <time>2018-05-09T13:33:27Z</time>
      </trkpt>
      <trkpt lat="50.63324" lon="3.05911">
        <ele>110.4</ele>
        <time>2018-05-09T13:33:31Z</time>
      </trkpt>
      <trkpt lat="50.6334" lon="3.05887">
        <ele>110.6</ele>
        <time>2018-05-09T13:33:35Z</time>
      </trkpt>
      <trkpt lat="50.63354" lon="3.05862">
        <ele>110.2</ele>
        <time>2018-05-09T13:33:39Z</time>
      </trkpt>
      <trkpt lat="50.63371" lon="3.05839">
        <ele>110</ele>
        <time>2018-05-09T13:33:43Z</time>
      </trkpt>
      <trkpt lat="50.63383" lon="3.0582">
        <ele>109.8</ele>
        <time>2018-05-09T13:33:47Z</time>
      </trkpt>
      <trkpt lat="50.63399" lon="3.05792">
        <ele>109.8</ele>
        <time>2018-05-09T13:33:51Z</time>
      </trkpt>
      <trkpt lat="50.63413" lon="3.05762">
        <ele>109.6</ele>
        <time>2018-05-09T13:33:55Z</time>
      </trkpt>
      <trkpt lat="50.63427" lon="3.05737">
        <ele>109.8</ele>
        <time>2018-05-09T13:33:59Z</time>
      </trkpt>
      <trkpt lat="50.63437" lon="3.0571">
        <ele>110</ele>
        <time>2018-05-09T13:34:03Z</time>
      </trkpt>
      <trkpt lat="50.63449" lon="3.05688">
        <ele>110</ele>
        <time>2018-05-09T13:34:07Z</time>
      </trkpt>
      <trkpt lat="50.63463" lon="3.05666">
        <ele>109.4</ele>
        <time>2018-05-09T13:34:11Z</time>
      </trkpt>
      <trkpt lat="50.63476" lon="3.05641">
        <ele>109.6</ele>
        <time>2018-05-09T13:34:15Z</time>
      </trkpt>
      <trkpt lat="50.63489" lon="3.05614">
        <ele>109.8</ele>
        <time>2018-05-09T13:34:19Z</time>
      </trkpt>
      <trkpt lat="50.635" lon="3.05589">
        <ele>109.8</ele>
        <time>2018-05-09T13:34:23Z</time>
      </trkpt>
      <trkpt lat="50.63505" lon="3.05566">
        <ele>109.8</ele>
        <time>2018-05-09T13:34:27Z</time>
      </trkpt>
      <trkpt lat="50.63527" lon="3.05541">
        <ele>110</ele>
        <time>2018-05-09T13:34:31Z</time>
      </trkpt>
      <trkpt lat="50.63543" lon="3.05517">
        <ele>109.6</ele>
        <time>2018-05-09T13:34:35Z</time>
      </trkpt>
      <trkpt lat="50.63555" lon="3.0549">
        <ele>109.8</ele>
        <time>2018-05-09T13:34:39Z</time>
      </trkpt>
      <trkpt lat="50.63567" lon="3.05467">
        <ele>110</ele>
        <time>2018-05-09T13:34:43Z</time>
      </trkpt>
      <trkpt lat="50.63581" lon="3.05441">
        <ele>110</ele>
        <time>2018-05-09T13:34:47Z</time>
      </trkpt>
      <trkpt lat="50.63593" lon="3.05413">
        <ele>110.2</ele>
        <time>2018-05-09T13:34:51Z</time>
      </trkpt>
      <trkpt lat="50.63608" lon="3.0539">
        <ele>110</ele>
        <time>2018-05-09T13:34:55Z</time>
      </trkpt>
      <trkpt lat="50.63624" lon="3.05365">
        <ele>110</ele>
        <time>2018-05-09T13:34:59Z</time>
      </trkpt>
      <trkpt lat="50.63639" lon="3.05339">
        <ele>110.8</ele>
        <time>2018-05-09T13:35:03Z</time>
      </trkpt>
      <trkpt lat="50.63652" lon="3.05313">
        <ele>110.6</ele>
        <time>2018-05-09T13:35:07Z</time>
      </trkpt>
      <trkpt lat="50.63664" lon="3.05289">
        <ele>110.4</ele>
        <time>2018-05-09T13:35:11Z</time>
      </trkpt>
      <trkpt lat="50.63677" lon="3.05269">
        <ele>110.2</ele>
        <time>2018-05-09T13:35:15Z</time>
      </trkpt>
      <trkpt lat="50.63689" lon="3.05248">
        <ele>110.6</ele>
        <time>2018-05-09T13:35:19Z</time>
      </trkpt>
      <trkpt lat="50.63699" lon="3.05228">
        <ele>110.2</ele>
        <time>2018-05-09T13:35:23Z</time>
      </trkpt>
      <trkpt lat="50.63706" lon="3.05218">
        <ele>110.2</ele>
        <time>2018-05-09T13:35:27Z</time>
      </trkpt>
      <trkpt lat="50.63712" lon="3.05207">
        <ele>109.8</ele>
        <time>2018-05-09T13:35:31Z</time>
      </trkpt>
      <trkpt lat="50.63717" lon="3.05196">
        <ele>110.4</ele>
        <time>2018-05-09T13:35:35Z</time>
      </trkpt>
      <trkpt lat="50.63728" lon="3.05184">
        <ele>109.8</ele>
        <time>2018-05-09T13:35:39Z</time>
      </trkpt>
      <trkpt lat="50.63734" lon="3.05171">
        <ele>110.4</ele>
        <time>2018-05-09T13:35:43Z</time>
      </trkpt>
      <trkpt lat="50.63739" lon="3.05153">
        <ele>110.2</ele>
        <time>2018-05-09T13:35:47Z</time>
      </trkpt>
      <trkpt lat="50.63748" lon="3.05139">
        <ele>110.4</ele>
        <time>2018-05-09T13:35:51Z</time>
      </trkpt>
      <trkpt lat="50.63759" lon="3.05126">
        <ele>110.8</ele>
        <time>2018-05-09T13:35:55Z</time>
      </trkpt>
      <trkpt lat="50.6377" lon="3.05116">
        <ele>110.8</ele>
        <time>2018-05-09T13:35:59Z</time>
      </trkpt>
      <trkpt lat="50.6378" lon="3.05107">
        <ele>110.8</ele>
        <time>2018-05-09T13:36:03Z</time>
      </trkpt>
      <trkpt lat="50.63792" lon="3.05097">
        <ele>112</ele>
        <time>2018-05-09T13:36:07Z</time>
      </trkpt>
      <trkpt lat="50.63801" lon="3.05088">
        <ele>111.8</ele>
        <time>2018-05-09T13:36:11Z</time>
      </trkpt>
      <trkpt lat="50.63812" lon="3.05079">
        <ele>111.8</ele>
        <time>2018-05-09T13:36:15Z</time>
      </trkpt>
      <trkpt lat="50.63818" lon="3.05064">
        <ele>111</ele>
        <time>2018-05-09T13:36:19Z</time>
      </trkpt>
      <trkpt lat="50.63813" lon="3.05048">
        <ele>111.6</ele>
        <time>2018-05-09T13:36:23Z</time>
      </trkpt>
      <trkpt lat="50.63808" lon="3.05027">
        <ele>110.8</ele>
        <time>2018-05-09T13:36:27Z</time>
      </trkpt>
      <trkpt lat="50.63801" lon="3.05007">
        <ele>111.8</ele>
        <time>2018-05-09T13:36:31Z</time>
      </trkpt>
      <trkpt lat="50.63795" lon="3.04989">
        <ele>111</ele>
        <time>2018-05-09T13:36:35Z</time>
      </trkpt>
      <trkpt lat="50.63789" lon="3.04967">
        <ele>110.2</ele>
        <time>2018-05-09T13:36:39Z</time>
      </trkpt>
      <trkpt lat="50.63782" lon="3.04941">
        <ele>110.2</ele>
        <time>2018-05-09T13:36:43Z</time>
      </trkpt>
      <trkpt lat="50.63775" lon="3.04916">
        <ele>110.8</ele>
        <time>2018-05-09T13:36:47Z</time>
      </trkpt>
      <trkpt lat="50.63768" lon="3.0489">
        <ele>109.8</ele>
        <time>2018-05-09T13:36:51Z</time>
      </trkpt>
      <trkpt lat="50.63762" lon="3.0486">
        <ele>110.2</ele>
        <time>2018-05-09T13:36:55Z</time>
      </trkpt>
      <trkpt lat="50.63755" lon="3.04834">
        <ele>110.2</ele>
        <time>2018-05-09T13:36:59Z</time>
      </trkpt>
      <trkpt lat="50.63748" lon="3.04807">
        <ele>110.4</ele>
        <time>2018-05-09T13:37:03Z</time>
      </trkpt>
      <trkpt lat="50.63741" lon="3.04775">
        <ele>110</ele>
        <time>2018-05-09T13:37:07Z</time>
      </trkpt>
      <trkpt lat="50.63736" lon="3.04741">
        <ele>110.2</ele>
        <time>2018-05-09T13:37:11Z</time>
      </trkpt>
      <trkpt lat="50.63729" lon="3.04713">
        <ele>110.2</ele>
        <time>2018-05-09T13:37:15Z</time>
      </trkpt>
      <trkpt lat="50.63723" lon="3.04681">
        <ele>110.2</ele>
        <time>2018-05-09T13:37:19Z</time>
      </trkpt>
      <trkpt lat="50.63719" lon="3.0465">
        <ele>110</ele>
        <time>2018-05-09T13:37:23Z</time>
      </trkpt>
      <trkpt lat="50.63713" lon="3.04618">
        <ele>110.4</ele>
        <time>2018-05-09T13:37:27Z</time>
      </trkpt>
      <trkpt lat="50.63706" lon="3.04587">
        <ele>109.8</ele>
        <time>2018-05-09T13:37:31Z</time>
      </trkpt>
      <trkpt lat="50.63701" lon="3.04561">
        <ele>110.8</ele>
        <time>2018-05-09T13:37:35Z</time>
      </trkpt>
      <trkpt lat="50.63694" lon="3.04536">
        <ele>109.8</ele>
        <time>2018-05-09T13:37:39Z</time>
      </trkpt>
      <trkpt lat="50.6369" lon="3.04503">
        <ele>110</ele>
        <time>2018-05-09T13:37:43Z</time>
      </trkpt>
      <trkpt lat="50.63688" lon="3.04473">
        <ele>109.8</ele>
        <time>2018-05-09T13:37:47Z</time>
      </trkpt>
      <trkpt lat="50.63687" lon="3.04437">
        <ele>109.2</ele>
        <time>2018-05-09T13:37:51Z</time>
      </trkpt>
      <trkpt lat="50.63687" lon="3.04402">
        <ele>109.8</ele>
        <time>2018-05-09T13:37:55Z</time>
      </trkpt>
      <trkpt lat="50.63686" lon="3.04367">
        <ele>109.6</ele>
        <time>2018-05-09T13:37:59Z</time>
      </trkpt>
      <trkpt lat="50.63696" lon="3.04333">
        <ele>110.4</ele>
        <time>2018-05-09T13:38:03Z</time>
      </trkpt>
      <trkpt lat="50.63705" lon="3.04304">
        <ele>110.2</ele>
        <time>2018-05-09T13:38:07Z</time>
      </trkpt>
      <trkpt lat="50.63714" lon="3.04276">
        <ele>110.2</ele>
        <time>2018-05-09T13:38:11Z</time>
      </trkpt>
      <trkpt lat="50.63722" lon="3.04246">
        <ele>110.2</ele>
        <time>2018-05-09T13:38:15Z</time>
      </trkpt>
      <trkpt lat="50.6373" lon="3.04214">
        <ele>110.2</ele>
        <time>2018-05-09T13:38:19Z</time>
      </trkpt>
      <trkpt lat="50.63741" lon="3.0418">
        <ele>110</ele>
        <time>2018-05-09T13:38:23Z</time>
      </trkpt>
      <trkpt lat="50.63749" lon="3.04151">
        <ele>110.2</ele>
        <time>2018-05-09T13:38:27Z</time>
      </trkpt>
      <trkpt lat="50.63759" lon="3.04125">
        <ele>110.2</ele>
        <time>2018-05-09T13:38:31Z</time>
      </trkpt>
      <trkpt lat="50.63778" lon="3.0411">
        <ele>110.6</ele>
        <time>2018-05-09T13:38:35Z</time>
      </trkpt>
      <trkpt lat="50.63794" lon="3.04105">
        <ele>110.8</ele>
        <time>2018-05-09T13:38:39Z</time>
      </trkpt>
      <trkpt lat="50.63805" lon="3.04104">
        <ele>111.8</ele>
        <time>2018-05-09T13:38:43Z</time>
      </trkpt>
      <trkpt lat="50.63815" lon="3.04101">
        <ele>111.6</ele>
        <time>2018-05-09T13:38:47Z</time>
      </trkpt>
      <trkpt lat="50.63836" lon="3.04101">
        <ele>111.6</ele>
        <time>2018-05-09T13:38:51Z</time>
      </trkpt>
      <trkpt lat="50.63855" lon="3.04098">
        <ele>111.4</ele>
        <time>2018-05-09T13:38:55Z</time>
      </trkpt>
      <trkpt lat="50.63874" lon="3.04095">
        <ele>111.4</ele>
        <time>2018-05-09T13:38:59Z</time>
      </trkpt>
      <trkpt lat="50.63888" lon="3.04094">
        <ele>111.6</ele>
        <time>2018-05-09T13:39:03Z</time>
      </trkpt>
      <trkpt lat="50.63904" lon="3.04086">
        <ele>111.6</ele>
        <time>2018-05-09T13:39:07Z</time>
      </trkpt>
      <trkpt lat="50.63921" lon="3.04065">
        <ele>111.2</ele>
        <time>2018-05-09T13:39:11Z</time>
      </trkpt>
      <trkpt lat="50.63936" lon="3.04041">
        <ele>110.6</ele>
        <time>2018-05-09T13:39:15Z</time>
      </trkpt>
      <trkpt lat="50.63947" lon="3.04013">
        <ele>110.2</ele>
        <time>2018-05-09T13:39:19Z</time>
      </trkpt>
      <trkpt lat="50.63957" lon="3.0399">
        <ele>110.8</ele>
        <time>2018-05-09T13:39:23Z</time>
      </trkpt>
      <trkpt lat="50.63974" lon="3.03974">
        <ele>110.4</ele>
        <time>2018-05-09T13:39:27Z</time>
      </trkpt>
      <trkpt lat="50.63993" lon="3.03977">
        <ele>110.2</ele>
        <time>2018-05-09T13:39:31Z</time>
      </trkpt>
      <trkpt lat="50.64014" lon="3.03984">
        <ele>108.8</ele>
        <time>2018-05-09T13:39:35Z</time>
      </trkpt>
      <trkpt lat="50.6403" lon="3.03991">
        <ele>109.6</ele>
        <time>2018-05-09T13:39:39Z</time>
      </trkpt>
      <trkpt lat="50.64046" lon="3.03993">
        <ele>110.6</ele>
        <time>2018-05-09T13:39:43Z</time>
      </trkpt>
      <trkpt lat="50.6406" lon="3.03988">
        <ele>111</ele>
        <time>2018-05-09T13:39:47Z</time>
      </trkpt>
      <trkpt lat="50.64075" lon="3.03974">
        <ele>111</ele>
        <time>2018-05-09T13:39:51Z</time>
      </trkpt>
      <trkpt lat="50.64092" lon="3.03955">
        <ele>111.2</ele>
        <time>2018-05-09T13:39:55Z</time>
      </trkpt>
      <trkpt lat="50.64111" lon="3.03936">
        <ele>110.6</ele>
        <time>2018-05-09T13:39:59Z</time>
      </trkpt>
      <trkpt lat="50.64129" lon="3.03917">
        <ele>111</ele>
        <time>2018-05-09T13:40:03Z</time>
      </trkpt>
      <trkpt lat="50.64143" lon="3.03897">
        <ele>110.8</ele>
        <time>2018-05-09T13:40:07Z</time>
      </trkpt>
      <trkpt lat="50.64153" lon="3.03879">
        <ele>111</ele>
        <time>2018-05-09T13:40:11Z</time>
      </trkpt>
      <trkpt lat="50.64167" lon="3.03863">
        <ele>110.4</ele>
        <time>2018-05-09T13:40:15Z</time>
      </trkpt>
      <trkpt lat="50.64179" lon="3.03875">
        <ele>110.8</ele>
        <time>2018-05-09T13:40:19Z</time>
      </trkpt>
      <trkpt lat="50.64186" lon="3.03894">
        <ele>110.8</ele>
        <time>2018-05-09T13:40:23Z</time>
      </trkpt>
      <trkpt lat="50.64194" lon="3.03916">
        <ele>110.6</ele>
        <time>2018-05-09T13:40:27Z</time>
      </trkpt>
      <trkpt lat="50.64205" lon="3.0394">
        <ele>110.8</ele>
        <time>2018-05-09T13:40:31Z</time>
      </trkpt>
      <trkpt lat="50.64217" lon="3.03971">
        <ele>110.8</ele>
        <time>2018-05-09T13:40:35Z</time>
      </trkpt>
      <trkpt lat="50.6422" lon="3.03995">
        <ele>111</ele>
        <time>2018-05-09T13:40:39Z</time>
      </trkpt>
      <trkpt lat="50.64233" lon="3.0402">
        <ele>111</ele>
        <time>2018-05-09T13:40:43Z</time>
      </trkpt>
      <trkpt lat="50.64246" lon="3.0405">
        <ele>110.8</ele>
        <time>2018-05-09T13:40:47Z</time>
      </trkpt>
      <trkpt lat="50.64265" lon="3.04071">
        <ele>110.4</ele>
        <time>2018-05-09T13:40:51Z</time>
      </trkpt>
      <trkpt lat="50.64282" lon="3.04084">
        <ele>110.2</ele>
        <time>2018-05-09T13:40:55Z</time>
      </trkpt>
      <trkpt lat="50.64294" lon="3.04092">
        <ele>110</ele>
        <time>2018-05-09T13:40:59Z</time>
      </trkpt>
      <trkpt lat="50.64308" lon="3.04106">
        <ele>110</ele>
        <time>2018-05-09T13:41:03Z</time>
      </trkpt>
      <trkpt lat="50.64328" lon="3.04119">
        <ele>110</ele>
        <time>2018-05-09T13:41:07Z</time>
      </trkpt>
      <trkpt lat="50.64334" lon="3.04139">
        <ele>110</ele>
        <time>2018-05-09T13:41:11Z</time>
      </trkpt>
      <trkpt lat="50.64337" lon="3.04166">
        <ele>110.2</ele>
        <time>2018-05-09T13:41:15Z</time>
      </trkpt>
      <trkpt lat="50.6434" lon="3.0419">
        <ele>110.6</ele>
        <time>2018-05-09T13:41:19Z</time>
      </trkpt>
      <trkpt lat="50.64348" lon="3.04215">
        <ele>110.8</ele>
        <time>2018-05-09T13:41:23Z</time>
      </trkpt>
      <trkpt lat="50.64359" lon="3.04238">
        <ele>110.6</ele>
        <time>2018-05-09T13:41:27Z</time>
      </trkpt>
      <trkpt lat="50.64365" lon="3.04269">
        <ele>111</ele>
        <time>2018-05-09T13:41:31Z</time>
      </trkpt>
      <trkpt lat="50.64378" lon="3.04291">
        <ele>111.2</ele>
        <time>2018-05-09T13:41:35Z</time>
      </trkpt>
      <trkpt lat="50.64388" lon="3.04302">
        <ele>111</ele>
        <time>2018-05-09T13:41:39Z</time>
      </trkpt>
      <trkpt lat="50.64399" lon="3.04317">
        <ele>111.2</ele>
        <time>2018-05-09T13:41:43Z</time>
      </trkpt>
      <trkpt lat="50.64419" lon="3.04333">
        <ele>111.2</ele>
        <time>2018-05-09T13:41:47Z</time>
      </trkpt>
      <trkpt lat="50.64444" lon="3.04347">
        <ele>111</ele>
        <time>2018-05-09T13:41:55Z</time>
      </trkpt>
      <trkpt lat="50.64454" lon="3.04332">
        <ele>109.8</ele>
        <time>2018-05-09T13:41:59Z</time>
      </trkpt>
      <trkpt lat="50.64461" lon="3.04309">
        <ele>109.6</ele>
        <time>2018-05-09T13:42:03Z</time>
      </trkpt>
      <trkpt lat="50.6447" lon="3.04285">
        <ele>109.4</ele>
        <time>2018-05-09T13:42:07Z</time>
      </trkpt>
      <trkpt lat="50.64476" lon="3.04267">
        <ele>110</ele>
        <time>2018-05-09T13:42:11Z</time>
      </trkpt>
      <trkpt lat="50.64483" lon="3.04245">
        <ele>109.2</ele>
        <time>2018-05-09T13:42:15Z</time>
      </trkpt>
      <trkpt lat="50.64494" lon="3.04237">
        <ele>109</ele>
        <time>2018-05-09T13:42:19Z</time>
      </trkpt>
      <trkpt lat="50.64501" lon="3.04233">
        <ele>109.2</ele>
        <time>2018-05-09T13:42:23Z</time>
      </trkpt>
      <trkpt lat="50.64514" lon="3.04229">
        <ele>109.6</ele>
        <time>2018-05-09T13:42:27Z</time>
      </trkpt>
      <trkpt lat="50.64527" lon="3.04225">
        <ele>110.4</ele>
        <time>2018-05-09T13:42:31Z</time>
      </trkpt>
      <trkpt lat="50.64544" lon="3.0422">
        <ele>109.8</ele>
        <time>2018-05-09T13:42:35Z</time>
      </trkpt>
      <trkpt lat="50.64558" lon="3.04223">
        <ele>110.6</ele>
        <time>2018-05-09T13:42:39Z</time>
      </trkpt>
      <trkpt lat="50.6457" lon="3.04238">
        <ele>110.4</ele>
        <time>2018-05-09T13:42:43Z</time>
      </trkpt>
      <trkpt lat="50.64582" lon="3.04258">
        <ele>111.2</ele>
        <time>2018-05-09T13:42:47Z</time>
      </trkpt>
      <trkpt lat="50.64594" lon="3.04276">
        <ele>110.2</ele>
        <time>2018-05-09T13:42:51Z</time>
      </trkpt>
      <trkpt lat="50.64604" lon="3.04292">
        <ele>109.4</ele>
        <time>2018-05-09T13:42:55Z</time>
      </trkpt>
      <trkpt lat="50.64625" lon="3.04318">
        <ele>109.8</ele>
        <time>2018-05-09T13:42:59Z</time>
      </trkpt>
      <trkpt lat="50.64639" lon="3.04341">
        <ele>109.4</ele>
        <time>2018-05-09T13:43:03Z</time>
      </trkpt>
      <trkpt lat="50.6465" lon="3.04362">
        <ele>109.6</ele>
        <time>2018-05-09T13:43:07Z</time>
      </trkpt>
      <trkpt lat="50.64662" lon="3.04384">
        <ele>110.2</ele>
        <time>2018-05-09T13:43:11Z</time>
      </trkpt>
      <trkpt lat="50.64673" lon="3.04406">
        <ele>109.6</ele>
        <time>2018-05-09T13:43:15Z</time>
      </trkpt>
      <trkpt lat="50.64687" lon="3.04428">
        <ele>109.2</ele>
        <time>2018-05-09T13:43:19Z</time>
      </trkpt>
      <trkpt lat="50.647" lon="3.04453">
        <ele>110</ele>
        <time>2018-05-09T13:43:23Z</time>
      </trkpt>
      <trkpt lat="50.64712" lon="3.0448">
        <ele>110</ele>
        <time>2018-05-09T13:43:27Z</time>
      </trkpt>
      <trkpt lat="50.64724" lon="3.04504">
        <ele>110</ele>
        <time>2018-05-09T13:43:31Z</time>
      </trkpt>
      <trkpt lat="50.64737" lon="3.04529">
        <ele>109.4</ele>
        <time>2018-05-09T13:43:35Z</time>
      </trkpt>
      <trkpt lat="50.64749" lon="3.04559">
        <ele>109.2</ele>
        <time>2018-05-09T13:43:39Z</time>
      </trkpt>
      <trkpt lat="50.64761" lon="3.04585">
        <ele>109.8</ele>
        <time>2018-05-09T13:43:43Z</time>
      </trkpt>
      <trkpt lat="50.64775" lon="3.04612">
        <ele>109.8</ele>
        <time>2018-05-09T13:43:47Z</time>
      </trkpt>
      <trkpt lat="50.64787" lon="3.04633">
        <ele>109.8</ele>
        <time>2018-05-09T13:43:51Z</time>
      </trkpt>
      <trkpt lat="50.64792" lon="3.04654">
        <ele>110.2</ele>
        <time>2018-05-09T13:43:55Z</time>
      </trkpt>
      <trkpt lat="50.64798" lon="3.0467">
        <ele>109.6</ele>
        <time>2018-05-09T13:43:59Z</time>
      </trkpt>
      <trkpt lat="50.64802" lon="3.04675">
        <ele>109</ele>
        <time>2018-05-09T13:44:03Z</time>
      </trkpt>
      <trkpt lat="50.64811" lon="3.0468">
        <ele>108.2</ele>
        <time>2018-05-09T13:44:07Z</time>
      </trkpt>
      <trkpt lat="50.64826" lon="3.0469">
        <ele>107.6</ele>
        <time>2018-05-09T13:44:11Z</time>
      </trkpt>
      <trkpt lat="50.64842" lon="3.04709">
        <ele>107.4</ele>
        <time>2018-05-09T13:44:15Z</time>
      </trkpt>
      <trkpt lat="50.64854" lon="3.04726">
        <ele>107</ele>
        <time>2018-05-09T13:44:19Z</time>
      </trkpt>
      <trkpt lat="50.64864" lon="3.04755">
        <ele>106.2</ele>
        <time>2018-05-09T13:44:23Z</time>
      </trkpt>
      <trkpt lat="50.64882" lon="3.04781">
        <ele>106.2</ele>
        <time>2018-05-09T13:44:27Z</time>
      </trkpt>
      <trkpt lat="50.64895" lon="3.04808">
        <ele>106.6</ele>
        <time>2018-05-09T13:44:31Z</time>
      </trkpt>
      <trkpt lat="50.64909" lon="3.04834">
        <ele>106</ele>
        <time>2018-05-09T13:44:35Z</time>
      </trkpt>
      <trkpt lat="50.64922" lon="3.04859">
        <ele>106</ele>
        <time>2018-05-09T13:44:39Z</time>
      </trkpt>
      <trkpt lat="50.64933" lon="3.04885">
        <ele>105.8</ele>
        <time>2018-05-09T13:44:43Z</time>
      </trkpt>
      <trkpt lat="50.64942" lon="3.04912">
        <ele>106.6</ele>
        <time>2018-05-09T13:44:47Z</time>
      </trkpt>
      <trkpt lat="50.64953" lon="3.04931">
        <ele>105.8</ele>
        <time>2018-05-09T13:44:51Z</time>
      </trkpt>
      <trkpt lat="50.64966" lon="3.04951">
        <ele>106.2</ele>
        <time>2018-05-09T13:44:55Z</time>
      </trkpt>
      <trkpt lat="50.64978" lon="3.04974">
        <ele>105.8</ele>
        <time>2018-05-09T13:44:59Z</time>
      </trkpt>
      <trkpt lat="50.64989" lon="3.04994">
        <ele>105.6</ele>
        <time>2018-05-09T13:45:03Z</time>
      </trkpt>
      <trkpt lat="50.64999" lon="3.05012">
        <ele>106</ele>
        <time>2018-05-09T13:45:07Z</time>
      </trkpt>
      <trkpt lat="50.65009" lon="3.0503">
        <ele>105.4</ele>
        <time>2018-05-09T13:45:11Z</time>
      </trkpt>
      <trkpt lat="50.6502" lon="3.05051">
        <ele>106</ele>
        <time>2018-05-09T13:45:15Z</time>
      </trkpt>
      <trkpt lat="50.65033" lon="3.05073">
        <ele>106.2</ele>
        <time>2018-05-09T13:45:19Z</time>
      </trkpt>
      <trkpt lat="50.65047" lon="3.05097">
        <ele>106.2</ele>
        <time>2018-05-09T13:45:23Z</time>
      </trkpt>
      <trkpt lat="50.6506" lon="3.05121">
        <ele>105.8</ele>
        <time>2018-05-09T13:45:27Z</time>
      </trkpt>
      <trkpt lat="50.65072" lon="3.05142">
        <ele>105.8</ele>
        <time>2018-05-09T13:45:31Z</time>
      </trkpt>
      <trkpt lat="50.65084" lon="3.05162">
        <ele>105.8</ele>
        <time>2018-05-09T13:45:35Z</time>
      </trkpt>
      <trkpt lat="50.65097" lon="3.05182">
        <ele>106</ele>
        <time>2018-05-09T13:45:39Z</time>
      </trkpt>
      <trkpt lat="50.65111" lon="3.05202">
        <ele>105.8</ele>
        <time>2018-05-09T13:45:43Z</time>
      </trkpt>
      <trkpt lat="50.65122" lon="3.0522">
        <ele>106.6</ele>
        <time>2018-05-09T13:45:47Z</time>
      </trkpt>
      <trkpt lat="50.65137" lon="3.05228">
        <ele>106.4</ele>
        <time>2018-05-09T13:45:51Z</time>
      </trkpt>
      <trkpt lat="50.65153" lon="3.05234">
        <ele>106.8</ele>
        <time>2018-05-09T13:45:55Z</time>
      </trkpt>
      <trkpt lat="50.65167" lon="3.0525">
        <ele>105.8</ele>
        <time>2018-05-09T13:45:59Z</time>
      </trkpt>
      <trkpt lat="50.65181" lon="3.05268">
        <ele>106</ele>
        <time>2018-05-09T13:46:03Z</time>
      </trkpt>
      <trkpt lat="50.65196" lon="3.05286">
        <ele>106.4</ele>
        <time>2018-05-09T13:46:07Z</time>
      </trkpt>
      <trkpt lat="50.65211" lon="3.05303">
        <ele>106.6</ele>
        <time>2018-05-09T13:46:11Z</time>
      </trkpt>
      <trkpt lat="50.65224" lon="3.0532">
        <ele>106.6</ele>
        <time>2018-05-09T13:46:15Z</time>
      </trkpt>
      <trkpt lat="50.65236" lon="3.05337">
        <ele>106.6</ele>
        <time>2018-05-09T13:46:19Z</time>
      </trkpt>
      <trkpt lat="50.65243" lon="3.05361">
        <ele>107</ele>
        <time>2018-05-09T13:46:23Z</time>
      </trkpt>
      <trkpt lat="50.65256" lon="3.0538">
        <ele>106.8</ele>
        <time>2018-05-09T13:46:27Z</time>
      </trkpt>
      <trkpt lat="50.65269" lon="3.05397">
        <ele>107</ele>
        <time>2018-05-09T13:46:31Z</time>
      </trkpt>
      <trkpt lat="50.65283" lon="3.05414">
        <ele>106.4</ele>
        <time>2018-05-09T13:46:35Z</time>
      </trkpt>
      <trkpt lat="50.65297" lon="3.05432">
        <ele>106.2</ele>
        <time>2018-05-09T13:46:39Z</time>
      </trkpt>
      <trkpt lat="50.65311" lon="3.05449">
        <ele>106.2</ele>
        <time>2018-05-09T13:46:43Z</time>
      </trkpt>
      <trkpt lat="50.65325" lon="3.05467">
        <ele>107.2</ele>
        <time>2018-05-09T13:46:47Z</time>
      </trkpt>
      <trkpt lat="50.65334" lon="3.05485">
        <ele>108.2</ele>
        <time>2018-05-09T13:46:51Z</time>
      </trkpt>
      <trkpt lat="50.6534" lon="3.05499">
        <ele>108.2</ele>
        <time>2018-05-09T13:46:55Z</time>
      </trkpt>
      <trkpt lat="50.65354" lon="3.055">
        <ele>108.6</ele>
        <time>2018-05-09T13:46:59Z</time>
      </trkpt>
      <trkpt lat="50.65368" lon="3.05506">
        <ele>108.2</ele>
        <time>2018-05-09T13:47:03Z</time>
      </trkpt>
      <trkpt lat="50.65373" lon="3.05529">
        <ele>108.2</ele>
        <time>2018-05-09T13:47:07Z</time>
      </trkpt>
      <trkpt lat="50.65376" lon="3.05554">
        <ele>108.6</ele>
        <time>2018-05-09T13:47:11Z</time>
      </trkpt>
      <trkpt lat="50.65378" lon="3.05583">
        <ele>108</ele>
        <time>2018-05-09T13:47:15Z</time>
      </trkpt>
      <trkpt lat="50.65381" lon="3.05611">
        <ele>108.6</ele>
        <time>2018-05-09T13:47:19Z</time>
      </trkpt>
      <trkpt lat="50.65383" lon="3.05634">
        <ele>109</ele>
        <time>2018-05-09T13:47:23Z</time>
      </trkpt>
      <trkpt lat="50.65392" lon="3.05639">
        <ele>109.2</ele>
        <time>2018-05-09T13:47:27Z</time>
      </trkpt>
      <trkpt lat="50.65403" lon="3.05647">
        <ele>110</ele>
        <time>2018-05-09T13:47:31Z</time>
      </trkpt>
      <trkpt lat="50.65413" lon="3.05652">
        <ele>110.8</ele>
        <time>2018-05-09T13:47:35Z</time>
      </trkpt>
      <trkpt lat="50.65425" lon="3.05654">
        <ele>110.6</ele>
        <time>2018-05-09T13:47:39Z</time>
      </trkpt>
      <trkpt lat="50.65438" lon="3.05657">
        <ele>110.2</ele>
        <time>2018-05-09T13:47:43Z</time>
      </trkpt>
      <trkpt lat="50.65451" lon="3.05672">
        <ele>109.4</ele>
        <time>2018-05-09T13:47:47Z</time>
      </trkpt>
      <trkpt lat="50.65462" lon="3.0569">
        <ele>108.2</ele>
        <time>2018-05-09T13:47:51Z</time>
      </trkpt>
      <trkpt lat="50.65469" lon="3.057">
        <ele>108.2</ele>
        <time>2018-05-09T13:47:55Z</time>
      </trkpt>
      <trkpt lat="50.65475" lon="3.05692">
        <ele>108.6</ele>
        <time>2018-05-09T13:47:59Z</time>
      </trkpt>
      <trkpt lat="50.65476" lon="3.0569">
        <ele>108.2</ele>
        <time>2018-05-09T13:48:03Z</time>
      </trkpt>
      <trkpt lat="50.65475" lon="3.05679">
        <ele>108.4</ele>
        <time>2018-05-09T13:48:07Z</time>
      </trkpt>
      <trkpt lat="50.65468" lon="3.05667">
        <ele>108.2</ele>
        <time>2018-05-09T13:48:11Z</time>
      </trkpt>
      <trkpt lat="50.65461" lon="3.05653">
        <ele>107.6</ele>
        <time>2018-05-09T13:48:15Z</time>
      </trkpt>
      <trkpt lat="50.65453" lon="3.05639">
        <ele>107.6</ele>
        <time>2018-05-09T13:48:19Z</time>
      </trkpt>
      <trkpt lat="50.65459" lon="3.05633">
        <ele>107.2</ele>
        <time>2018-05-09T13:48:23Z</time>
      </trkpt>
      <trkpt lat="50.65471" lon="3.05642">
        <ele>107.2</ele>
        <time>2018-05-09T13:48:27Z</time>
      </trkpt>
      <trkpt lat="50.65483" lon="3.05658">
        <ele>106.8</ele>
        <time>2018-05-09T13:48:31Z</time>
      </trkpt>
      <trkpt lat="50.65493" lon="3.05677">
        <ele>106.8</ele>
        <time>2018-05-09T13:48:35Z</time>
      </trkpt>
      <trkpt lat="50.65505" lon="3.05696">
        <ele>107.4</ele>
        <time>2018-05-09T13:48:39Z</time>
      </trkpt>
      <trkpt lat="50.65517" lon="3.05713">
        <ele>106.8</ele>
        <time>2018-05-09T13:48:43Z</time>
      </trkpt>
      <trkpt lat="50.65531" lon="3.05732">
        <ele>106.8</ele>
        <time>2018-05-09T13:48:47Z</time>
      </trkpt>
      <trkpt lat="50.65545" lon="3.05748">
        <ele>106.8</ele>
        <time>2018-05-09T13:48:51Z</time>
      </trkpt>
      <trkpt lat="50.65561" lon="3.05763">
        <ele>106.8</ele>
        <time>2018-05-09T13:48:55Z</time>
      </trkpt>
      <trkpt lat="50.65577" lon="3.05776">
        <ele>106.8</ele>
        <time>2018-05-09T13:48:59Z</time>
      </trkpt>
      <trkpt lat="50.65594" lon="3.05788">
        <ele>106.4</ele>
        <time>2018-05-09T13:49:03Z</time>
      </trkpt>
      <trkpt lat="50.6561" lon="3.05803">
        <ele>106.6</ele>
        <time>2018-05-09T13:49:07Z</time>
      </trkpt>
      <trkpt lat="50.65625" lon="3.05817">
        <ele>106.8</ele>
        <time>2018-05-09T13:49:11Z</time>
      </trkpt>
      <trkpt lat="50.6564" lon="3.05831">
        <ele>106.8</ele>
        <time>2018-05-09T13:49:15Z</time>
      </trkpt>
      <trkpt lat="50.65656" lon="3.05843">
        <ele>106.6</ele>
        <time>2018-05-09T13:49:19Z</time>
      </trkpt>
      <trkpt lat="50.65672" lon="3.05861">
        <ele>106.6</ele>
        <time>2018-05-09T13:49:23Z</time>
      </trkpt>
      <trkpt lat="50.6569" lon="3.05873">
        <ele>106.6</ele>
        <time>2018-05-09T13:49:27Z</time>
      </trkpt>
      <trkpt lat="50.65706" lon="3.05882">
        <ele>106.2</ele>
        <time>2018-05-09T13:49:31Z</time>
      </trkpt>
      <trkpt lat="50.65723" lon="3.05891">
        <ele>106.6</ele>
        <time>2018-05-09T13:49:35Z</time>
      </trkpt>
      <trkpt lat="50.6574" lon="3.05899">
        <ele>106.6</ele>
        <time>2018-05-09T13:49:39Z</time>
      </trkpt>
      <trkpt lat="50.65757" lon="3.05907">
        <ele>106.8</ele>
        <time>2018-05-09T13:49:43Z</time>
      </trkpt>
      <trkpt lat="50.65773" lon="3.05913">
        <ele>106.2</ele>
        <time>2018-05-09T13:49:47Z</time>
      </trkpt>
      <trkpt lat="50.6579" lon="3.05913">
        <ele>106.8</ele>
        <time>2018-05-09T13:49:51Z</time>
      </trkpt>
      <trkpt lat="50.65807" lon="3.05912">
        <ele>106.4</ele>
        <time>2018-05-09T13:49:55Z</time>
      </trkpt>
      <trkpt lat="50.65822" lon="3.05912">
        <ele>106.6</ele>
        <time>2018-05-09T13:49:59Z</time>
      </trkpt>
      <trkpt lat="50.65839" lon="3.05912">
        <ele>106.2</ele>
        <time>2018-05-09T13:50:03Z</time>
      </trkpt>
      <trkpt lat="50.65855" lon="3.05916">
        <ele>106.8</ele>
        <time>2018-05-09T13:50:07Z</time>
      </trkpt>
      <trkpt lat="50.65872" lon="3.05921">
        <ele>107</ele>
        <time>2018-05-09T13:50:11Z</time>
      </trkpt>
      <trkpt lat="50.65889" lon="3.05926">
        <ele>106.8</ele>
        <time>2018-05-09T13:50:15Z</time>
      </trkpt>
      <trkpt lat="50.65905" lon="3.05934">
        <ele>107.6</ele>
        <time>2018-05-09T13:50:19Z</time>
      </trkpt>
      <trkpt lat="50.65921" lon="3.05941">
        <ele>107.8</ele>
        <time>2018-05-09T13:50:23Z</time>
      </trkpt>
      <trkpt lat="50.65939" lon="3.05948">
        <ele>107.2</ele>
        <time>2018-05-09T13:50:27Z</time>
      </trkpt>
      <trkpt lat="50.65956" lon="3.05956">
        <ele>106.8</ele>
        <time>2018-05-09T13:50:31Z</time>
      </trkpt>
      <trkpt lat="50.65973" lon="3.05964">
        <ele>107</ele>
        <time>2018-05-09T13:50:35Z</time>
      </trkpt>
      <trkpt lat="50.6599" lon="3.05973">
        <ele>107.4</ele>
        <time>2018-05-09T13:50:39Z</time>
      </trkpt>
      <trkpt lat="50.66006" lon="3.05982">
        <ele>107.2</ele>
        <time>2018-05-09T13:50:43Z</time>
      </trkpt>
      <trkpt lat="50.66021" lon="3.05991">
        <ele>107</ele>
        <time>2018-05-09T13:50:47Z</time>
      </trkpt>
      <trkpt lat="50.66036" lon="3.06">
        <ele>107.2</ele>
        <time>2018-05-09T13:50:51Z</time>
      </trkpt>
      <trkpt lat="50.66048" lon="3.05999">
        <ele>107.2</ele>
        <time>2018-05-09T13:50:55Z</time>
      </trkpt>
      <trkpt lat="50.66058" lon="3.06006">
        <ele>107.6</ele>
        <time>2018-05-09T13:50:59Z</time>
      </trkpt>
      <trkpt lat="50.66068" lon="3.06008">
        <ele>107.2</ele>
        <time>2018-05-09T13:51:03Z</time>
      </trkpt>
      <trkpt lat="50.66081" lon="3.06018">
        <ele>107</ele>
        <time>2018-05-09T13:51:07Z</time>
      </trkpt>
      <trkpt lat="50.66101" lon="3.06032">
        <ele>106.6</ele>
        <time>2018-05-09T13:51:11Z</time>
      </trkpt>
      <trkpt lat="50.66113" lon="3.06054">
        <ele>106.2</ele>
        <time>2018-05-09T13:51:15Z</time>
      </trkpt>
      <trkpt lat="50.66127" lon="3.06075">
        <ele>106.6</ele>
        <time>2018-05-09T13:51:19Z</time>
      </trkpt>
      <trkpt lat="50.66146" lon="3.06084">
        <ele>107</ele>
        <time>2018-05-09T13:51:23Z</time>
      </trkpt>
      <trkpt lat="50.66165" lon="3.06093">
        <ele>107</ele>
        <time>2018-05-09T13:51:27Z</time>
      </trkpt>
      <trkpt lat="50.66183" lon="3.06101">
        <ele>107</ele>
        <time>2018-05-09T13:51:31Z</time>
      </trkpt>
      <trkpt lat="50.66201" lon="3.06108">
        <ele>107.2</ele>
        <time>2018-05-09T13:51:35Z</time>
      </trkpt>
      <trkpt lat="50.66219" lon="3.06116">
        <ele>107</ele>
        <time>2018-05-09T13:51:39Z</time>
      </trkpt>
      <trkpt lat="50.66237" lon="3.06122">
        <ele>107.2</ele>
        <time>2018-05-09T13:51:43Z</time>
      </trkpt>
      <trkpt lat="50.66253" lon="3.06129">
        <ele>106.8</ele>
        <time>2018-05-09T13:51:47Z</time>
      </trkpt>
      <trkpt lat="50.66269" lon="3.06134">
        <ele>107</ele>
        <time>2018-05-09T13:51:51Z</time>
      </trkpt>
      <trkpt lat="50.66285" lon="3.0614">
        <ele>106.8</ele>
        <time>2018-05-09T13:51:55Z</time>
      </trkpt>
      <trkpt lat="50.66302" lon="3.06148">
        <ele>106.8</ele>
        <time>2018-05-09T13:51:59Z</time>
      </trkpt>
      <trkpt lat="50.6632" lon="3.06155">
        <ele>107</ele>
        <time>2018-05-09T13:52:03Z</time>
      </trkpt>
      <trkpt lat="50.66339" lon="3.06162">
        <ele>107.2</ele>
        <time>2018-05-09T13:52:07Z</time>
      </trkpt>
      <trkpt lat="50.66357" lon="3.06169">
        <ele>107.4</ele>
        <time>2018-05-09T13:52:11Z</time>
      </trkpt>
      <trkpt lat="50.66376" lon="3.06177">
        <ele>107.2</ele>
        <time>2018-05-09T13:52:15Z</time>
      </trkpt>
      <trkpt lat="50.66395" lon="3.06184">
        <ele>107</ele>
        <time>2018-05-09T13:52:19Z</time>
      </trkpt>
      <trkpt lat="50.66413" lon="3.06192">
        <ele>107.2</ele>
        <time>2018-05-09T13:52:23Z</time>
      </trkpt>
      <trkpt lat="50.66432" lon="3.06201">
        <ele>107.2</ele>
        <time>2018-05-09T13:52:27Z</time>
      </trkpt>
      <trkpt lat="50.66451" lon="3.06211">
        <ele>106.8</ele>
        <time>2018-05-09T13:52:31Z</time>
      </trkpt>
      <trkpt lat="50.66469" lon="3.06219">
        <ele>107</ele>
        <time>2018-05-09T13:52:35Z</time>
      </trkpt>
      <trkpt lat="50.66486" lon="3.06228">
        <ele>107.8</ele>
        <time>2018-05-09T13:52:39Z</time>
      </trkpt>
      <trkpt lat="50.66503" lon="3.06238">
        <ele>107.8</ele>
        <time>2018-05-09T13:52:43Z</time>
      </trkpt>
      <trkpt lat="50.6652" lon="3.06248">
        <ele>108.2</ele>
        <time>2018-05-09T13:52:47Z</time>
      </trkpt>
      <trkpt lat="50.66537" lon="3.06259">
        <ele>109.6</ele>
        <time>2018-05-09T13:52:51Z</time>
      </trkpt>
      <trkpt lat="50.6655" lon="3.06267">
        <ele>110.6</ele>
        <time>2018-05-09T13:52:55Z</time>
      </trkpt>
      <trkpt lat="50.66561" lon="3.06273">
        <ele>111.2</ele>
        <time>2018-05-09T13:52:59Z</time>
      </trkpt>
      <trkpt lat="50.66572" lon="3.06275">
        <ele>113</ele>
        <time>2018-05-09T13:53:03Z</time>
      </trkpt>
      <trkpt lat="50.66579" lon="3.06277">
        <ele>112.6</ele>
        <time>2018-05-09T13:53:07Z</time>
      </trkpt>
      <trkpt lat="50.6658" lon="3.06292">
        <ele>112.2</ele>
        <time>2018-05-09T13:53:11Z</time>
      </trkpt>
      <trkpt lat="50.66582" lon="3.06314">
        <ele>112.2</ele>
        <time>2018-05-09T13:53:15Z</time>
      </trkpt>
      <trkpt lat="50.66579" lon="3.06337">
        <ele>111.6</ele>
        <time>2018-05-09T13:53:19Z</time>
      </trkpt>
      <trkpt lat="50.66579" lon="3.06357">
        <ele>111.4</ele>
        <time>2018-05-09T13:53:23Z</time>
      </trkpt>
      <trkpt lat="50.66579" lon="3.06375">
        <ele>111.2</ele>
        <time>2018-05-09T13:53:27Z</time>
      </trkpt>
      <trkpt lat="50.66581" lon="3.06384">
        <ele>111</ele>
        <time>2018-05-09T13:53:31Z</time>
      </trkpt>
      <trkpt lat="50.66583" lon="3.06387">
        <ele>111.2</ele>
        <time>2018-05-09T13:53:35Z</time>
      </trkpt>
      <trkpt lat="50.66586" lon="3.06384">
        <ele>111.4</ele>
        <time>2018-05-09T13:53:39Z</time>
      </trkpt>
      <trkpt lat="50.66586" lon="3.06391">
        <ele>111.4</ele>
        <time>2018-05-09T13:53:43Z</time>
      </trkpt>
      <trkpt lat="50.6659" lon="3.06397">
        <ele>111.4</ele>
        <time>2018-05-09T13:53:47Z</time>
      </trkpt>
      <trkpt lat="50.66593" lon="3.06399">
        <ele>111.6</ele>
        <time>2018-05-09T13:53:51Z</time>
      </trkpt>
      <trkpt lat="50.66595" lon="3.064">
        <ele>111.2</ele>
        <time>2018-05-09T13:53:55Z</time>
      </trkpt>
      <trkpt lat="50.66603" lon="3.06404">
        <ele>111.8</ele>
        <time>2018-05-09T13:53:59Z</time>
      </trkpt>
      <trkpt lat="50.66615" lon="3.06411">
        <ele>111.8</ele>
        <time>2018-05-09T13:54:03Z</time>
      </trkpt>
      <trkpt lat="50.66626" lon="3.06413">
        <ele>112.4</ele>
        <time>2018-05-09T13:54:07Z</time>
      </trkpt>
      <trkpt lat="50.66633" lon="3.06398">
        <ele>112.8</ele>
        <time>2018-05-09T13:54:11Z</time>
      </trkpt>
      <trkpt lat="50.66637" lon="3.06382">
        <ele>112.2</ele>
        <time>2018-05-09T13:54:15Z</time>
      </trkpt>
      <trkpt lat="50.66645" lon="3.06365">
        <ele>112.2</ele>
        <time>2018-05-09T13:54:19Z</time>
      </trkpt>
      <trkpt lat="50.66649" lon="3.0634">
        <ele>111.6</ele>
        <time>2018-05-09T13:54:23Z</time>
      </trkpt>
      <trkpt lat="50.66658" lon="3.06318">
        <ele>110.8</ele>
        <time>2018-05-09T13:54:27Z</time>
      </trkpt>
      <trkpt lat="50.66674" lon="3.06316">
        <ele>109.6</ele>
        <time>2018-05-09T13:54:31Z</time>
      </trkpt>
      <trkpt lat="50.66691" lon="3.06321">
        <ele>108.8</ele>
        <time>2018-05-09T13:54:35Z</time>
      </trkpt>
      <trkpt lat="50.6671" lon="3.0633">
        <ele>107.4</ele>
        <time>2018-05-09T13:54:39Z</time>
      </trkpt>
      <trkpt lat="50.66728" lon="3.06339">
        <ele>107.8</ele>
        <time>2018-05-09T13:54:43Z</time>
      </trkpt>
      <trkpt lat="50.66744" lon="3.06349">
        <ele>107.8</ele>
        <time>2018-05-09T13:54:47Z</time>
      </trkpt>
      <trkpt lat="50.66761" lon="3.06358">
        <ele>108</ele>
        <time>2018-05-09T13:54:51Z</time>
      </trkpt>
      <trkpt lat="50.66777" lon="3.06368">
        <ele>107.4</ele>
        <time>2018-05-09T13:54:55Z</time>
      </trkpt>
      <trkpt lat="50.66794" lon="3.06374">
        <ele>108.2</ele>
        <time>2018-05-09T13:54:59Z</time>
      </trkpt>
      <trkpt lat="50.66811" lon="3.06378">
        <ele>108.2</ele>
        <time>2018-05-09T13:55:03Z</time>
      </trkpt>
      <trkpt lat="50.66825" lon="3.06381">
        <ele>106.8</ele>
        <time>2018-05-09T13:55:07Z</time>
      </trkpt>
      <trkpt lat="50.66841" lon="3.06385">
        <ele>108</ele>
        <time>2018-05-09T13:55:11Z</time>
      </trkpt>
      <trkpt lat="50.66857" lon="3.0639">
        <ele>107.6</ele>
        <time>2018-05-09T13:55:15Z</time>
      </trkpt>
      <trkpt lat="50.66873" lon="3.06395">
        <ele>108.6</ele>
        <time>2018-05-09T13:55:19Z</time>
      </trkpt>
      <trkpt lat="50.6689" lon="3.06403">
        <ele>107.2</ele>
        <time>2018-05-09T13:55:23Z</time>
      </trkpt>
      <trkpt lat="50.66907" lon="3.06408">
        <ele>108.2</ele>
        <time>2018-05-09T13:55:27Z</time>
      </trkpt>
      <trkpt lat="50.66923" lon="3.06412">
        <ele>107.4</ele>
        <time>2018-05-09T13:55:31Z</time>
      </trkpt>
      <trkpt lat="50.66938" lon="3.06419">
        <ele>106.2</ele>
        <time>2018-05-09T13:55:35Z</time>
      </trkpt>
      <trkpt lat="50.66953" lon="3.06423">
        <ele>107.6</ele>
        <time>2018-05-09T13:55:39Z</time>
      </trkpt>
      <trkpt lat="50.66969" lon="3.06423">
        <ele>108.2</ele>
        <time>2018-05-09T13:55:43Z</time>
      </trkpt>
      <trkpt lat="50.66983" lon="3.06423">
        <ele>107.8</ele>
        <time>2018-05-09T13:55:47Z</time>
      </trkpt>
      <trkpt lat="50.67" lon="3.06423">
        <ele>108.4</ele>
        <time>2018-05-09T13:55:51Z</time>
      </trkpt>
      <trkpt lat="50.67017" lon="3.06413">
        <ele>107.8</ele>
        <time>2018-05-09T13:55:55Z</time>
      </trkpt>
      <trkpt lat="50.6703" lon="3.06393">
        <ele>107.8</ele>
        <time>2018-05-09T13:55:59Z</time>
      </trkpt>
      <trkpt lat="50.67045" lon="3.06381">
        <ele>108.2</ele>
        <time>2018-05-09T13:56:03Z</time>
      </trkpt>
      <trkpt lat="50.67061" lon="3.06373">
        <ele>108</ele>
        <time>2018-05-09T13:56:07Z</time>
      </trkpt>
      <trkpt lat="50.67077" lon="3.06367">
        <ele>107.4</ele>
        <time>2018-05-09T13:56:11Z</time>
      </trkpt>
      <trkpt lat="50.67094" lon="3.06361">
        <ele>107.4</ele>
        <time>2018-05-09T13:56:15Z</time>
      </trkpt>
      <trkpt lat="50.6711" lon="3.06355">
        <ele>107.4</ele>
        <time>2018-05-09T13:56:19Z</time>
      </trkpt>
      <trkpt lat="50.67126" lon="3.06347">
        <ele>107.6</ele>
        <time>2018-05-09T13:56:23Z</time>
      </trkpt>
      <trkpt lat="50.67141" lon="3.06337">
        <ele>107.6</ele>
        <time>2018-05-09T13:56:27Z</time>
      </trkpt>
      <trkpt lat="50.67157" lon="3.06329">
        <ele>107.2</ele>
        <time>2018-05-09T13:56:31Z</time>
      </trkpt>
      <trkpt lat="50.67174" lon="3.06319">
        <ele>107.4</ele>
        <time>2018-05-09T13:56:35Z</time>
      </trkpt>
      <trkpt lat="50.67189" lon="3.0631">
        <ele>106.6</ele>
        <time>2018-05-09T13:56:39Z</time>
      </trkpt>
      <trkpt lat="50.67205" lon="3.06301">
        <ele>107.2</ele>
        <time>2018-05-09T13:56:43Z</time>
      </trkpt>
      <trkpt lat="50.67222" lon="3.06296">
        <ele>107.8</ele>
        <time>2018-05-09T13:56:47Z</time>
      </trkpt>
      <trkpt lat="50.67239" lon="3.06294">
        <ele>107.2</ele>
        <time>2018-05-09T13:56:51Z</time>
      </trkpt>
      <trkpt lat="50.67256" lon="3.06289">
        <ele>108</ele>
        <time>2018-05-09T13:56:55Z</time>
      </trkpt>
      <trkpt lat="50.67272" lon="3.0628">
        <ele>107.2</ele>
        <time>2018-05-09T13:56:59Z</time>
      </trkpt>
      <trkpt lat="50.67287" lon="3.06269">
        <ele>106.6</ele>
        <time>2018-05-09T13:57:03Z</time>
      </trkpt>
      <trkpt lat="50.67302" lon="3.06258">
        <ele>107.6</ele>
        <time>2018-05-09T13:57:07Z</time>
      </trkpt>
      <trkpt lat="50.67319" lon="3.06249">
        <ele>108</ele>
        <time>2018-05-09T13:57:11Z</time>
      </trkpt>
      <trkpt lat="50.67335" lon="3.06241">
        <ele>107.4</ele>
        <time>2018-05-09T13:57:15Z</time>
      </trkpt>
      <trkpt lat="50.6735" lon="3.06238">
        <ele>108.8</ele>
        <time>2018-05-09T13:57:19Z</time>
      </trkpt>
      <trkpt lat="50.67362" lon="3.06234">
        <ele>109.4</ele>
        <time>2018-05-09T13:57:23Z</time>
      </trkpt>
      <trkpt lat="50.67373" lon="3.06231">
        <ele>110.4</ele>
        <time>2018-05-09T13:57:27Z</time>
      </trkpt>
      <trkpt lat="50.67384" lon="3.06227">
        <ele>110.6</ele>
        <time>2018-05-09T13:57:31Z</time>
      </trkpt>
      <trkpt lat="50.67395" lon="3.06222">
        <ele>110.4</ele>
        <time>2018-05-09T13:57:35Z</time>
      </trkpt>
      <trkpt lat="50.67407" lon="3.06211">
        <ele>109.6</ele>
        <time>2018-05-09T13:57:39Z</time>
      </trkpt>
      <trkpt lat="50.67418" lon="3.06192">
        <ele>109</ele>
        <time>2018-05-09T13:57:43Z</time>
      </trkpt>
      <trkpt lat="50.67434" lon="3.06177">
        <ele>108.2</ele>
        <time>2018-05-09T13:57:47Z</time>
      </trkpt>
      <trkpt lat="50.67449" lon="3.06164">
        <ele>107.8</ele>
        <time>2018-05-09T13:57:51Z</time>
      </trkpt>
      <trkpt lat="50.67464" lon="3.06153">
        <ele>107.4</ele>
        <time>2018-05-09T13:57:55Z</time>
      </trkpt>
      <trkpt lat="50.67479" lon="3.06142">
        <ele>108</ele>
        <time>2018-05-09T13:57:59Z</time>
      </trkpt>
      <trkpt lat="50.67493" lon="3.06134">
        <ele>107.8</ele>
        <time>2018-05-09T13:58:03Z</time>
      </trkpt>
      <trkpt lat="50.67506" lon="3.06124">
        <ele>107.8</ele>
        <time>2018-05-09T13:58:07Z</time>
      </trkpt>
      <trkpt lat="50.67515" lon="3.06105">
        <ele>107.2</ele>
        <time>2018-05-09T13:58:11Z</time>
      </trkpt>
      <trkpt lat="50.67521" lon="3.06087">
        <ele>108.2</ele>
        <time>2018-05-09T13:58:15Z</time>
      </trkpt>
      <trkpt lat="50.67532" lon="3.06078">
        <ele>108.2</ele>
        <time>2018-05-09T13:58:19Z</time>
      </trkpt>
      <trkpt lat="50.67542" lon="3.06083">
        <ele>108.6</ele>
        <time>2018-05-09T13:58:23Z</time>
      </trkpt>
      <trkpt lat="50.67555" lon="3.06086">
        <ele>108.2</ele>
        <time>2018-05-09T13:58:27Z</time>
      </trkpt>
      <trkpt lat="50.6757" lon="3.06081">
        <ele>108.8</ele>
        <time>2018-05-09T13:58:31Z</time>
      </trkpt>
      <trkpt lat="50.67584" lon="3.06075">
        <ele>108.2</ele>
        <time>2018-05-09T13:58:35Z</time>
      </trkpt>
      <trkpt lat="50.67598" lon="3.06068">
        <ele>108</ele>
        <time>2018-05-09T13:58:39Z</time>
      </trkpt>
      <trkpt lat="50.67613" lon="3.06061">
        <ele>109.4</ele>
        <time>2018-05-09T13:58:43Z</time>
      </trkpt>
      <trkpt lat="50.67628" lon="3.06054">
        <ele>108.8</ele>
        <time>2018-05-09T13:58:47Z</time>
      </trkpt>
      <trkpt lat="50.67642" lon="3.06047">
        <ele>108.8</ele>
        <time>2018-05-09T13:58:51Z</time>
      </trkpt>
      <trkpt lat="50.67657" lon="3.0604">
        <ele>108.6</ele>
        <time>2018-05-09T13:58:55Z</time>
      </trkpt>
      <trkpt lat="50.67673" lon="3.06034">
        <ele>108.2</ele>
        <time>2018-05-09T13:58:59Z</time>
      </trkpt>
      <trkpt lat="50.67689" lon="3.06029">
        <ele>108.2</ele>
        <time>2018-05-09T13:59:03Z</time>
      </trkpt>
      <trkpt lat="50.67706" lon="3.06023">
        <ele>108.2</ele>
        <time>2018-05-09T13:59:07Z</time>
      </trkpt>
      <trkpt lat="50.67721" lon="3.06016">
        <ele>108.6</ele>
        <time>2018-05-09T13:59:11Z</time>
      </trkpt>
      <trkpt lat="50.67737" lon="3.06012">
        <ele>108.2</ele>
        <time>2018-05-09T13:59:15Z</time>
      </trkpt>
      <trkpt lat="50.67753" lon="3.06008">
        <ele>107.6</ele>
        <time>2018-05-09T13:59:19Z</time>
      </trkpt>
      <trkpt lat="50.6777" lon="3.06004">
        <ele>108.6</ele>
        <time>2018-05-09T13:59:23Z</time>
      </trkpt>
      <trkpt lat="50.67787" lon="3.05999">
        <ele>107.6</ele>
        <time>2018-05-09T13:59:27Z</time>
      </trkpt>
      <trkpt lat="50.67803" lon="3.05994">
        <ele>108.2</ele>
        <time>2018-05-09T13:59:31Z</time>
      </trkpt>
      <trkpt lat="50.67819" lon="3.05989">
        <ele>109</ele>
        <time>2018-05-09T13:59:35Z</time>
      </trkpt>
      <trkpt lat="50.67835" lon="3.05983">
        <ele>108.8</ele>
        <time>2018-05-09T13:59:39Z</time>
      </trkpt>
      <trkpt lat="50.67851" lon="3.05977">
        <ele>108.4</ele>
        <time>2018-05-09T13:59:43Z</time>
      </trkpt>
      <trkpt lat="50.67866" lon="3.0598">
        <ele>108.2</ele>
        <time>2018-05-09T13:59:47Z</time>
      </trkpt>
      <trkpt lat="50.6788" lon="3.05982">
        <ele>108</ele>
        <time>2018-05-09T13:59:51Z</time>
      </trkpt>
      <trkpt lat="50.67896" lon="3.05982">
        <ele>108.6</ele>
        <time>2018-05-09T13:59:55Z</time>
      </trkpt>
      <trkpt lat="50.67912" lon="3.05981">
        <ele>108.2</ele>
        <time>2018-05-09T13:59:59Z</time>
      </trkpt>
      <trkpt lat="50.67928" lon="3.05981">
        <ele>108.8</ele>
        <time>2018-05-09T14:00:03Z</time>
      </trkpt>
      <trkpt lat="50.67945" lon="3.05981">
        <ele>108.2</ele>
        <time>2018-05-09T14:00:07Z</time>
      </trkpt>
      <trkpt lat="50.67963" lon="3.05981">
        <ele>108.2</ele>
        <time>2018-05-09T14:00:11Z</time>
      </trkpt>
      <trkpt lat="50.67981" lon="3.05982">
        <ele>108.6</ele>
        <time>2018-05-09T14:00:15Z</time>
      </trkpt>
      <trkpt lat="50.67999" lon="3.05984">
        <ele>107.8</ele>
        <time>2018-05-09T14:00:19Z</time>
      </trkpt>
      <trkpt lat="50.68017" lon="3.05988">
        <ele>108.2</ele>
        <time>2018-05-09T14:00:23Z</time>
      </trkpt>
      <trkpt lat="50.68036" lon="3.05992">
        <ele>108.2</ele>
        <time>2018-05-09T14:00:27Z</time>
      </trkpt>
      <trkpt lat="50.68054" lon="3.05995">
        <ele>108.8</ele>
        <time>2018-05-09T14:00:31Z</time>
      </trkpt>
      <trkpt lat="50.6807" lon="3.05991">
        <ele>108.8</ele>
        <time>2018-05-09T14:00:35Z</time>
      </trkpt>
      <trkpt lat="50.68086" lon="3.05994">
        <ele>108.4</ele>
        <time>2018-05-09T14:00:39Z</time>
      </trkpt>
      <trkpt lat="50.68103" lon="3.05997">
        <ele>108.2</ele>
        <time>2018-05-09T14:00:43Z</time>
      </trkpt>
      <trkpt lat="50.6812" lon="3.06">
        <ele>108.8</ele>
        <time>2018-05-09T14:00:47Z</time>
      </trkpt>
      <trkpt lat="50.68139" lon="3.06004">
        <ele>108.2</ele>
        <time>2018-05-09T14:00:51Z</time>
      </trkpt>
      <trkpt lat="50.68158" lon="3.06006">
        <ele>108.2</ele>
        <time>2018-05-09T14:00:55Z</time>
      </trkpt>
      <trkpt lat="50.68176" lon="3.06007">
        <ele>108.2</ele>
        <time>2018-05-09T14:00:59Z</time>
      </trkpt>
      <trkpt lat="50.68193" lon="3.06004">
        <ele>108.2</ele>
        <time>2018-05-09T14:01:03Z</time>
      </trkpt>
      <trkpt lat="50.68213" lon="3.06002">
        <ele>108.6</ele>
        <time>2018-05-09T14:01:07Z</time>
      </trkpt>
      <trkpt lat="50.68231" lon="3.05999">
        <ele>108.6</ele>
        <time>2018-05-09T14:01:11Z</time>
      </trkpt>
      <trkpt lat="50.6825" lon="3.05996">
        <ele>108.4</ele>
        <time>2018-05-09T14:01:15Z</time>
      </trkpt>
      <trkpt lat="50.68267" lon="3.05993">
        <ele>107.8</ele>
        <time>2018-05-09T14:01:19Z</time>
      </trkpt>
      <trkpt lat="50.68284" lon="3.0599">
        <ele>108.2</ele>
        <time>2018-05-09T14:01:23Z</time>
      </trkpt>
      <trkpt lat="50.68298" lon="3.05985">
        <ele>108.2</ele>
        <time>2018-05-09T14:01:27Z</time>
      </trkpt>
      <trkpt lat="50.68314" lon="3.05979">
        <ele>107.8</ele>
        <time>2018-05-09T14:01:31Z</time>
      </trkpt>
      <trkpt lat="50.68331" lon="3.05972">
        <ele>108.6</ele>
        <time>2018-05-09T14:01:35Z</time>
      </trkpt>
      <trkpt lat="50.68347" lon="3.05966">
        <ele>108.2</ele>
        <time>2018-05-09T14:01:39Z</time>
      </trkpt>
      <trkpt lat="50.68362" lon="3.05958">
        <ele>109</ele>
        <time>2018-05-09T14:01:43Z</time>
      </trkpt>
      <trkpt lat="50.68377" lon="3.05951">
        <ele>108.8</ele>
        <time>2018-05-09T14:01:47Z</time>
      </trkpt>
      <trkpt lat="50.68392" lon="3.05944">
        <ele>108.8</ele>
        <time>2018-05-09T14:01:51Z</time>
      </trkpt>
      <trkpt lat="50.68406" lon="3.05935">
        <ele>108.8</ele>
        <time>2018-05-09T14:01:55Z</time>
      </trkpt>
      <trkpt lat="50.68419" lon="3.05923">
        <ele>108.2</ele>
        <time>2018-05-09T14:01:59Z</time>
      </trkpt>
      <trkpt lat="50.6843" lon="3.05908">
        <ele>108.8</ele>
        <time>2018-05-09T14:02:03Z</time>
      </trkpt>
      <trkpt lat="50.68443" lon="3.05898">
        <ele>108.2</ele>
        <time>2018-05-09T14:02:07Z</time>
      </trkpt>
      <trkpt lat="50.68457" lon="3.05888">
        <ele>108.8</ele>
        <time>2018-05-09T14:02:11Z</time>
      </trkpt>
      <trkpt lat="50.68471" lon="3.05878">
        <ele>108.8</ele>
        <time>2018-05-09T14:02:15Z</time>
      </trkpt>
      <trkpt lat="50.68485" lon="3.05865">
        <ele>108</ele>
        <time>2018-05-09T14:02:19Z</time>
      </trkpt>
      <trkpt lat="50.685" lon="3.05856">
        <ele>107.8</ele>
        <time>2018-05-09T14:02:23Z</time>
      </trkpt>
      <trkpt lat="50.68514" lon="3.05845">
        <ele>107.8</ele>
        <time>2018-05-09T14:02:27Z</time>
      </trkpt>
      <trkpt lat="50.68528" lon="3.05834">
        <ele>107.6</ele>
        <time>2018-05-09T14:02:31Z</time>
      </trkpt>
      <trkpt lat="50.68543" lon="3.05825">
        <ele>107.6</ele>
        <time>2018-05-09T14:02:35Z</time>
      </trkpt>
      <trkpt lat="50.68557" lon="3.05815">
        <ele>107.8</ele>
        <time>2018-05-09T14:02:39Z</time>
      </trkpt>
      <trkpt lat="50.68571" lon="3.05804">
        <ele>108</ele>
        <time>2018-05-09T14:02:43Z</time>
      </trkpt>
      <trkpt lat="50.68583" lon="3.05791">
        <ele>108.2</ele>
        <time>2018-05-09T14:02:47Z</time>
      </trkpt>
      <trkpt lat="50.68595" lon="3.05778">
        <ele>108.4</ele>
        <time>2018-05-09T14:02:51Z</time>
      </trkpt>
      <trkpt lat="50.68606" lon="3.05766">
        <ele>108.2</ele>
        <time>2018-05-09T14:02:55Z</time>
      </trkpt>
      <trkpt lat="50.68617" lon="3.05752">
        <ele>107.4</ele>
        <time>2018-05-09T14:02:59Z</time>
      </trkpt>
      <trkpt lat="50.68628" lon="3.05736">
        <ele>108.2</ele>
        <time>2018-05-09T14:03:03Z</time>
      </trkpt>
      <trkpt lat="50.68638" lon="3.05719">
        <ele>108</ele>
        <time>2018-05-09T14:03:07Z</time>
      </trkpt>
      <trkpt lat="50.68644" lon="3.05697">
        <ele>108</ele>
        <time>2018-05-09T14:03:11Z</time>
      </trkpt>
      <trkpt lat="50.6865" lon="3.05678">
        <ele>107.4</ele>
        <time>2018-05-09T14:03:15Z</time>
      </trkpt>
      <trkpt lat="50.68659" lon="3.05659">
        <ele>107.8</ele>
        <time>2018-05-09T14:03:19Z</time>
      </trkpt>
      <trkpt lat="50.6867" lon="3.05641">
        <ele>107.8</ele>
        <time>2018-05-09T14:03:23Z</time>
      </trkpt>
      <trkpt lat="50.68681" lon="3.05623">
        <ele>107.8</ele>
        <time>2018-05-09T14:03:27Z</time>
      </trkpt>
      <trkpt lat="50.68692" lon="3.05605">
        <ele>107.2</ele>
        <time>2018-05-09T14:03:31Z</time>
      </trkpt>
      <trkpt lat="50.68703" lon="3.05587">
        <ele>107.8</ele>
        <time>2018-05-09T14:03:35Z</time>
      </trkpt>
      <trkpt lat="50.68714" lon="3.0557">
        <ele>107.8</ele>
        <time>2018-05-09T14:03:39Z</time>
      </trkpt>
      <trkpt lat="50.68726" lon="3.05554">
        <ele>108.4</ele>
        <time>2018-05-09T14:03:43Z</time>
      </trkpt>
      <trkpt lat="50.68738" lon="3.0554">
        <ele>108.2</ele>
        <time>2018-05-09T14:03:47Z</time>
      </trkpt>
      <trkpt lat="50.68748" lon="3.05525">
        <ele>108.2</ele>
        <time>2018-05-09T14:03:51Z</time>
      </trkpt>
      <trkpt lat="50.68759" lon="3.05511">
        <ele>108.2</ele>
        <time>2018-05-09T14:03:55Z</time>
      </trkpt>
      <trkpt lat="50.6877" lon="3.05496">
        <ele>108.2</ele>
        <time>2018-05-09T14:03:59Z</time>
      </trkpt>
      <trkpt lat="50.68782" lon="3.05479">
        <ele>108.2</ele>
        <time>2018-05-09T14:04:03Z</time>
      </trkpt>
      <trkpt lat="50.68794" lon="3.05464">
        <ele>108.6</ele>
        <time>2018-05-09T14:04:07Z</time>
      </trkpt>
      <trkpt lat="50.68807" lon="3.05453">
        <ele>108.2</ele>
        <time>2018-05-09T14:04:11Z</time>
      </trkpt>
      <trkpt lat="50.68817" lon="3.05443">
        <ele>108.6</ele>
        <time>2018-05-09T14:04:15Z</time>
      </trkpt>
      <trkpt lat="50.68825" lon="3.05438">
        <ele>108.2</ele>
        <time>2018-05-09T14:04:19Z</time>
      </trkpt>
      <trkpt lat="50.68835" lon="3.05427">
        <ele>109</ele>
        <time>2018-05-09T14:04:23Z</time>
      </trkpt>
      <trkpt lat="50.68844" lon="3.05413">
        <ele>108.6</ele>
        <time>2018-05-09T14:04:27Z</time>
      </trkpt>
      <trkpt lat="50.68855" lon="3.05399">
        <ele>108</ele>
        <time>2018-05-09T14:04:31Z</time>
      </trkpt>
      <trkpt lat="50.68867" lon="3.05386">
        <ele>108</ele>
        <time>2018-05-09T14:04:35Z</time>
      </trkpt>
      <trkpt lat="50.68878" lon="3.05372">
        <ele>108.2</ele>
        <time>2018-05-09T14:04:39Z</time>
      </trkpt>
      <trkpt lat="50.6889" lon="3.05357">
        <ele>108.2</ele>
        <time>2018-05-09T14:04:43Z</time>
      </trkpt>
      <trkpt lat="50.68903" lon="3.05346">
        <ele>108.6</ele>
        <time>2018-05-09T14:04:47Z</time>
      </trkpt>
      <trkpt lat="50.68917" lon="3.05339">
        <ele>108.8</ele>
        <time>2018-05-09T14:04:51Z</time>
      </trkpt>
      <trkpt lat="50.68932" lon="3.05334">
        <ele>107.8</ele>
        <time>2018-05-09T14:04:55Z</time>
      </trkpt>
      <trkpt lat="50.68945" lon="3.0532">
        <ele>108.6</ele>
        <time>2018-05-09T14:04:59Z</time>
      </trkpt>
      <trkpt lat="50.68958" lon="3.05305">
        <ele>108.6</ele>
        <time>2018-05-09T14:05:03Z</time>
      </trkpt>
      <trkpt lat="50.6897" lon="3.05291">
        <ele>108.8</ele>
        <time>2018-05-09T14:05:07Z</time>
      </trkpt>
      <trkpt lat="50.68983" lon="3.05278">
        <ele>108.8</ele>
        <time>2018-05-09T14:05:11Z</time>
      </trkpt>
      <trkpt lat="50.68995" lon="3.05267">
        <ele>108.2</ele>
        <time>2018-05-09T14:05:15Z</time>
      </trkpt>
      <trkpt lat="50.69006" lon="3.05254">
        <ele>108.8</ele>
        <time>2018-05-09T14:05:19Z</time>
      </trkpt>
      <trkpt lat="50.69018" lon="3.05241">
        <ele>108.8</ele>
        <time>2018-05-09T14:05:23Z</time>
      </trkpt>
      <trkpt lat="50.6903" lon="3.05226">
        <ele>108.2</ele>
        <time>2018-05-09T14:05:27Z</time>
      </trkpt>
      <trkpt lat="50.69043" lon="3.05211">
        <ele>108.2</ele>
        <time>2018-05-09T14:05:31Z</time>
      </trkpt>
      <trkpt lat="50.69056" lon="3.05195">
        <ele>108.2</ele>
        <time>2018-05-09T14:05:35Z</time>
      </trkpt>
      <trkpt lat="50.6907" lon="3.0518">
        <ele>108.8</ele>
        <time>2018-05-09T14:05:39Z</time>
      </trkpt>
      <trkpt lat="50.69083" lon="3.05164">
        <ele>108.2</ele>
        <time>2018-05-09T14:05:43Z</time>
      </trkpt>
      <trkpt lat="50.69097" lon="3.05149">
        <ele>108.6</ele>
        <time>2018-05-09T14:05:47Z</time>
      </trkpt>
      <trkpt lat="50.69112" lon="3.05135">
        <ele>108.8</ele>
        <time>2018-05-09T14:05:51Z</time>
      </trkpt>
      <trkpt lat="50.69127" lon="3.05121">
        <ele>108.6</ele>
        <time>2018-05-09T14:05:55Z</time>
      </trkpt>
      <trkpt lat="50.69141" lon="3.05107">
        <ele>108.8</ele>
        <time>2018-05-09T14:05:59Z</time>
      </trkpt>
      <trkpt lat="50.69153" lon="3.05094">
        <ele>108.2</ele>
        <time>2018-05-09T14:06:03Z</time>
      </trkpt>
      <trkpt lat="50.69164" lon="3.05075">
        <ele>108.6</ele>
        <time>2018-05-09T14:06:07Z</time>
      </trkpt>
      <trkpt lat="50.69174" lon="3.05052">
        <ele>108.2</ele>
        <time>2018-05-09T14:06:11Z</time>
      </trkpt>
      <trkpt lat="50.69184" lon="3.05031">
        <ele>108.2</ele>
        <time>2018-05-09T14:06:15Z</time>
      </trkpt>
      <trkpt lat="50.69195" lon="3.05008">
        <ele>108.8</ele>
        <time>2018-05-09T14:06:19Z</time>
      </trkpt>
      <trkpt lat="50.69204" lon="3.04987">
        <ele>108.8</ele>
        <time>2018-05-09T14:06:23Z</time>
      </trkpt>
      <trkpt lat="50.69216" lon="3.04966">
        <ele>109.2</ele>
        <time>2018-05-09T14:06:27Z</time>
      </trkpt>
      <trkpt lat="50.69223" lon="3.04946">
        <ele>109.2</ele>
        <time>2018-05-09T14:06:31Z</time>
      </trkpt>
      <trkpt lat="50.6923" lon="3.04921">
        <ele>110</ele>
        <time>2018-05-09T14:06:35Z</time>
      </trkpt>
      <trkpt lat="50.69236" lon="3.04895">
        <ele>110.2</ele>
        <time>2018-05-09T14:06:39Z</time>
      </trkpt>
      <trkpt lat="50.69242" lon="3.04871">
        <ele>110.4</ele>
        <time>2018-05-09T14:06:43Z</time>
      </trkpt>
      <trkpt lat="50.69248" lon="3.04844">
        <ele>110</ele>
        <time>2018-05-09T14:06:47Z</time>
      </trkpt>
      <trkpt lat="50.69254" lon="3.04818">
        <ele>110</ele>
        <time>2018-05-09T14:06:51Z</time>
      </trkpt>
      <trkpt lat="50.69259" lon="3.04794">
        <ele>109.8</ele>
        <time>2018-05-09T14:06:55Z</time>
      </trkpt>
      <trkpt lat="50.69264" lon="3.04771">
        <ele>109.6</ele>
        <time>2018-05-09T14:06:59Z</time>
      </trkpt>
      <trkpt lat="50.6927" lon="3.04748">
        <ele>110</ele>
        <time>2018-05-09T14:07:03Z</time>
      </trkpt>
      <trkpt lat="50.69274" lon="3.04721">
        <ele>108.8</ele>
        <time>2018-05-09T14:07:07Z</time>
      </trkpt>
      <trkpt lat="50.69276" lon="3.04692">
        <ele>108.2</ele>
        <time>2018-05-09T14:07:11Z</time>
      </trkpt>
      <trkpt lat="50.69275" lon="3.04662">
        <ele>108.6</ele>
        <time>2018-05-09T14:07:15Z</time>
      </trkpt>
      <trkpt lat="50.69273" lon="3.04635">
        <ele>108.6</ele>
        <time>2018-05-09T14:07:19Z</time>
      </trkpt>
      <trkpt lat="50.69274" lon="3.04609">
        <ele>109.2</ele>
        <time>2018-05-09T14:07:23Z</time>
      </trkpt>
      <trkpt lat="50.69284" lon="3.04593">
        <ele>108.8</ele>
        <time>2018-05-09T14:07:27Z</time>
      </trkpt>
      <trkpt lat="50.69292" lon="3.04581">
        <ele>109.4</ele>
        <time>2018-05-09T14:07:31Z</time>
      </trkpt>
      <trkpt lat="50.69292" lon="3.04564">
        <ele>109.4</ele>
        <time>2018-05-09T14:07:35Z</time>
      </trkpt>
      <trkpt lat="50.69293" lon="3.04546">
        <ele>109.8</ele>
        <time>2018-05-09T14:07:39Z</time>
      </trkpt>
      <trkpt lat="50.69293" lon="3.04528">
        <ele>109.8</ele>
        <time>2018-05-09T14:07:43Z</time>
      </trkpt>
      <trkpt lat="50.69296" lon="3.04508">
        <ele>109.6</ele>
        <time>2018-05-09T14:07:47Z</time>
      </trkpt>
      <trkpt lat="50.69291" lon="3.04491">
        <ele>109.2</ele>
        <time>2018-05-09T14:07:51Z</time>
      </trkpt>
      <trkpt lat="50.69283" lon="3.04476">
        <ele>108</ele>
        <time>2018-05-09T14:07:55Z</time>
      </trkpt>
      <trkpt lat="50.69279" lon="3.04455">
        <ele>108.6</ele>
        <time>2018-05-09T14:07:59Z</time>
      </trkpt>
      <trkpt lat="50.6928" lon="3.04432">
        <ele>108.4</ele>
        <time>2018-05-09T14:08:03Z</time>
      </trkpt>
      <trkpt lat="50.69283" lon="3.0441">
        <ele>108.2</ele>
        <time>2018-05-09T14:08:07Z</time>
      </trkpt>
      <trkpt lat="50.69284" lon="3.04389">
        <ele>108.2</ele>
        <time>2018-05-09T14:08:11Z</time>
      </trkpt>
      <trkpt lat="50.69285" lon="3.04368">
        <ele>108.2</ele>
        <time>2018-05-09T14:08:15Z</time>
      </trkpt>
      <trkpt lat="50.69287" lon="3.04345">
        <ele>108.2</ele>
        <time>2018-05-09T14:08:19Z</time>
      </trkpt>
      <trkpt lat="50.6929" lon="3.04323">
        <ele>108.2</ele>
        <time>2018-05-09T14:08:23Z</time>
      </trkpt>
      <trkpt lat="50.69293" lon="3.04299">
        <ele>108.4</ele>
        <time>2018-05-09T14:08:27Z</time>
      </trkpt>
      <trkpt lat="50.69295" lon="3.04275">
        <ele>108.2</ele>
        <time>2018-05-09T14:08:31Z</time>
      </trkpt>
      <trkpt lat="50.69297" lon="3.0425">
        <ele>107.6</ele>
        <time>2018-05-09T14:08:35Z</time>
      </trkpt>
      <trkpt lat="50.693" lon="3.04224">
        <ele>107.8</ele>
        <time>2018-05-09T14:08:39Z</time>
      </trkpt>
      <trkpt lat="50.69302" lon="3.04198">
        <ele>108.2</ele>
        <time>2018-05-09T14:08:43Z</time>
      </trkpt>
      <trkpt lat="50.69306" lon="3.04172">
        <ele>108</ele>
        <time>2018-05-09T14:08:47Z</time>
      </trkpt>
      <trkpt lat="50.69309" lon="3.04147">
        <ele>108</ele>
        <time>2018-05-09T14:08:51Z</time>
      </trkpt>
      <trkpt lat="50.69312" lon="3.04122">
        <ele>108.2</ele>
        <time>2018-05-09T14:08:55Z</time>
      </trkpt>
      <trkpt lat="50.69315" lon="3.04096">
        <ele>108</ele>
        <time>2018-05-09T14:08:59Z</time>
      </trkpt>
      <trkpt lat="50.69319" lon="3.0407">
        <ele>108</ele>
        <time>2018-05-09T14:09:03Z</time>
      </trkpt>
      <trkpt lat="50.69323" lon="3.04043">
        <ele>108</ele>
        <time>2018-05-09T14:09:07Z</time>
      </trkpt>
      <trkpt lat="50.69327" lon="3.04016">
        <ele>107.8</ele>
        <time>2018-05-09T14:09:11Z</time>
      </trkpt>
      <trkpt lat="50.69331" lon="3.0399">
        <ele>107.8</ele>
        <time>2018-05-09T14:09:15Z</time>
      </trkpt>
      <trkpt lat="50.69336" lon="3.03964">
        <ele>108</ele>
        <time>2018-05-09T14:09:19Z</time>
      </trkpt>
      <trkpt lat="50.6934" lon="3.03939">
        <ele>108.2</ele>
        <time>2018-05-09T14:09:23Z</time>
      </trkpt>
      <trkpt lat="50.69345" lon="3.03913">
        <ele>108</ele>
        <time>2018-05-09T14:09:27Z</time>
      </trkpt>
      <trkpt lat="50.69349" lon="3.03888">
        <ele>108.2</ele>
        <time>2018-05-09T14:09:31Z</time>
      </trkpt>
      <trkpt lat="50.69354" lon="3.03863">
        <ele>108.2</ele>
        <time>2018-05-09T14:09:35Z</time>
      </trkpt>
      <trkpt lat="50.69358" lon="3.03837">
        <ele>108.4</ele>
        <time>2018-05-09T14:09:39Z</time>
      </trkpt>
      <trkpt lat="50.69363" lon="3.03811">
        <ele>108.8</ele>
        <time>2018-05-09T14:09:43Z</time>
      </trkpt>
      <trkpt lat="50.69368" lon="3.03786">
        <ele>108.2</ele>
        <time>2018-05-09T14:09:47Z</time>
      </trkpt>
      <trkpt lat="50.69374" lon="3.0376">
        <ele>108.4</ele>
        <time>2018-05-09T14:09:51Z</time>
      </trkpt>
      <trkpt lat="50.69379" lon="3.03735">
        <ele>108.2</ele>
        <time>2018-05-09T14:09:55Z</time>
      </trkpt>
      <trkpt lat="50.69385" lon="3.03711">
        <ele>108.8</ele>
        <time>2018-05-09T14:09:59Z</time>
      </trkpt>
      <trkpt lat="50.6939" lon="3.03684">
        <ele>108.8</ele>
        <time>2018-05-09T14:10:03Z</time>
      </trkpt>
      <trkpt lat="50.69396" lon="3.0366">
        <ele>108.8</ele>
        <time>2018-05-09T14:10:07Z</time>
      </trkpt>
      <trkpt lat="50.69402" lon="3.03636">
        <ele>108.8</ele>
        <time>2018-05-09T14:10:11Z</time>
      </trkpt>
      <trkpt lat="50.69409" lon="3.03611">
        <ele>108.8</ele>
        <time>2018-05-09T14:10:15Z</time>
      </trkpt>
      <trkpt lat="50.69416" lon="3.03585">
        <ele>108.6</ele>
        <time>2018-05-09T14:10:19Z</time>
      </trkpt>
      <trkpt lat="50.69423" lon="3.03559">
        <ele>108.6</ele>
        <time>2018-05-09T14:10:23Z</time>
      </trkpt>
      <trkpt lat="50.6943" lon="3.03533">
        <ele>108.2</ele>
        <time>2018-05-09T14:10:27Z</time>
      </trkpt>
      <trkpt lat="50.69438" lon="3.03508">
        <ele>108.4</ele>
        <time>2018-05-09T14:10:31Z</time>
      </trkpt>
      <trkpt lat="50.69445" lon="3.03482">
        <ele>108.8</ele>
        <time>2018-05-09T14:10:35Z</time>
      </trkpt>
      <trkpt lat="50.69453" lon="3.03456">
        <ele>108.6</ele>
        <time>2018-05-09T14:10:39Z</time>
      </trkpt>
      <trkpt lat="50.6946" lon="3.03431">
        <ele>108.8</ele>
        <time>2018-05-09T14:10:43Z</time>
      </trkpt>
      <trkpt lat="50.69469" lon="3.03406">
        <ele>108.2</ele>
        <time>2018-05-09T14:10:47Z</time>
      </trkpt>
      <trkpt lat="50.69478" lon="3.03382">
        <ele>108.2</ele>
        <time>2018-05-09T14:10:51Z</time>
      </trkpt>
      <trkpt lat="50.69487" lon="3.03359">
        <ele>108.8</ele>
        <time>2018-05-09T14:10:55Z</time>
      </trkpt>
      <trkpt lat="50.69495" lon="3.03335">
        <ele>108.4</ele>
        <time>2018-05-09T14:10:59Z</time>
      </trkpt>
      <trkpt lat="50.69504" lon="3.03311">
        <ele>108.2</ele>
        <time>2018-05-09T14:11:03Z</time>
      </trkpt>
      <trkpt lat="50.69512" lon="3.03287">
        <ele>108.8</ele>
        <time>2018-05-09T14:11:07Z</time>
      </trkpt>
      <trkpt lat="50.69521" lon="3.03262">
        <ele>108.2</ele>
        <time>2018-05-09T14:11:11Z</time>
      </trkpt>
      <trkpt lat="50.6953" lon="3.03237">
        <ele>108.6</ele>
        <time>2018-05-09T14:11:15Z</time>
      </trkpt>
      <trkpt lat="50.69538" lon="3.03212">
        <ele>108.8</ele>
        <time>2018-05-09T14:11:19Z</time>
      </trkpt>
      <trkpt lat="50.69547" lon="3.03187">
        <ele>108.6</ele>
        <time>2018-05-09T14:11:23Z</time>
      </trkpt>
      <trkpt lat="50.69555" lon="3.03163">
        <ele>108.8</ele>
        <time>2018-05-09T14:11:27Z</time>
      </trkpt>
      <trkpt lat="50.69564" lon="3.03138">
        <ele>108.8</ele>
        <time>2018-05-09T14:11:31Z</time>
      </trkpt>
      <trkpt lat="50.69573" lon="3.03114">
        <ele>108.4</ele>
        <time>2018-05-09T14:11:35Z</time>
      </trkpt>
      <trkpt lat="50.69581" lon="3.03089">
        <ele>108.2</ele>
        <time>2018-05-09T14:11:39Z</time>
      </trkpt>
      <trkpt lat="50.6959" lon="3.03064">
        <ele>108.8</ele>
        <time>2018-05-09T14:11:43Z</time>
      </trkpt>
      <trkpt lat="50.696" lon="3.0304">
        <ele>108.2</ele>
        <time>2018-05-09T14:11:47Z</time>
      </trkpt>
      <trkpt lat="50.69612" lon="3.03018">
        <ele>108</ele>
        <time>2018-05-09T14:11:51Z</time>
      </trkpt>
      <trkpt lat="50.69622" lon="3.02995">
        <ele>108.4</ele>
        <time>2018-05-09T14:11:55Z</time>
      </trkpt>
      <trkpt lat="50.69628" lon="3.02971">
        <ele>108</ele>
        <time>2018-05-09T14:11:59Z</time>
      </trkpt>
      <trkpt lat="50.69634" lon="3.02944">
        <ele>108.8</ele>
        <time>2018-05-09T14:12:03Z</time>
      </trkpt>
      <trkpt lat="50.69641" lon="3.02918">
        <ele>108.6</ele>
        <time>2018-05-09T14:12:07Z</time>
      </trkpt>
      <trkpt lat="50.69647" lon="3.02891">
        <ele>108.6</ele>
        <time>2018-05-09T14:12:11Z</time>
      </trkpt>
      <trkpt lat="50.69653" lon="3.02866">
        <ele>108.4</ele>
        <time>2018-05-09T14:12:15Z</time>
      </trkpt>
      <trkpt lat="50.69659" lon="3.0284">
        <ele>108.2</ele>
        <time>2018-05-09T14:12:19Z</time>
      </trkpt>
      <trkpt lat="50.69665" lon="3.0281">
        <ele>108.2</ele>
        <time>2018-05-09T14:12:23Z</time>
      </trkpt>
      <trkpt lat="50.69669" lon="3.02779">
        <ele>108.2</ele>
        <time>2018-05-09T14:12:27Z</time>
      </trkpt>
      <trkpt lat="50.69674" lon="3.02748">
        <ele>108.6</ele>
        <time>2018-05-09T14:12:31Z</time>
      </trkpt>
      <trkpt lat="50.69679" lon="3.02719">
        <ele>108.6</ele>
        <time>2018-05-09T14:12:35Z</time>
      </trkpt>
      <trkpt lat="50.69684" lon="3.0269">
        <ele>108</ele>
        <time>2018-05-09T14:12:39Z</time>
      </trkpt>
      <trkpt lat="50.69688" lon="3.02662">
        <ele>107.8</ele>
        <time>2018-05-09T14:12:43Z</time>
      </trkpt>
      <trkpt lat="50.69691" lon="3.02634">
        <ele>108</ele>
        <time>2018-05-09T14:12:47Z</time>
      </trkpt>
      <trkpt lat="50.69696" lon="3.02607">
        <ele>108.2</ele>
        <time>2018-05-09T14:12:51Z</time>
      </trkpt>
      <trkpt lat="50.69702" lon="3.0258">
        <ele>108.2</ele>
        <time>2018-05-09T14:12:55Z</time>
      </trkpt>
      <trkpt lat="50.69708" lon="3.02553">
        <ele>108</ele>
        <time>2018-05-09T14:12:59Z</time>
      </trkpt>
      <trkpt lat="50.69713" lon="3.02527">
        <ele>107.8</ele>
        <time>2018-05-09T14:13:03Z</time>
      </trkpt>
      <trkpt lat="50.69718" lon="3.025">
        <ele>108.2</ele>
        <time>2018-05-09T14:13:07Z</time>
      </trkpt>
      <trkpt lat="50.69723" lon="3.02472">
        <ele>108</ele>
        <time>2018-05-09T14:13:11Z</time>
      </trkpt>
      <trkpt lat="50.6973" lon="3.02445">
        <ele>108.2</ele>
        <time>2018-05-09T14:13:15Z</time>
      </trkpt>
      <trkpt lat="50.69736" lon="3.02418">
        <ele>108.4</ele>
        <time>2018-05-09T14:13:19Z</time>
      </trkpt>
      <trkpt lat="50.69743" lon="3.02391">
        <ele>109.2</ele>
        <time>2018-05-09T14:13:23Z</time>
      </trkpt>
      <trkpt lat="50.6975" lon="3.02365">
        <ele>108.2</ele>
        <time>2018-05-09T14:13:27Z</time>
      </trkpt>
      <trkpt lat="50.69757" lon="3.02338">
        <ele>108.2</ele>
        <time>2018-05-09T14:13:31Z</time>
      </trkpt>
      <trkpt lat="50.69765" lon="3.02313">
        <ele>108.2</ele>
        <time>2018-05-09T14:13:35Z</time>
      </trkpt>
      <trkpt lat="50.69774" lon="3.02288">
        <ele>108.6</ele>
        <time>2018-05-09T14:13:39Z</time>
      </trkpt>
      <trkpt lat="50.69784" lon="3.02263">
        <ele>108.8</ele>
        <time>2018-05-09T14:13:43Z</time>
      </trkpt>
      <trkpt lat="50.69793" lon="3.02238">
        <ele>108.6</ele>
        <time>2018-05-09T14:13:47Z</time>
      </trkpt>
      <trkpt lat="50.69803" lon="3.02216">
        <ele>108.8</ele>
        <time>2018-05-09T14:13:51Z</time>
      </trkpt>
      <trkpt lat="50.69814" lon="3.02193">
        <ele>108.2</ele>
        <time>2018-05-09T14:13:55Z</time>
      </trkpt>
      <trkpt lat="50.69824" lon="3.02172">
        <ele>108.2</ele>
        <time>2018-05-09T14:13:59Z</time>
      </trkpt>
      <trkpt lat="50.69835" lon="3.0215">
        <ele>109</ele>
        <time>2018-05-09T14:14:03Z</time>
      </trkpt>
      <trkpt lat="50.69847" lon="3.02128">
        <ele>108.4</ele>
        <time>2018-05-09T14:14:07Z</time>
      </trkpt>
      <trkpt lat="50.69859" lon="3.02107">
        <ele>109</ele>
        <time>2018-05-09T14:14:11Z</time>
      </trkpt>
      <trkpt lat="50.69871" lon="3.02089">
        <ele>109.2</ele>
        <time>2018-05-09T14:14:15Z</time>
      </trkpt>
      <trkpt lat="50.69886" lon="3.02082">
        <ele>107.2</ele>
        <time>2018-05-09T14:14:19Z</time>
      </trkpt>
      <trkpt lat="50.69902" lon="3.02084">
        <ele>107.8</ele>
        <time>2018-05-09T14:14:23Z</time>
      </trkpt>
      <trkpt lat="50.69918" lon="3.02085">
        <ele>108.2</ele>
        <time>2018-05-09T14:14:27Z</time>
      </trkpt>
      <trkpt lat="50.69934" lon="3.02075">
        <ele>108.2</ele>
        <time>2018-05-09T14:14:31Z</time>
      </trkpt>
      <trkpt lat="50.69948" lon="3.02059">
        <ele>107.8</ele>
        <time>2018-05-09T14:14:35Z</time>
      </trkpt>
      <trkpt lat="50.69957" lon="3.02046">
        <ele>107.6</ele>
        <time>2018-05-09T14:14:39Z</time>
      </trkpt>
      <trkpt lat="50.69959" lon="3.02034">
        <ele>107.8</ele>
        <time>2018-05-09T14:14:43Z</time>
      </trkpt>
      <trkpt lat="50.69963" lon="3.02011">
        <ele>108.2</ele>
        <time>2018-05-09T14:14:47Z</time>
      </trkpt>
      <trkpt lat="50.69972" lon="3.01991">
        <ele>108.2</ele>
        <time>2018-05-09T14:14:51Z</time>
      </trkpt>
      <trkpt lat="50.69984" lon="3.01971">
        <ele>108.8</ele>
        <time>2018-05-09T14:14:55Z</time>
      </trkpt>
      <trkpt lat="50.69994" lon="3.01952">
        <ele>109.2</ele>
        <time>2018-05-09T14:14:59Z</time>
      </trkpt>
      <trkpt lat="50.70006" lon="3.01931">
        <ele>108.8</ele>
        <time>2018-05-09T14:15:03Z</time>
      </trkpt>
      <trkpt lat="50.70019" lon="3.01908">
        <ele>108.6</ele>
        <time>2018-05-09T14:15:07Z</time>
      </trkpt>
      <trkpt lat="50.70032" lon="3.01884">
        <ele>108.2</ele>
        <time>2018-05-09T14:15:11Z</time>
      </trkpt>
      <trkpt lat="50.70046" lon="3.01862">
        <ele>108.2</ele>
        <time>2018-05-09T14:15:15Z</time>
      </trkpt>
      <trkpt lat="50.70061" lon="3.0184">
        <ele>108.6</ele>
        <time>2018-05-09T14:15:19Z</time>
      </trkpt>
      <trkpt lat="50.70077" lon="3.01821">
        <ele>108</ele>
        <time>2018-05-09T14:15:23Z</time>
      </trkpt>
      <trkpt lat="50.70092" lon="3.01803">
        <ele>108</ele>
        <time>2018-05-09T14:15:27Z</time>
      </trkpt>
      <trkpt lat="50.70108" lon="3.01784">
        <ele>108.2</ele>
        <time>2018-05-09T14:15:31Z</time>
      </trkpt>
      <trkpt lat="50.70124" lon="3.01766">
        <ele>108.2</ele>
        <time>2018-05-09T14:15:35Z</time>
      </trkpt>
      <trkpt lat="50.70139" lon="3.01748">
        <ele>108.2</ele>
        <time>2018-05-09T14:15:39Z</time>
      </trkpt>
      <trkpt lat="50.70154" lon="3.0173">
        <ele>108.8</ele>
        <time>2018-05-09T14:15:43Z</time>
      </trkpt>
      <trkpt lat="50.70169" lon="3.01712">
        <ele>109.2</ele>
        <time>2018-05-09T14:15:47Z</time>
      </trkpt>
      <trkpt lat="50.70183" lon="3.01695">
        <ele>108.6</ele>
        <time>2018-05-09T14:15:51Z</time>
      </trkpt>
      <trkpt lat="50.70198" lon="3.01678">
        <ele>108.2</ele>
        <time>2018-05-09T14:15:55Z</time>
      </trkpt>
      <trkpt lat="50.70212" lon="3.0166">
        <ele>108.2</ele>
        <time>2018-05-09T14:15:59Z</time>
      </trkpt>
      <trkpt lat="50.70227" lon="3.01642">
        <ele>108.6</ele>
        <time>2018-05-09T14:16:03Z</time>
      </trkpt>
      <trkpt lat="50.70242" lon="3.01624">
        <ele>108.4</ele>
        <time>2018-05-09T14:16:07Z</time>
      </trkpt>
      <trkpt lat="50.70257" lon="3.01606">
        <ele>109</ele>
        <time>2018-05-09T14:16:11Z</time>
      </trkpt>
      <trkpt lat="50.70271" lon="3.01588">
        <ele>108.2</ele>
        <time>2018-05-09T14:16:15Z</time>
      </trkpt>
      <trkpt lat="50.70286" lon="3.0157">
        <ele>108.6</ele>
        <time>2018-05-09T14:16:19Z</time>
      </trkpt>
      <trkpt lat="50.70301" lon="3.01553">
        <ele>108.8</ele>
        <time>2018-05-09T14:16:23Z</time>
      </trkpt>
      <trkpt lat="50.70316" lon="3.01536">
        <ele>108.8</ele>
        <time>2018-05-09T14:16:27Z</time>
      </trkpt>
      <trkpt lat="50.70331" lon="3.01518">
        <ele>108.2</ele>
        <time>2018-05-09T14:16:31Z</time>
      </trkpt>
      <trkpt lat="50.70345" lon="3.015">
        <ele>108.2</ele>
        <time>2018-05-09T14:16:35Z</time>
      </trkpt>
      <trkpt lat="50.7036" lon="3.01482">
        <ele>108</ele>
        <time>2018-05-09T14:16:39Z</time>
      </trkpt>
      <trkpt lat="50.70375" lon="3.01464">
        <ele>108.2</ele>
        <time>2018-05-09T14:16:43Z</time>
      </trkpt>
      <trkpt lat="50.7039" lon="3.01447">
        <ele>108</ele>
        <time>2018-05-09T14:16:47Z</time>
      </trkpt>
      <trkpt lat="50.70405" lon="3.01429">
        <ele>108</ele>
        <time>2018-05-09T14:16:51Z</time>
      </trkpt>
      <trkpt lat="50.7042" lon="3.01413">
        <ele>108</ele>
        <time>2018-05-09T14:16:55Z</time>
      </trkpt>
      <trkpt lat="50.70436" lon="3.01396">
        <ele>107.6</ele>
        <time>2018-05-09T14:16:59Z</time>
      </trkpt>
      <trkpt lat="50.7045" lon="3.01379">
        <ele>107.6</ele>
        <time>2018-05-09T14:17:03Z</time>
      </trkpt>
      <trkpt lat="50.70464" lon="3.01364">
        <ele>107.6</ele>
        <time>2018-05-09T14:17:07Z</time>
      </trkpt>
      <trkpt lat="50.7048" lon="3.01345">
        <ele>107.4</ele>
        <time>2018-05-09T14:17:11Z</time>
      </trkpt>
      <trkpt lat="50.70495" lon="3.01326">
        <ele>107</ele>
        <time>2018-05-09T14:17:15Z</time>
      </trkpt>
      <trkpt lat="50.70507" lon="3.01302">
        <ele>106.8</ele>
        <time>2018-05-09T14:17:19Z</time>
      </trkpt>
      <trkpt lat="50.70517" lon="3.01273">
        <ele>106.6</ele>
        <time>2018-05-09T14:17:23Z</time>
      </trkpt>
      <trkpt lat="50.70533" lon="3.01258">
        <ele>106.4</ele>
        <time>2018-05-09T14:17:27Z</time>
      </trkpt>
      <trkpt lat="50.70548" lon="3.01239">
        <ele>106.2</ele>
        <time>2018-05-09T14:17:31Z</time>
      </trkpt>
      <trkpt lat="50.70562" lon="3.01222">
        <ele>106.2</ele>
        <time>2018-05-09T14:17:35Z</time>
      </trkpt>
      <trkpt lat="50.70576" lon="3.01208">
        <ele>105.6</ele>
        <time>2018-05-09T14:17:39Z</time>
      </trkpt>
      <trkpt lat="50.70589" lon="3.01193">
        <ele>104.6</ele>
        <time>2018-05-09T14:17:43Z</time>
      </trkpt>
      <trkpt lat="50.70603" lon="3.01181">
        <ele>105.4</ele>
        <time>2018-05-09T14:17:47Z</time>
      </trkpt>
      <trkpt lat="50.70615" lon="3.01174">
        <ele>106.6</ele>
        <time>2018-05-09T14:17:51Z</time>
      </trkpt>
      <trkpt lat="50.70626" lon="3.01161">
        <ele>106.4</ele>
        <time>2018-05-09T14:17:55Z</time>
      </trkpt>
      <trkpt lat="50.70638" lon="3.01147">
        <ele>106.2</ele>
        <time>2018-05-09T14:17:59Z</time>
      </trkpt>
      <trkpt lat="50.70652" lon="3.01132">
        <ele>106</ele>
        <time>2018-05-09T14:18:03Z</time>
      </trkpt>
      <trkpt lat="50.70666" lon="3.01113">
        <ele>105.8</ele>
        <time>2018-05-09T14:18:07Z</time>
      </trkpt>
      <trkpt lat="50.70681" lon="3.01097">
        <ele>106.8</ele>
        <time>2018-05-09T14:18:11Z</time>
      </trkpt>
      <trkpt lat="50.70695" lon="3.01086">
        <ele>106</ele>
        <time>2018-05-09T14:18:15Z</time>
      </trkpt>
      <trkpt lat="50.7071" lon="3.01079">
        <ele>105.8</ele>
        <time>2018-05-09T14:18:19Z</time>
      </trkpt>
      <trkpt lat="50.70718" lon="3.01062">
        <ele>105.8</ele>
        <time>2018-05-09T14:18:23Z</time>
      </trkpt>
      <trkpt lat="50.70732" lon="3.01037">
        <ele>105.4</ele>
        <time>2018-05-09T14:18:27Z</time>
      </trkpt>
      <trkpt lat="50.70745" lon="3.01015">
        <ele>105.6</ele>
        <time>2018-05-09T14:18:31Z</time>
      </trkpt>
      <trkpt lat="50.7076" lon="3.00997">
        <ele>105</ele>
        <time>2018-05-09T14:18:35Z</time>
      </trkpt>
      <trkpt lat="50.70774" lon="3.00981">
        <ele>105.4</ele>
        <time>2018-05-09T14:18:39Z</time>
      </trkpt>
      <trkpt lat="50.70788" lon="3.0097">
        <ele>105.4</ele>
        <time>2018-05-09T14:18:43Z</time>
      </trkpt>
      <trkpt lat="50.70803" lon="3.00961">
        <ele>105.2</ele>
        <time>2018-05-09T14:18:47Z</time>
      </trkpt>
      <trkpt lat="50.70818" lon="3.0095">
        <ele>105.6</ele>
        <time>2018-05-09T14:18:51Z</time>
      </trkpt>
      <trkpt lat="50.70832" lon="3.00935">
        <ele>105.6</ele>
        <time>2018-05-09T14:18:55Z</time>
      </trkpt>
      <trkpt lat="50.70845" lon="3.00918">
        <ele>105.8</ele>
        <time>2018-05-09T14:18:59Z</time>
      </trkpt>
      <trkpt lat="50.70857" lon="3.00897">
        <ele>105.4</ele>
        <time>2018-05-09T14:19:03Z</time>
      </trkpt>
      <trkpt lat="50.70867" lon="3.00881">
        <ele>106.2</ele>
        <time>2018-05-09T14:19:07Z</time>
      </trkpt>
      <trkpt lat="50.70875" lon="3.00864">
        <ele>106.4</ele>
        <time>2018-05-09T14:19:11Z</time>
      </trkpt>
      <trkpt lat="50.70886" lon="3.0084">
        <ele>106.6</ele>
        <time>2018-05-09T14:19:15Z</time>
      </trkpt>
      <trkpt lat="50.70899" lon="3.00811">
        <ele>106.8</ele>
        <time>2018-05-09T14:19:19Z</time>
      </trkpt>
      <trkpt lat="50.70909" lon="3.00788">
        <ele>106</ele>
        <time>2018-05-09T14:19:23Z</time>
      </trkpt>
      <trkpt lat="50.70923" lon="3.00768">
        <ele>106</ele>
        <time>2018-05-09T14:19:27Z</time>
      </trkpt>
      <trkpt lat="50.70938" lon="3.0075">
        <ele>106.4</ele>
        <time>2018-05-09T14:19:31Z</time>
      </trkpt>
      <trkpt lat="50.70949" lon="3.00729">
        <ele>107</ele>
        <time>2018-05-09T14:19:35Z</time>
      </trkpt>
      <trkpt lat="50.70959" lon="3.00708">
        <ele>107.2</ele>
        <time>2018-05-09T14:19:39Z</time>
      </trkpt>
      <trkpt lat="50.70955" lon="3.00684">
        <ele>106.4</ele>
        <time>2018-05-09T14:19:43Z</time>
      </trkpt>
      <trkpt lat="50.70952" lon="3.00666">
        <ele>106.2</ele>
        <time>2018-05-09T14:19:47Z</time>
      </trkpt>
      <trkpt lat="50.70964" lon="3.00667">
        <ele>106.8</ele>
        <time>2018-05-09T14:19:51Z</time>
      </trkpt>
      <trkpt lat="50.70976" lon="3.00663">
        <ele>106.4</ele>
        <time>2018-05-09T14:19:55Z</time>
      </trkpt>
      <trkpt lat="50.70985" lon="3.00641">
        <ele>106.2</ele>
        <time>2018-05-09T14:19:59Z</time>
      </trkpt>
      <trkpt lat="50.70993" lon="3.00617">
        <ele>106.8</ele>
        <time>2018-05-09T14:20:03Z</time>
      </trkpt>
      <trkpt lat="50.71" lon="3.00594">
        <ele>106.4</ele>
        <time>2018-05-09T14:20:07Z</time>
      </trkpt>
      <trkpt lat="50.71007" lon="3.00571">
        <ele>107</ele>
        <time>2018-05-09T14:20:11Z</time>
      </trkpt>
      <trkpt lat="50.71014" lon="3.00548">
        <ele>107.2</ele>
        <time>2018-05-09T14:20:15Z</time>
      </trkpt>
      <trkpt lat="50.71015" lon="3.00523">
        <ele>107</ele>
        <time>2018-05-09T14:20:19Z</time>
      </trkpt>
      <trkpt lat="50.71008" lon="3.00497">
        <ele>106.6</ele>
        <time>2018-05-09T14:20:23Z</time>
      </trkpt>
      <trkpt lat="50.71" lon="3.00471">
        <ele>106.6</ele>
        <time>2018-05-09T14:20:27Z</time>
      </trkpt>
      <trkpt lat="50.71001" lon="3.00448">
        <ele>106.4</ele>
        <time>2018-05-09T14:20:31Z</time>
      </trkpt>
      <trkpt lat="50.71007" lon="3.00424">
        <ele>106.2</ele>
        <time>2018-05-09T14:20:35Z</time>
      </trkpt>
      <trkpt lat="50.71014" lon="3.00398">
        <ele>106.2</ele>
        <time>2018-05-09T14:20:39Z</time>
      </trkpt>
      <trkpt lat="50.71022" lon="3.00373">
        <ele>106.6</ele>
        <time>2018-05-09T14:20:43Z</time>
      </trkpt>
      <trkpt lat="50.71028" lon="3.00349">
        <ele>106.2</ele>
        <time>2018-05-09T14:20:47Z</time>
      </trkpt>
      <trkpt lat="50.71032" lon="3.00325">
        <ele>106.2</ele>
        <time>2018-05-09T14:20:51Z</time>
      </trkpt>
      <trkpt lat="50.71038" lon="3.00309">
        <ele>106</ele>
        <time>2018-05-09T14:20:55Z</time>
      </trkpt>
      <trkpt lat="50.71039" lon="3.00301">
        <ele>105.8</ele>
        <time>2018-05-09T14:20:59Z</time>
      </trkpt>
      <trkpt lat="50.71042" lon="3.00296">
        <ele>105.8</ele>
        <time>2018-05-09T14:21:03Z</time>
      </trkpt>
      <trkpt lat="50.71044" lon="3.0029">
        <ele>105.8</ele>
        <time>2018-05-09T14:21:07Z</time>
      </trkpt>
      <trkpt lat="50.71049" lon="3.0028">
        <ele>105.8</ele>
        <time>2018-05-09T14:21:11Z</time>
      </trkpt>
      <trkpt lat="50.71054" lon="3.00267">
        <ele>105.8</ele>
        <time>2018-05-09T14:21:15Z</time>
      </trkpt>
      <trkpt lat="50.7106" lon="3.00251">
        <ele>106.2</ele>
        <time>2018-05-09T14:21:19Z</time>
      </trkpt>
      <trkpt lat="50.71068" lon="3.00233">
        <ele>105.8</ele>
        <time>2018-05-09T14:21:23Z</time>
      </trkpt>
      <trkpt lat="50.71076" lon="3.00218">
        <ele>105.6</ele>
        <time>2018-05-09T14:21:27Z</time>
      </trkpt>
      <trkpt lat="50.71079" lon="3.002">
        <ele>106.2</ele>
        <time>2018-05-09T14:21:31Z</time>
      </trkpt>
      <trkpt lat="50.71085" lon="3.00183">
        <ele>106.6</ele>
        <time>2018-05-09T14:21:35Z</time>
      </trkpt>
      <trkpt lat="50.71092" lon="3.00169">
        <ele>107.2</ele>
        <time>2018-05-09T14:21:39Z</time>
      </trkpt>
      <trkpt lat="50.71102" lon="3.0016">
        <ele>107.2</ele>
        <time>2018-05-09T14:21:43Z</time>
      </trkpt>
      <trkpt lat="50.71112" lon="3.00153">
        <ele>107.8</ele>
        <time>2018-05-09T14:21:47Z</time>
      </trkpt>
      <trkpt lat="50.71122" lon="3.00149">
        <ele>108.2</ele>
        <time>2018-05-09T14:21:51Z</time>
      </trkpt>
      <trkpt lat="50.71133" lon="3.00148">
        <ele>108.2</ele>
        <time>2018-05-09T14:21:55Z</time>
      </trkpt>
      <trkpt lat="50.71142" lon="3.00149">
        <ele>109.6</ele>
        <time>2018-05-09T14:21:59Z</time>
      </trkpt>
      <trkpt lat="50.71152" lon="3.00152">
        <ele>110.2</ele>
        <time>2018-05-09T14:22:03Z</time>
      </trkpt>
      <trkpt lat="50.71162" lon="3.0015">
        <ele>110.8</ele>
        <time>2018-05-09T14:22:07Z</time>
      </trkpt>
      <trkpt lat="50.71169" lon="3.00136">
        <ele>111.4</ele>
        <time>2018-05-09T14:22:11Z</time>
      </trkpt>
      <trkpt lat="50.71174" lon="3.00119">
        <ele>111.8</ele>
        <time>2018-05-09T14:22:15Z</time>
      </trkpt>
      <trkpt lat="50.71179" lon="3.00107">
        <ele>111.8</ele>
        <time>2018-05-09T14:22:19Z</time>
      </trkpt>
      <trkpt lat="50.71183" lon="3.00094">
        <ele>112</ele>
        <time>2018-05-09T14:22:23Z</time>
      </trkpt>
      <trkpt lat="50.71187" lon="3.00081">
        <ele>112</ele>
        <time>2018-05-09T14:22:27Z</time>
      </trkpt>
      <trkpt lat="50.7119" lon="3.00066">
        <ele>111.8</ele>
        <time>2018-05-09T14:22:31Z</time>
      </trkpt>
      <trkpt lat="50.71192" lon="3.00054">
        <ele>112</ele>
        <time>2018-05-09T14:22:35Z</time>
      </trkpt>
      <trkpt lat="50.71197" lon="3.00041">
        <ele>112.4</ele>
        <time>2018-05-09T14:22:39Z</time>
      </trkpt>
      <trkpt lat="50.7121" lon="3.00026">
        <ele>112.6</ele>
        <time>2018-05-09T14:22:51Z</time>
      </trkpt>
      <trkpt lat="50.71214" lon="3.00031">
        <ele>112.6</ele>
        <time>2018-05-09T14:22:55Z</time>
      </trkpt>
      <trkpt lat="50.71216" lon="3.00035">
        <ele>112.4</ele>
        <time>2018-05-09T14:22:59Z</time>
      </trkpt>
      <trkpt lat="50.71218" lon="3.0004">
        <ele>113.8</ele>
        <time>2018-05-09T14:36:15Z</time>
      </trkpt>
      <trkpt lat="50.71222" lon="3.00042">
        <ele>113.2</ele>
        <time>2018-05-09T14:36:19Z</time>
      </trkpt>
      <trkpt lat="50.71225" lon="3.00046">
        <ele>113.6</ele>
        <time>2018-05-09T14:36:23Z</time>
      </trkpt>
      <trkpt lat="50.71231" lon="3.0005">
        <ele>113.6</ele>
        <time>2018-05-09T14:36:27Z</time>
      </trkpt>
      <trkpt lat="50.71237" lon="3.00059">
        <ele>113</ele>
        <time>2018-05-09T14:36:31Z</time>
      </trkpt>
      <trkpt lat="50.71242" lon="3.00061">
        <ele>113.4</ele>
        <time>2018-05-09T14:36:35Z</time>
      </trkpt>
      <trkpt lat="50.71242" lon="3.0006">
        <ele>113.8</ele>
        <time>2018-05-09T14:37:19Z</time>
      </trkpt>
      <trkpt lat="50.71251" lon="3.00063">
        <ele>113.8</ele>
        <time>2018-05-09T14:37:23Z</time>
      </trkpt>
      <trkpt lat="50.71263" lon="3.00067">
        <ele>113.2</ele>
        <time>2018-05-09T14:37:27Z</time>
      </trkpt>
      <trkpt lat="50.71275" lon="3.00077">
        <ele>113.2</ele>
        <time>2018-05-09T14:37:31Z</time>
      </trkpt>
      <trkpt lat="50.71287" lon="3.00088">
        <ele>113.2</ele>
        <time>2018-05-09T14:37:35Z</time>
      </trkpt>
      <trkpt lat="50.71301" lon="3.001">
        <ele>113.4</ele>
        <time>2018-05-09T14:37:39Z</time>
      </trkpt>
      <trkpt lat="50.71316" lon="3.00113">
        <ele>113.8</ele>
        <time>2018-05-09T14:37:43Z</time>
      </trkpt>
      <trkpt lat="50.71331" lon="3.00126">
        <ele>113.8</ele>
        <time>2018-05-09T14:37:47Z</time>
      </trkpt>
      <trkpt lat="50.71345" lon="3.0014">
        <ele>113.4</ele>
        <time>2018-05-09T14:37:51Z</time>
      </trkpt>
      <trkpt lat="50.71361" lon="3.0015">
        <ele>113.2</ele>
        <time>2018-05-09T14:37:55Z</time>
      </trkpt>
      <trkpt lat="50.71376" lon="3.00161">
        <ele>112.8</ele>
        <time>2018-05-09T14:37:59Z</time>
      </trkpt>
      <trkpt lat="50.71389" lon="3.00161">
        <ele>113.4</ele>
        <time>2018-05-09T14:38:03Z</time>
      </trkpt>
      <trkpt lat="50.71398" lon="3.0014">
        <ele>113.6</ele>
        <time>2018-05-09T14:38:07Z</time>
      </trkpt>
      <trkpt lat="50.71406" lon="3.00117">
        <ele>113.4</ele>
        <time>2018-05-09T14:38:11Z</time>
      </trkpt>
      <trkpt lat="50.71413" lon="3.00096">
        <ele>113</ele>
        <time>2018-05-09T14:38:15Z</time>
      </trkpt>
      <trkpt lat="50.71427" lon="3.0009">
        <ele>113.4</ele>
        <time>2018-05-09T14:38:19Z</time>
      </trkpt>
      <trkpt lat="50.71443" lon="3.00094">
        <ele>113.4</ele>
        <time>2018-05-09T14:38:23Z</time>
      </trkpt>
      <trkpt lat="50.7146" lon="3.00098">
        <ele>114.2</ele>
        <time>2018-05-09T14:38:27Z</time>
      </trkpt>
      <trkpt lat="50.71479" lon="3.00104">
        <ele>114</ele>
        <time>2018-05-09T14:38:31Z</time>
      </trkpt>
      <trkpt lat="50.71499" lon="3.00113">
        <ele>114</ele>
        <time>2018-05-09T14:38:35Z</time>
      </trkpt>
      <trkpt lat="50.71517" lon="3.00123">
        <ele>113.2</ele>
        <time>2018-05-09T14:38:39Z</time>
      </trkpt>
      <trkpt lat="50.71536" lon="3.00133">
        <ele>113</ele>
        <time>2018-05-09T14:38:43Z</time>
      </trkpt>
      <trkpt lat="50.71555" lon="3.0014">
        <ele>113.2</ele>
        <time>2018-05-09T14:38:47Z</time>
      </trkpt>
      <trkpt lat="50.71575" lon="3.00146">
        <ele>113.4</ele>
        <time>2018-05-09T14:38:51Z</time>
      </trkpt>
      <trkpt lat="50.71594" lon="3.00148">
        <ele>113.6</ele>
        <time>2018-05-09T14:38:55Z</time>
      </trkpt>
      <trkpt lat="50.71612" lon="3.00149">
        <ele>113.4</ele>
        <time>2018-05-09T14:38:59Z</time>
      </trkpt>
      <trkpt lat="50.71631" lon="3.00152">
        <ele>114.2</ele>
        <time>2018-05-09T14:39:03Z</time>
      </trkpt>
      <trkpt lat="50.7165" lon="3.00157">
        <ele>113.4</ele>
        <time>2018-05-09T14:39:07Z</time>
      </trkpt>
      <trkpt lat="50.71668" lon="3.00163">
        <ele>113.2</ele>
        <time>2018-05-09T14:39:11Z</time>
      </trkpt>
      <trkpt lat="50.71687" lon="3.00172">
        <ele>113.2</ele>
        <time>2018-05-09T14:39:15Z</time>
      </trkpt>
      <trkpt lat="50.71706" lon="3.00181">
        <ele>113.8</ele>
        <time>2018-05-09T14:39:19Z</time>
      </trkpt>
      <trkpt lat="50.71725" lon="3.00189">
        <ele>113.8</ele>
        <time>2018-05-09T14:39:23Z</time>
      </trkpt>
      <trkpt lat="50.71742" lon="3.002">
        <ele>113.2</ele>
        <time>2018-05-09T14:39:27Z</time>
      </trkpt>
      <trkpt lat="50.7176" lon="3.00213">
        <ele>113</ele>
        <time>2018-05-09T14:39:31Z</time>
      </trkpt>
      <trkpt lat="50.71777" lon="3.00226">
        <ele>113.4</ele>
        <time>2018-05-09T14:39:35Z</time>
      </trkpt>
      <trkpt lat="50.71793" lon="3.0024">
        <ele>113.4</ele>
        <time>2018-05-09T14:39:39Z</time>
      </trkpt>
      <trkpt lat="50.71809" lon="3.00253">
        <ele>113.4</ele>
        <time>2018-05-09T14:39:43Z</time>
      </trkpt>
      <trkpt lat="50.71825" lon="3.00267">
        <ele>112.8</ele>
        <time>2018-05-09T14:39:47Z</time>
      </trkpt>
      <trkpt lat="50.71842" lon="3.00281">
        <ele>112.8</ele>
        <time>2018-05-09T14:39:51Z</time>
      </trkpt>
      <trkpt lat="50.7186" lon="3.00295">
        <ele>113.2</ele>
        <time>2018-05-09T14:39:55Z</time>
      </trkpt>
      <trkpt lat="50.71877" lon="3.0031">
        <ele>112.8</ele>
        <time>2018-05-09T14:39:59Z</time>
      </trkpt>
      <trkpt lat="50.71895" lon="3.00325">
        <ele>112.8</ele>
        <time>2018-05-09T14:40:03Z</time>
      </trkpt>
      <trkpt lat="50.71913" lon="3.0034">
        <ele>113.2</ele>
        <time>2018-05-09T14:40:07Z</time>
      </trkpt>
      <trkpt lat="50.71931" lon="3.00352">
        <ele>113</ele>
        <time>2018-05-09T14:40:11Z</time>
      </trkpt>
      <trkpt lat="50.71942" lon="3.00374">
        <ele>113.2</ele>
        <time>2018-05-09T14:40:15Z</time>
      </trkpt>
      <trkpt lat="50.71954" lon="3.00394">
        <ele>113.4</ele>
        <time>2018-05-09T14:40:19Z</time>
      </trkpt>
      <trkpt lat="50.71973" lon="3.00389">
        <ele>113.4</ele>
        <time>2018-05-09T14:40:23Z</time>
      </trkpt>
      <trkpt lat="50.71991" lon="3.004">
        <ele>113.4</ele>
        <time>2018-05-09T14:40:27Z</time>
      </trkpt>
      <trkpt lat="50.72007" lon="3.00412">
        <ele>113</ele>
        <time>2018-05-09T14:40:31Z</time>
      </trkpt>
      <trkpt lat="50.72023" lon="3.00424">
        <ele>113.2</ele>
        <time>2018-05-09T14:40:35Z</time>
      </trkpt>
      <trkpt lat="50.72039" lon="3.00436">
        <ele>113.2</ele>
        <time>2018-05-09T14:40:39Z</time>
      </trkpt>
      <trkpt lat="50.72056" lon="3.00448">
        <ele>113.2</ele>
        <time>2018-05-09T14:40:43Z</time>
      </trkpt>
      <trkpt lat="50.72072" lon="3.00459">
        <ele>113.2</ele>
        <time>2018-05-09T14:40:47Z</time>
      </trkpt>
      <trkpt lat="50.72088" lon="3.0047">
        <ele>113</ele>
        <time>2018-05-09T14:40:51Z</time>
      </trkpt>
      <trkpt lat="50.72105" lon="3.00481">
        <ele>113.6</ele>
        <time>2018-05-09T14:40:55Z</time>
      </trkpt>
      <trkpt lat="50.72121" lon="3.00493">
        <ele>113.8</ele>
        <time>2018-05-09T14:40:59Z</time>
      </trkpt>
      <trkpt lat="50.72137" lon="3.00507">
        <ele>113.8</ele>
        <time>2018-05-09T14:41:03Z</time>
      </trkpt>
      <trkpt lat="50.72152" lon="3.00523">
        <ele>114</ele>
        <time>2018-05-09T14:41:07Z</time>
      </trkpt>
      <trkpt lat="50.72166" lon="3.00541">
        <ele>114</ele>
        <time>2018-05-09T14:41:11Z</time>
      </trkpt>
      <trkpt lat="50.72181" lon="3.00559">
        <ele>113.8</ele>
        <time>2018-05-09T14:41:15Z</time>
      </trkpt>
      <trkpt lat="50.72196" lon="3.00577">
        <ele>113.6</ele>
        <time>2018-05-09T14:41:19Z</time>
      </trkpt>
      <trkpt lat="50.72213" lon="3.00593">
        <ele>113.8</ele>
        <time>2018-05-09T14:41:23Z</time>
      </trkpt>
      <trkpt lat="50.7223" lon="3.00608">
        <ele>113.6</ele>
        <time>2018-05-09T14:41:27Z</time>
      </trkpt>
      <trkpt lat="50.72247" lon="3.00625">
        <ele>114</ele>
        <time>2018-05-09T14:41:31Z</time>
      </trkpt>
      <trkpt lat="50.72265" lon="3.00641">
        <ele>114</ele>
        <time>2018-05-09T14:41:35Z</time>
      </trkpt>
      <trkpt lat="50.72281" lon="3.00658">
        <ele>113.2</ele>
        <time>2018-05-09T14:41:39Z</time>
      </trkpt>
      <trkpt lat="50.72297" lon="3.00674">
        <ele>113.2</ele>
        <time>2018-05-09T14:41:43Z</time>
      </trkpt>
      <trkpt lat="50.72314" lon="3.00691">
        <ele>113.8</ele>
        <time>2018-05-09T14:41:47Z</time>
      </trkpt>
      <trkpt lat="50.72331" lon="3.00708">
        <ele>113.8</ele>
        <time>2018-05-09T14:41:51Z</time>
      </trkpt>
      <trkpt lat="50.72348" lon="3.00725">
        <ele>113.8</ele>
        <time>2018-05-09T14:41:55Z</time>
      </trkpt>
      <trkpt lat="50.72364" lon="3.00742">
        <ele>113.6</ele>
        <time>2018-05-09T14:41:59Z</time>
      </trkpt>
      <trkpt lat="50.7238" lon="3.00759">
        <ele>113.8</ele>
        <time>2018-05-09T14:42:03Z</time>
      </trkpt>
      <trkpt lat="50.72396" lon="3.00777">
        <ele>113.6</ele>
        <time>2018-05-09T14:42:07Z</time>
      </trkpt>
      <trkpt lat="50.72411" lon="3.00795">
        <ele>113.8</ele>
        <time>2018-05-09T14:42:11Z</time>
      </trkpt>
      <trkpt lat="50.72426" lon="3.00814">
        <ele>113.2</ele>
        <time>2018-05-09T14:42:15Z</time>
      </trkpt>
      <trkpt lat="50.72441" lon="3.00833">
        <ele>113.6</ele>
        <time>2018-05-09T14:42:19Z</time>
      </trkpt>
      <trkpt lat="50.72456" lon="3.00852">
        <ele>113.4</ele>
        <time>2018-05-09T14:42:23Z</time>
      </trkpt>
      <trkpt lat="50.72472" lon="3.00871">
        <ele>112.8</ele>
        <time>2018-05-09T14:42:27Z</time>
      </trkpt>
      <trkpt lat="50.72487" lon="3.00889">
        <ele>113.8</ele>
        <time>2018-05-09T14:42:31Z</time>
      </trkpt>
      <trkpt lat="50.72504" lon="3.00904">
        <ele>113.2</ele>
        <time>2018-05-09T14:42:35Z</time>
      </trkpt>
      <trkpt lat="50.72519" lon="3.00918">
        <ele>112.8</ele>
        <time>2018-05-09T14:42:39Z</time>
      </trkpt>
      <trkpt lat="50.72534" lon="3.00935">
        <ele>113.4</ele>
        <time>2018-05-09T14:42:43Z</time>
      </trkpt>
      <trkpt lat="50.7255" lon="3.00954">
        <ele>113.2</ele>
        <time>2018-05-09T14:42:47Z</time>
      </trkpt>
      <trkpt lat="50.72565" lon="3.00973">
        <ele>113.8</ele>
        <time>2018-05-09T14:42:51Z</time>
      </trkpt>
      <trkpt lat="50.7258" lon="3.00993">
        <ele>113.4</ele>
        <time>2018-05-09T14:42:55Z</time>
      </trkpt>
      <trkpt lat="50.72595" lon="3.01014">
        <ele>113</ele>
        <time>2018-05-09T14:42:59Z</time>
      </trkpt>
      <trkpt lat="50.7261" lon="3.01034">
        <ele>113.8</ele>
        <time>2018-05-09T14:43:03Z</time>
      </trkpt>
      <trkpt lat="50.72625" lon="3.01054">
        <ele>113.6</ele>
        <time>2018-05-09T14:43:07Z</time>
      </trkpt>
      <trkpt lat="50.7264" lon="3.01076">
        <ele>113.4</ele>
        <time>2018-05-09T14:43:11Z</time>
      </trkpt>
      <trkpt lat="50.72655" lon="3.01098">
        <ele>113.6</ele>
        <time>2018-05-09T14:43:15Z</time>
      </trkpt>
      <trkpt lat="50.72668" lon="3.01121">
        <ele>113.4</ele>
        <time>2018-05-09T14:43:19Z</time>
      </trkpt>
      <trkpt lat="50.72682" lon="3.01144">
        <ele>113.6</ele>
        <time>2018-05-09T14:43:23Z</time>
      </trkpt>
      <trkpt lat="50.72695" lon="3.01166">
        <ele>113.8</ele>
        <time>2018-05-09T14:43:27Z</time>
      </trkpt>
      <trkpt lat="50.72708" lon="3.01188">
        <ele>113.4</ele>
        <time>2018-05-09T14:43:31Z</time>
      </trkpt>
      <trkpt lat="50.72721" lon="3.0121">
        <ele>114</ele>
        <time>2018-05-09T14:43:35Z</time>
      </trkpt>
      <trkpt lat="50.72734" lon="3.01231">
        <ele>113.6</ele>
        <time>2018-05-09T14:43:39Z</time>
      </trkpt>
      <trkpt lat="50.72747" lon="3.01252">
        <ele>113.6</ele>
        <time>2018-05-09T14:43:43Z</time>
      </trkpt>
      <trkpt lat="50.7276" lon="3.01273">
        <ele>113.2</ele>
        <time>2018-05-09T14:43:47Z</time>
      </trkpt>
      <trkpt lat="50.72774" lon="3.01296">
        <ele>113.2</ele>
        <time>2018-05-09T14:43:51Z</time>
      </trkpt>
      <trkpt lat="50.72787" lon="3.01317">
        <ele>112.8</ele>
        <time>2018-05-09T14:43:55Z</time>
      </trkpt>
      <trkpt lat="50.72802" lon="3.01339">
        <ele>113</ele>
        <time>2018-05-09T14:43:59Z</time>
      </trkpt>
      <trkpt lat="50.72815" lon="3.01362">
        <ele>112.8</ele>
        <time>2018-05-09T14:44:03Z</time>
      </trkpt>
      <trkpt lat="50.72829" lon="3.01384">
        <ele>113.2</ele>
        <time>2018-05-09T14:44:07Z</time>
      </trkpt>
      <trkpt lat="50.72843" lon="3.01406">
        <ele>113.2</ele>
        <time>2018-05-09T14:44:11Z</time>
      </trkpt>
      <trkpt lat="50.72856" lon="3.01428">
        <ele>113.2</ele>
        <time>2018-05-09T14:44:15Z</time>
      </trkpt>
      <trkpt lat="50.72869" lon="3.0145">
        <ele>113.4</ele>
        <time>2018-05-09T14:44:19Z</time>
      </trkpt>
      <trkpt lat="50.72883" lon="3.01472">
        <ele>113.4</ele>
        <time>2018-05-09T14:44:23Z</time>
      </trkpt>
      <trkpt lat="50.72896" lon="3.01495">
        <ele>113.2</ele>
        <time>2018-05-09T14:44:27Z</time>
      </trkpt>
      <trkpt lat="50.72908" lon="3.01519">
        <ele>113.6</ele>
        <time>2018-05-09T14:44:31Z</time>
      </trkpt>
      <trkpt lat="50.72919" lon="3.01544">
        <ele>113.4</ele>
        <time>2018-05-09T14:44:35Z</time>
      </trkpt>
      <trkpt lat="50.72929" lon="3.01571">
        <ele>113.8</ele>
        <time>2018-05-09T14:44:39Z</time>
      </trkpt>
      <trkpt lat="50.72938" lon="3.01599">
        <ele>113.6</ele>
        <time>2018-05-09T14:44:43Z</time>
      </trkpt>
      <trkpt lat="50.72946" lon="3.01627">
        <ele>113.8</ele>
        <time>2018-05-09T14:44:47Z</time>
      </trkpt>
      <trkpt lat="50.72957" lon="3.01654">
        <ele>113.4</ele>
        <time>2018-05-09T14:44:51Z</time>
      </trkpt>
      <trkpt lat="50.72968" lon="3.01682">
        <ele>113.4</ele>
        <time>2018-05-09T14:44:55Z</time>
      </trkpt>
      <trkpt lat="50.72978" lon="3.0171">
        <ele>113.8</ele>
        <time>2018-05-09T14:44:59Z</time>
      </trkpt>
      <trkpt lat="50.72989" lon="3.01737">
        <ele>114.2</ele>
        <time>2018-05-09T14:45:03Z</time>
      </trkpt>
      <trkpt lat="50.73" lon="3.01764">
        <ele>113.8</ele>
        <time>2018-05-09T14:45:07Z</time>
      </trkpt>
      <trkpt lat="50.7301" lon="3.01791">
        <ele>113.6</ele>
        <time>2018-05-09T14:45:11Z</time>
      </trkpt>
      <trkpt lat="50.73021" lon="3.01817">
        <ele>113.2</ele>
        <time>2018-05-09T14:45:15Z</time>
      </trkpt>
      <trkpt lat="50.7303" lon="3.01845">
        <ele>113.2</ele>
        <time>2018-05-09T14:45:19Z</time>
      </trkpt>
      <trkpt lat="50.73036" lon="3.01876">
        <ele>113.8</ele>
        <time>2018-05-09T14:45:23Z</time>
      </trkpt>
      <trkpt lat="50.73041" lon="3.01906">
        <ele>113.2</ele>
        <time>2018-05-09T14:45:27Z</time>
      </trkpt>
      <trkpt lat="50.73045" lon="3.01936">
        <ele>113.4</ele>
        <time>2018-05-09T14:45:31Z</time>
      </trkpt>
      <trkpt lat="50.73048" lon="3.01965">
        <ele>113.8</ele>
        <time>2018-05-09T14:45:35Z</time>
      </trkpt>
      <trkpt lat="50.73048" lon="3.01994">
        <ele>113.6</ele>
        <time>2018-05-09T14:45:39Z</time>
      </trkpt>
      <trkpt lat="50.73052" lon="3.02021">
        <ele>113.6</ele>
        <time>2018-05-09T14:45:43Z</time>
      </trkpt>
      <trkpt lat="50.73062" lon="3.02045">
        <ele>113.4</ele>
        <time>2018-05-09T14:45:47Z</time>
      </trkpt>
      <trkpt lat="50.73071" lon="3.02071">
        <ele>113.4</ele>
        <time>2018-05-09T14:45:51Z</time>
      </trkpt>
      <trkpt lat="50.73088" lon="3.02088">
        <ele>113.2</ele>
        <time>2018-05-09T14:45:55Z</time>
      </trkpt>
      <trkpt lat="50.73107" lon="3.02092">
        <ele>113.6</ele>
        <time>2018-05-09T14:45:59Z</time>
      </trkpt>
      <trkpt lat="50.73126" lon="3.02096">
        <ele>113.2</ele>
        <time>2018-05-09T14:46:03Z</time>
      </trkpt>
      <trkpt lat="50.73146" lon="3.02098">
        <ele>113.2</ele>
        <time>2018-05-09T14:46:07Z</time>
      </trkpt>
      <trkpt lat="50.73165" lon="3.02106">
        <ele>112.8</ele>
        <time>2018-05-09T14:46:11Z</time>
      </trkpt>
      <trkpt lat="50.73183" lon="3.0212">
        <ele>112.8</ele>
        <time>2018-05-09T14:46:15Z</time>
      </trkpt>
      <trkpt lat="50.732" lon="3.02137">
        <ele>113</ele>
        <time>2018-05-09T14:46:19Z</time>
      </trkpt>
      <trkpt lat="50.73217" lon="3.02154">
        <ele>112.4</ele>
        <time>2018-05-09T14:46:23Z</time>
      </trkpt>
      <trkpt lat="50.73234" lon="3.02171">
        <ele>113</ele>
        <time>2018-05-09T14:46:27Z</time>
      </trkpt>
      <trkpt lat="50.73252" lon="3.02186">
        <ele>113.2</ele>
        <time>2018-05-09T14:46:31Z</time>
      </trkpt>
      <trkpt lat="50.73269" lon="3.02201">
        <ele>112.6</ele>
        <time>2018-05-09T14:46:35Z</time>
      </trkpt>
      <trkpt lat="50.73285" lon="3.02217">
        <ele>112.8</ele>
        <time>2018-05-09T14:46:39Z</time>
      </trkpt>
      <trkpt lat="50.733" lon="3.02238">
        <ele>112.8</ele>
        <time>2018-05-09T14:46:43Z</time>
      </trkpt>
      <trkpt lat="50.73312" lon="3.02265">
        <ele>113</ele>
        <time>2018-05-09T14:46:47Z</time>
      </trkpt>
      <trkpt lat="50.73322" lon="3.02292">
        <ele>112.8</ele>
        <time>2018-05-09T14:46:51Z</time>
      </trkpt>
      <trkpt lat="50.73329" lon="3.02321">
        <ele>112.6</ele>
        <time>2018-05-09T14:46:55Z</time>
      </trkpt>
      <trkpt lat="50.73331" lon="3.02349">
        <ele>112.2</ele>
        <time>2018-05-09T14:46:59Z</time>
      </trkpt>
      <trkpt lat="50.73322" lon="3.02375">
        <ele>112.2</ele>
        <time>2018-05-09T14:47:03Z</time>
      </trkpt>
      <trkpt lat="50.73312" lon="3.02402">
        <ele>112.2</ele>
        <time>2018-05-09T14:47:07Z</time>
      </trkpt>
      <trkpt lat="50.73301" lon="3.02429">
        <ele>112.2</ele>
        <time>2018-05-09T14:47:11Z</time>
      </trkpt>
      <trkpt lat="50.73285" lon="3.02452">
        <ele>112.4</ele>
        <time>2018-05-09T14:47:15Z</time>
      </trkpt>
      <trkpt lat="50.73266" lon="3.02468">
        <ele>112.6</ele>
        <time>2018-05-09T14:47:19Z</time>
      </trkpt>
      <trkpt lat="50.7325" lon="3.02491">
        <ele>112.6</ele>
        <time>2018-05-09T14:47:23Z</time>
      </trkpt>
      <trkpt lat="50.73238" lon="3.02518">
        <ele>112.4</ele>
        <time>2018-05-09T14:47:27Z</time>
      </trkpt>
      <trkpt lat="50.73227" lon="3.02544">
        <ele>112</ele>
        <time>2018-05-09T14:47:31Z</time>
      </trkpt>
      <trkpt lat="50.73217" lon="3.0257">
        <ele>112</ele>
        <time>2018-05-09T14:47:35Z</time>
      </trkpt>
      <trkpt lat="50.73206" lon="3.02596">
        <ele>112</ele>
        <time>2018-05-09T14:47:39Z</time>
      </trkpt>
      <trkpt lat="50.73195" lon="3.02624">
        <ele>112</ele>
        <time>2018-05-09T14:47:43Z</time>
      </trkpt>
      <trkpt lat="50.73184" lon="3.02651">
        <ele>112.2</ele>
        <time>2018-05-09T14:47:47Z</time>
      </trkpt>
      <trkpt lat="50.73173" lon="3.02679">
        <ele>112</ele>
        <time>2018-05-09T14:47:51Z</time>
      </trkpt>
      <trkpt lat="50.73161" lon="3.02708">
        <ele>111.2</ele>
        <time>2018-05-09T14:47:55Z</time>
      </trkpt>
      <trkpt lat="50.73149" lon="3.02737">
        <ele>111.6</ele>
        <time>2018-05-09T14:47:59Z</time>
      </trkpt>
      <trkpt lat="50.73138" lon="3.02766">
        <ele>111.4</ele>
        <time>2018-05-09T14:48:03Z</time>
      </trkpt>
      <trkpt lat="50.73127" lon="3.02795">
        <ele>111.2</ele>
        <time>2018-05-09T14:48:07Z</time>
      </trkpt>
      <trkpt lat="50.73117" lon="3.02824">
        <ele>111.2</ele>
        <time>2018-05-09T14:48:11Z</time>
      </trkpt>
      <trkpt lat="50.73107" lon="3.02852">
        <ele>111.2</ele>
        <time>2018-05-09T14:48:15Z</time>
      </trkpt>
      <trkpt lat="50.73096" lon="3.0288">
        <ele>111</ele>
        <time>2018-05-09T14:48:19Z</time>
      </trkpt>
      <trkpt lat="50.73081" lon="3.02903">
        <ele>111.2</ele>
        <time>2018-05-09T14:48:23Z</time>
      </trkpt>
      <trkpt lat="50.73065" lon="3.02924">
        <ele>111</ele>
        <time>2018-05-09T14:48:27Z</time>
      </trkpt>
      <trkpt lat="50.7305" lon="3.02943">
        <ele>111.2</ele>
        <time>2018-05-09T14:48:31Z</time>
      </trkpt>
      <trkpt lat="50.73034" lon="3.02965">
        <ele>111</ele>
        <time>2018-05-09T14:48:35Z</time>
      </trkpt>
      <trkpt lat="50.73018" lon="3.02987">
        <ele>111.2</ele>
        <time>2018-05-09T14:48:39Z</time>
      </trkpt>
      <trkpt lat="50.73002" lon="3.03008">
        <ele>111.4</ele>
        <time>2018-05-09T14:48:43Z</time>
      </trkpt>
      <trkpt lat="50.72987" lon="3.0303">
        <ele>111.2</ele>
        <time>2018-05-09T14:48:47Z</time>
      </trkpt>
      <trkpt lat="50.72971" lon="3.03051">
        <ele>111.4</ele>
        <time>2018-05-09T14:48:51Z</time>
      </trkpt>
      <trkpt lat="50.72957" lon="3.03072">
        <ele>111.8</ele>
        <time>2018-05-09T14:48:55Z</time>
      </trkpt>
      <trkpt lat="50.72943" lon="3.03091">
        <ele>111.4</ele>
        <time>2018-05-09T14:48:59Z</time>
      </trkpt>
      <trkpt lat="50.72927" lon="3.03103">
        <ele>111.6</ele>
        <time>2018-05-09T14:49:03Z</time>
      </trkpt>
      <trkpt lat="50.7291" lon="3.03097">
        <ele>111.8</ele>
        <time>2018-05-09T14:49:07Z</time>
      </trkpt>
      <trkpt lat="50.72894" lon="3.03104">
        <ele>111.2</ele>
        <time>2018-05-09T14:49:11Z</time>
      </trkpt>
      <trkpt lat="50.72881" lon="3.03129">
        <ele>111.8</ele>
        <time>2018-05-09T14:49:15Z</time>
      </trkpt>
      <trkpt lat="50.72871" lon="3.03156">
        <ele>111.2</ele>
        <time>2018-05-09T14:49:19Z</time>
      </trkpt>
      <trkpt lat="50.7286" lon="3.03182">
        <ele>111.4</ele>
        <time>2018-05-09T14:49:23Z</time>
      </trkpt>
      <trkpt lat="50.7285" lon="3.03209">
        <ele>111.8</ele>
        <time>2018-05-09T14:49:27Z</time>
      </trkpt>
      <trkpt lat="50.72839" lon="3.03236">
        <ele>111.2</ele>
        <time>2018-05-09T14:49:31Z</time>
      </trkpt>
      <trkpt lat="50.72828" lon="3.03262">
        <ele>111.4</ele>
        <time>2018-05-09T14:49:35Z</time>
      </trkpt>
      <trkpt lat="50.7282" lon="3.03285">
        <ele>111.6</ele>
        <time>2018-05-09T14:49:39Z</time>
      </trkpt>
      <trkpt lat="50.7281" lon="3.03311">
        <ele>112.4</ele>
        <time>2018-05-09T14:49:43Z</time>
      </trkpt>
      <trkpt lat="50.728" lon="3.03337">
        <ele>112</ele>
        <time>2018-05-09T14:49:47Z</time>
      </trkpt>
      <trkpt lat="50.72788" lon="3.03363">
        <ele>111.6</ele>
        <time>2018-05-09T14:49:51Z</time>
      </trkpt>
      <trkpt lat="50.72775" lon="3.03387">
        <ele>112</ele>
        <time>2018-05-09T14:49:55Z</time>
      </trkpt>
      <trkpt lat="50.72762" lon="3.03411">
        <ele>112.2</ele>
        <time>2018-05-09T14:49:59Z</time>
      </trkpt>
      <trkpt lat="50.72748" lon="3.03435">
        <ele>112.8</ele>
        <time>2018-05-09T14:50:03Z</time>
      </trkpt>
      <trkpt lat="50.72734" lon="3.03458">
        <ele>112.6</ele>
        <time>2018-05-09T14:50:07Z</time>
      </trkpt>
      <trkpt lat="50.7272" lon="3.03481">
        <ele>112.4</ele>
        <time>2018-05-09T14:50:11Z</time>
      </trkpt>
      <trkpt lat="50.72707" lon="3.03504">
        <ele>112.8</ele>
        <time>2018-05-09T14:50:15Z</time>
      </trkpt>
      <trkpt lat="50.72694" lon="3.03529">
        <ele>112.8</ele>
        <time>2018-05-09T14:50:19Z</time>
      </trkpt>
      <trkpt lat="50.72682" lon="3.03554">
        <ele>112.8</ele>
        <time>2018-05-09T14:50:23Z</time>
      </trkpt>
      <trkpt lat="50.7267" lon="3.0358">
        <ele>112.4</ele>
        <time>2018-05-09T14:50:27Z</time>
      </trkpt>
      <trkpt lat="50.72657" lon="3.03605">
        <ele>112.6</ele>
        <time>2018-05-09T14:50:31Z</time>
      </trkpt>
      <trkpt lat="50.72643" lon="3.03628">
        <ele>112.4</ele>
        <time>2018-05-09T14:50:35Z</time>
      </trkpt>
      <trkpt lat="50.72628" lon="3.03649">
        <ele>112.4</ele>
        <time>2018-05-09T14:50:39Z</time>
      </trkpt>
      <trkpt lat="50.72612" lon="3.03668">
        <ele>112.8</ele>
        <time>2018-05-09T14:50:43Z</time>
      </trkpt>
      <trkpt lat="50.72594" lon="3.03681">
        <ele>112</ele>
        <time>2018-05-09T14:50:47Z</time>
      </trkpt>
      <trkpt lat="50.72577" lon="3.03691">
        <ele>112</ele>
        <time>2018-05-09T14:50:51Z</time>
      </trkpt>
      <trkpt lat="50.7256" lon="3.03701">
        <ele>112</ele>
        <time>2018-05-09T14:50:55Z</time>
      </trkpt>
      <trkpt lat="50.72542" lon="3.0371">
        <ele>112.6</ele>
        <time>2018-05-09T14:50:59Z</time>
      </trkpt>
      <trkpt lat="50.72525" lon="3.03719">
        <ele>112.2</ele>
        <time>2018-05-09T14:51:03Z</time>
      </trkpt>
      <trkpt lat="50.72508" lon="3.03728">
        <ele>112</ele>
        <time>2018-05-09T14:51:07Z</time>
      </trkpt>
      <trkpt lat="50.72492" lon="3.03737">
        <ele>112.8</ele>
        <time>2018-05-09T14:51:11Z</time>
      </trkpt>
      <trkpt lat="50.72477" lon="3.03743">
        <ele>112.8</ele>
        <time>2018-05-09T14:51:15Z</time>
      </trkpt>
      <trkpt lat="50.72466" lon="3.03752">
        <ele>113.2</ele>
        <time>2018-05-09T14:51:19Z</time>
      </trkpt>
      <trkpt lat="50.72462" lon="3.03776">
        <ele>112.8</ele>
        <time>2018-05-09T14:51:23Z</time>
      </trkpt>
      <trkpt lat="50.7246" lon="3.03803">
        <ele>112.6</ele>
        <time>2018-05-09T14:51:27Z</time>
      </trkpt>
      <trkpt lat="50.72456" lon="3.0383">
        <ele>112.6</ele>
        <time>2018-05-09T14:51:31Z</time>
      </trkpt>
      <trkpt lat="50.72452" lon="3.03859">
        <ele>112.6</ele>
        <time>2018-05-09T14:51:35Z</time>
      </trkpt>
      <trkpt lat="50.72448" lon="3.03889">
        <ele>112.6</ele>
        <time>2018-05-09T14:51:39Z</time>
      </trkpt>
      <trkpt lat="50.72444" lon="3.0392">
        <ele>113</ele>
        <time>2018-05-09T14:51:43Z</time>
      </trkpt>
      <trkpt lat="50.72438" lon="3.0395">
        <ele>113.2</ele>
        <time>2018-05-09T14:51:47Z</time>
      </trkpt>
      <trkpt lat="50.72432" lon="3.03979">
        <ele>113.2</ele>
        <time>2018-05-09T14:51:51Z</time>
      </trkpt>
      <trkpt lat="50.72426" lon="3.04007">
        <ele>113.4</ele>
        <time>2018-05-09T14:51:55Z</time>
      </trkpt>
      <trkpt lat="50.72419" lon="3.04035">
        <ele>113</ele>
        <time>2018-05-09T14:51:59Z</time>
      </trkpt>
      <trkpt lat="50.72414" lon="3.04059">
        <ele>112.8</ele>
        <time>2018-05-09T14:52:03Z</time>
      </trkpt>
      <trkpt lat="50.724" lon="3.0407">
        <ele>113.2</ele>
        <time>2018-05-09T14:52:07Z</time>
      </trkpt>
      <trkpt lat="50.72383" lon="3.0407">
        <ele>113.6</ele>
        <time>2018-05-09T14:52:11Z</time>
      </trkpt>
      <trkpt lat="50.72365" lon="3.04069">
        <ele>113.2</ele>
        <time>2018-05-09T14:52:15Z</time>
      </trkpt>
      <trkpt lat="50.72347" lon="3.04068">
        <ele>113.2</ele>
        <time>2018-05-09T14:52:19Z</time>
      </trkpt>
      <trkpt lat="50.72328" lon="3.04067">
        <ele>113</ele>
        <time>2018-05-09T14:52:23Z</time>
      </trkpt>
      <trkpt lat="50.72309" lon="3.04067">
        <ele>113.2</ele>
        <time>2018-05-09T14:52:27Z</time>
      </trkpt>
      <trkpt lat="50.72291" lon="3.04066">
        <ele>113.4</ele>
        <time>2018-05-09T14:52:31Z</time>
      </trkpt>
      <trkpt lat="50.72272" lon="3.04058">
        <ele>113.2</ele>
        <time>2018-05-09T14:52:35Z</time>
      </trkpt>
      <trkpt lat="50.72254" lon="3.04046">
        <ele>113.6</ele>
        <time>2018-05-09T14:52:39Z</time>
      </trkpt>
      <trkpt lat="50.72236" lon="3.04032">
        <ele>113.8</ele>
        <time>2018-05-09T14:52:43Z</time>
      </trkpt>
      <trkpt lat="50.7222" lon="3.04016">
        <ele>113.2</ele>
        <time>2018-05-09T14:52:47Z</time>
      </trkpt>
      <trkpt lat="50.72205" lon="3.03997">
        <ele>113.4</ele>
        <time>2018-05-09T14:52:51Z</time>
      </trkpt>
      <trkpt lat="50.72192" lon="3.03975">
        <ele>113.8</ele>
        <time>2018-05-09T14:52:55Z</time>
      </trkpt>
      <trkpt lat="50.72179" lon="3.03953">
        <ele>113.8</ele>
        <time>2018-05-09T14:52:59Z</time>
      </trkpt>
      <trkpt lat="50.72166" lon="3.03932">
        <ele>113</ele>
        <time>2018-05-09T14:53:03Z</time>
      </trkpt>
      <trkpt lat="50.72147" lon="3.03934">
        <ele>112.8</ele>
        <time>2018-05-09T14:53:07Z</time>
      </trkpt>
      <trkpt lat="50.72131" lon="3.03955">
        <ele>113</ele>
        <time>2018-05-09T14:53:11Z</time>
      </trkpt>
      <trkpt lat="50.72115" lon="3.03978">
        <ele>113</ele>
        <time>2018-05-09T14:53:15Z</time>
      </trkpt>
      <trkpt lat="50.72102" lon="3.04003">
        <ele>113.4</ele>
        <time>2018-05-09T14:53:19Z</time>
      </trkpt>
      <trkpt lat="50.72086" lon="3.04025">
        <ele>112.8</ele>
        <time>2018-05-09T14:53:23Z</time>
      </trkpt>
      <trkpt lat="50.72066" lon="3.04038">
        <ele>112.8</ele>
        <time>2018-05-09T14:53:27Z</time>
      </trkpt>
      <trkpt lat="50.72045" lon="3.0405">
        <ele>113.2</ele>
        <time>2018-05-09T14:53:31Z</time>
      </trkpt>
      <trkpt lat="50.72025" lon="3.04061">
        <ele>113.2</ele>
        <time>2018-05-09T14:53:35Z</time>
      </trkpt>
      <trkpt lat="50.72005" lon="3.04071">
        <ele>113.8</ele>
        <time>2018-05-09T14:53:39Z</time>
      </trkpt>
      <trkpt lat="50.71984" lon="3.0408">
        <ele>113.4</ele>
        <time>2018-05-09T14:53:43Z</time>
      </trkpt>
      <trkpt lat="50.71964" lon="3.04083">
        <ele>113.8</ele>
        <time>2018-05-09T14:53:47Z</time>
      </trkpt>
      <trkpt lat="50.71943" lon="3.04081">
        <ele>113.4</ele>
        <time>2018-05-09T14:53:51Z</time>
      </trkpt>
      <trkpt lat="50.71922" lon="3.04078">
        <ele>113.4</ele>
        <time>2018-05-09T14:53:55Z</time>
      </trkpt>
      <trkpt lat="50.719" lon="3.04074">
        <ele>113.4</ele>
        <time>2018-05-09T14:53:59Z</time>
      </trkpt>
      <trkpt lat="50.71879" lon="3.0407">
        <ele>113.4</ele>
        <time>2018-05-09T14:54:03Z</time>
      </trkpt>
      <trkpt lat="50.71857" lon="3.04066">
        <ele>113</ele>
        <time>2018-05-09T14:54:07Z</time>
      </trkpt>
      <trkpt lat="50.71836" lon="3.04061">
        <ele>112.8</ele>
        <time>2018-05-09T14:54:11Z</time>
      </trkpt>
      <trkpt lat="50.71815" lon="3.04055">
        <ele>113.2</ele>
        <time>2018-05-09T14:54:15Z</time>
      </trkpt>
      <trkpt lat="50.71793" lon="3.04055">
        <ele>112.8</ele>
        <time>2018-05-09T14:54:19Z</time>
      </trkpt>
      <trkpt lat="50.71772" lon="3.04057">
        <ele>113.2</ele>
        <time>2018-05-09T14:54:23Z</time>
      </trkpt>
      <trkpt lat="50.7175" lon="3.04059">
        <ele>113.4</ele>
        <time>2018-05-09T14:54:27Z</time>
      </trkpt>
      <trkpt lat="50.71729" lon="3.04062">
        <ele>112.8</ele>
        <time>2018-05-09T14:54:31Z</time>
      </trkpt>
      <trkpt lat="50.71707" lon="3.04066">
        <ele>113.2</ele>
        <time>2018-05-09T14:54:35Z</time>
      </trkpt>
      <trkpt lat="50.71686" lon="3.04072">
        <ele>113</ele>
        <time>2018-05-09T14:54:39Z</time>
      </trkpt>
      <trkpt lat="50.71667" lon="3.04078">
        <ele>113</ele>
        <time>2018-05-09T14:54:43Z</time>
      </trkpt>
      <trkpt lat="50.71647" lon="3.04084">
        <ele>113.2</ele>
        <time>2018-05-09T14:54:47Z</time>
      </trkpt>
      <trkpt lat="50.71627" lon="3.0409">
        <ele>113.2</ele>
        <time>2018-05-09T14:54:51Z</time>
      </trkpt>
      <trkpt lat="50.71606" lon="3.04097">
        <ele>113.6</ele>
        <time>2018-05-09T14:54:55Z</time>
      </trkpt>
      <trkpt lat="50.71587" lon="3.04103">
        <ele>113.8</ele>
        <time>2018-05-09T14:54:59Z</time>
      </trkpt>
      <trkpt lat="50.71571" lon="3.04113">
        <ele>113.8</ele>
        <time>2018-05-09T14:55:03Z</time>
      </trkpt>
      <trkpt lat="50.71575" lon="3.0414">
        <ele>114</ele>
        <time>2018-05-09T14:55:07Z</time>
      </trkpt>
      <trkpt lat="50.71583" lon="3.04168">
        <ele>113.6</ele>
        <time>2018-05-09T14:55:11Z</time>
      </trkpt>
      <trkpt lat="50.71586" lon="3.04196">
        <ele>114</ele>
        <time>2018-05-09T14:55:15Z</time>
      </trkpt>
      <trkpt lat="50.71587" lon="3.04227">
        <ele>114.2</ele>
        <time>2018-05-09T14:55:19Z</time>
      </trkpt>
      <trkpt lat="50.71588" lon="3.04258">
        <ele>114.2</ele>
        <time>2018-05-09T14:55:23Z</time>
      </trkpt>
      <trkpt lat="50.71591" lon="3.04289">
        <ele>114.8</ele>
        <time>2018-05-09T14:55:27Z</time>
      </trkpt>
      <trkpt lat="50.71598" lon="3.04318">
        <ele>114.2</ele>
        <time>2018-05-09T14:55:31Z</time>
      </trkpt>
      <trkpt lat="50.71614" lon="3.04336">
        <ele>114</ele>
        <time>2018-05-09T14:55:35Z</time>
      </trkpt>
      <trkpt lat="50.71632" lon="3.0435">
        <ele>113.4</ele>
        <time>2018-05-09T14:55:39Z</time>
      </trkpt>
      <trkpt lat="50.71646" lon="3.04372">
        <ele>113.2</ele>
        <time>2018-05-09T14:55:43Z</time>
      </trkpt>
      <trkpt lat="50.71657" lon="3.04396">
        <ele>113.6</ele>
        <time>2018-05-09T14:55:47Z</time>
      </trkpt>
      <trkpt lat="50.71664" lon="3.04422">
        <ele>113.4</ele>
        <time>2018-05-09T14:55:51Z</time>
      </trkpt>
      <trkpt lat="50.71672" lon="3.04453">
        <ele>114</ele>
        <time>2018-05-09T14:55:55Z</time>
      </trkpt>
      <trkpt lat="50.71675" lon="3.04485">
        <ele>113.8</ele>
        <time>2018-05-09T14:55:59Z</time>
      </trkpt>
      <trkpt lat="50.71677" lon="3.04516">
        <ele>113.6</ele>
        <time>2018-05-09T14:56:03Z</time>
      </trkpt>
      <trkpt lat="50.71673" lon="3.04549">
        <ele>113.2</ele>
        <time>2018-05-09T14:56:07Z</time>
      </trkpt>
      <trkpt lat="50.71665" lon="3.0458">
        <ele>113.2</ele>
        <time>2018-05-09T14:56:11Z</time>
      </trkpt>
      <trkpt lat="50.71654" lon="3.04609">
        <ele>113</ele>
        <time>2018-05-09T14:56:15Z</time>
      </trkpt>
      <trkpt lat="50.71639" lon="3.04635">
        <ele>113.2</ele>
        <time>2018-05-09T14:56:19Z</time>
      </trkpt>
      <trkpt lat="50.71624" lon="3.0466">
        <ele>113.4</ele>
        <time>2018-05-09T14:56:23Z</time>
      </trkpt>
      <trkpt lat="50.71608" lon="3.04685">
        <ele>113.4</ele>
        <time>2018-05-09T14:56:27Z</time>
      </trkpt>
      <trkpt lat="50.71594" lon="3.0471">
        <ele>113.4</ele>
        <time>2018-05-09T14:56:31Z</time>
      </trkpt>
      <trkpt lat="50.71578" lon="3.04732">
        <ele>113.2</ele>
        <time>2018-05-09T14:56:35Z</time>
      </trkpt>
      <trkpt lat="50.71562" lon="3.04754">
        <ele>112.8</ele>
        <time>2018-05-09T14:56:39Z</time>
      </trkpt>
      <trkpt lat="50.71547" lon="3.04778">
        <ele>113.2</ele>
        <time>2018-05-09T14:56:43Z</time>
      </trkpt>
      <trkpt lat="50.71536" lon="3.04807">
        <ele>113.2</ele>
        <time>2018-05-09T14:56:47Z</time>
      </trkpt>
      <trkpt lat="50.71526" lon="3.04838">
        <ele>113.4</ele>
        <time>2018-05-09T14:56:51Z</time>
      </trkpt>
      <trkpt lat="50.71517" lon="3.04867">
        <ele>113.4</ele>
        <time>2018-05-09T14:56:55Z</time>
      </trkpt>
      <trkpt lat="50.71508" lon="3.04895">
        <ele>113.4</ele>
        <time>2018-05-09T14:56:59Z</time>
      </trkpt>
      <trkpt lat="50.71498" lon="3.04922">
        <ele>113.8</ele>
        <time>2018-05-09T14:57:03Z</time>
      </trkpt>
      <trkpt lat="50.71483" lon="3.04943">
        <ele>114.2</ele>
        <time>2018-05-09T14:57:07Z</time>
      </trkpt>
      <trkpt lat="50.71474" lon="3.0497">
        <ele>114.2</ele>
        <time>2018-05-09T14:57:11Z</time>
      </trkpt>
      <trkpt lat="50.71471" lon="3.04999">
        <ele>114.2</ele>
        <time>2018-05-09T14:57:15Z</time>
      </trkpt>
      <trkpt lat="50.71467" lon="3.05029">
        <ele>114.2</ele>
        <time>2018-05-09T14:57:19Z</time>
      </trkpt>
      <trkpt lat="50.71464" lon="3.05057">
        <ele>114.6</ele>
        <time>2018-05-09T14:57:23Z</time>
      </trkpt>
      <trkpt lat="50.7146" lon="3.05086">
        <ele>114.6</ele>
        <time>2018-05-09T14:57:27Z</time>
      </trkpt>
      <trkpt lat="50.71458" lon="3.05115">
        <ele>114.6</ele>
        <time>2018-05-09T14:57:31Z</time>
      </trkpt>
      <trkpt lat="50.71454" lon="3.05143">
        <ele>114</ele>
        <time>2018-05-09T14:57:35Z</time>
      </trkpt>
      <trkpt lat="50.71452" lon="3.05172">
        <ele>114.6</ele>
        <time>2018-05-09T14:57:39Z</time>
      </trkpt>
      <trkpt lat="50.71446" lon="3.05202">
        <ele>113.8</ele>
        <time>2018-05-09T14:57:43Z</time>
      </trkpt>
      <trkpt lat="50.71434" lon="3.05227">
        <ele>114.2</ele>
        <time>2018-05-09T14:57:47Z</time>
      </trkpt>
      <trkpt lat="50.71418" lon="3.05246">
        <ele>114.6</ele>
        <time>2018-05-09T14:57:51Z</time>
      </trkpt>
      <trkpt lat="50.714" lon="3.05262">
        <ele>114.2</ele>
        <time>2018-05-09T14:57:55Z</time>
      </trkpt>
      <trkpt lat="50.71383" lon="3.05275">
        <ele>113.8</ele>
        <time>2018-05-09T14:57:59Z</time>
      </trkpt>
      <trkpt lat="50.71367" lon="3.05287">
        <ele>114.2</ele>
        <time>2018-05-09T14:58:03Z</time>
      </trkpt>
      <trkpt lat="50.71351" lon="3.05301">
        <ele>114.2</ele>
        <time>2018-05-09T14:58:07Z</time>
      </trkpt>
      <trkpt lat="50.71341" lon="3.05326">
        <ele>114</ele>
        <time>2018-05-09T14:58:11Z</time>
      </trkpt>
      <trkpt lat="50.71336" lon="3.05355">
        <ele>113.8</ele>
        <time>2018-05-09T14:58:15Z</time>
      </trkpt>
      <trkpt lat="50.71334" lon="3.05385">
        <ele>114</ele>
        <time>2018-05-09T14:58:19Z</time>
      </trkpt>
      <trkpt lat="50.71336" lon="3.05412">
        <ele>113.4</ele>
        <time>2018-05-09T14:58:23Z</time>
      </trkpt>
      <trkpt lat="50.71328" lon="3.05435">
        <ele>114</ele>
        <time>2018-05-09T14:58:27Z</time>
      </trkpt>
      <trkpt lat="50.7131" lon="3.05445">
        <ele>113.8</ele>
        <time>2018-05-09T14:58:31Z</time>
      </trkpt>
      <trkpt lat="50.71292" lon="3.05453">
        <ele>113.8</ele>
        <time>2018-05-09T14:58:35Z</time>
      </trkpt>
      <trkpt lat="50.71273" lon="3.05458">
        <ele>114</ele>
        <time>2018-05-09T14:58:39Z</time>
      </trkpt>
      <trkpt lat="50.71253" lon="3.0546">
        <ele>114.2</ele>
        <time>2018-05-09T14:58:43Z</time>
      </trkpt>
      <trkpt lat="50.71233" lon="3.05465">
        <ele>114</ele>
        <time>2018-05-09T14:58:47Z</time>
      </trkpt>
      <trkpt lat="50.71214" lon="3.05477">
        <ele>114.6</ele>
        <time>2018-05-09T14:58:51Z</time>
      </trkpt>
      <trkpt lat="50.71194" lon="3.05489">
        <ele>113.8</ele>
        <time>2018-05-09T14:58:55Z</time>
      </trkpt>
      <trkpt lat="50.71174" lon="3.055">
        <ele>114.2</ele>
        <time>2018-05-09T14:58:59Z</time>
      </trkpt>
      <trkpt lat="50.71153" lon="3.05504">
        <ele>114.4</ele>
        <time>2018-05-09T14:59:03Z</time>
      </trkpt>
      <trkpt lat="50.71133" lon="3.05506">
        <ele>114.2</ele>
        <time>2018-05-09T14:59:07Z</time>
      </trkpt>
      <trkpt lat="50.71113" lon="3.05507">
        <ele>113.8</ele>
        <time>2018-05-09T14:59:11Z</time>
      </trkpt>
      <trkpt lat="50.71093" lon="3.05502">
        <ele>114</ele>
        <time>2018-05-09T14:59:15Z</time>
      </trkpt>
      <trkpt lat="50.71077" lon="3.05483">
        <ele>114.8</ele>
        <time>2018-05-09T14:59:19Z</time>
      </trkpt>
      <trkpt lat="50.71062" lon="3.05462">
        <ele>115</ele>
        <time>2018-05-09T14:59:23Z</time>
      </trkpt>
      <trkpt lat="50.71046" lon="3.05441">
        <ele>114.6</ele>
        <time>2018-05-09T14:59:27Z</time>
      </trkpt>
      <trkpt lat="50.71029" lon="3.0542">
        <ele>113.8</ele>
        <time>2018-05-09T14:59:31Z</time>
      </trkpt>
      <trkpt lat="50.71013" lon="3.05398">
        <ele>114</ele>
        <time>2018-05-09T14:59:35Z</time>
      </trkpt>
      <trkpt lat="50.70997" lon="3.05375">
        <ele>114.6</ele>
        <time>2018-05-09T14:59:39Z</time>
      </trkpt>
      <trkpt lat="50.70983" lon="3.0535">
        <ele>114.4</ele>
        <time>2018-05-09T14:59:43Z</time>
      </trkpt>
      <trkpt lat="50.7097" lon="3.05324">
        <ele>114.2</ele>
        <time>2018-05-09T14:59:47Z</time>
      </trkpt>
      <trkpt lat="50.70956" lon="3.053">
        <ele>114.8</ele>
        <time>2018-05-09T14:59:51Z</time>
      </trkpt>
      <trkpt lat="50.70942" lon="3.05277">
        <ele>115.2</ele>
        <time>2018-05-09T14:59:55Z</time>
      </trkpt>
      <trkpt lat="50.70929" lon="3.05254">
        <ele>114.8</ele>
        <time>2018-05-09T14:59:59Z</time>
      </trkpt>
      <trkpt lat="50.70915" lon="3.05231">
        <ele>115</ele>
        <time>2018-05-09T15:00:03Z</time>
      </trkpt>
      <trkpt lat="50.70903" lon="3.05209">
        <ele>114.6</ele>
        <time>2018-05-09T15:00:07Z</time>
      </trkpt>
      <trkpt lat="50.7089" lon="3.05189">
        <ele>113.8</ele>
        <time>2018-05-09T15:00:11Z</time>
      </trkpt>
      <trkpt lat="50.70873" lon="3.05189">
        <ele>115</ele>
        <time>2018-05-09T15:00:15Z</time>
      </trkpt>
      <trkpt lat="50.70856" lon="3.05199">
        <ele>114.4</ele>
        <time>2018-05-09T15:00:19Z</time>
      </trkpt>
      <trkpt lat="50.70841" lon="3.05208">
        <ele>114.8</ele>
        <time>2018-05-09T15:00:23Z</time>
      </trkpt>
      <trkpt lat="50.70824" lon="3.05219">
        <ele>114.8</ele>
        <time>2018-05-09T15:00:27Z</time>
      </trkpt>
      <trkpt lat="50.70807" lon="3.05234">
        <ele>114.8</ele>
        <time>2018-05-09T15:00:31Z</time>
      </trkpt>
      <trkpt lat="50.70791" lon="3.05248">
        <ele>114.4</ele>
        <time>2018-05-09T15:00:35Z</time>
      </trkpt>
      <trkpt lat="50.70774" lon="3.05261">
        <ele>114.8</ele>
        <time>2018-05-09T15:00:39Z</time>
      </trkpt>
      <trkpt lat="50.70755" lon="3.05273">
        <ele>115</ele>
        <time>2018-05-09T15:00:43Z</time>
      </trkpt>
      <trkpt lat="50.70736" lon="3.05285">
        <ele>115</ele>
        <time>2018-05-09T15:00:47Z</time>
      </trkpt>
      <trkpt lat="50.70718" lon="3.05298">
        <ele>115</ele>
        <time>2018-05-09T15:00:51Z</time>
      </trkpt>
      <trkpt lat="50.70699" lon="3.05301">
        <ele>115</ele>
        <time>2018-05-09T15:00:55Z</time>
      </trkpt>
      <trkpt lat="50.70679" lon="3.05301">
        <ele>115</ele>
        <time>2018-05-09T15:00:59Z</time>
      </trkpt>
      <trkpt lat="50.7066" lon="3.05299">
        <ele>115.8</ele>
        <time>2018-05-09T15:01:03Z</time>
      </trkpt>
      <trkpt lat="50.70641" lon="3.05295">
        <ele>115.8</ele>
        <time>2018-05-09T15:01:07Z</time>
      </trkpt>
      <trkpt lat="50.70623" lon="3.05291">
        <ele>116</ele>
        <time>2018-05-09T15:01:11Z</time>
      </trkpt>
      <trkpt lat="50.70608" lon="3.05277">
        <ele>115.8</ele>
        <time>2018-05-09T15:01:15Z</time>
      </trkpt>
      <trkpt lat="50.70594" lon="3.05262">
        <ele>116.2</ele>
        <time>2018-05-09T15:01:19Z</time>
      </trkpt>
      <trkpt lat="50.70579" lon="3.05246">
        <ele>116.2</ele>
        <time>2018-05-09T15:01:23Z</time>
      </trkpt>
      <trkpt lat="50.70565" lon="3.05229">
        <ele>116.2</ele>
        <time>2018-05-09T15:01:27Z</time>
      </trkpt>
      <trkpt lat="50.7055" lon="3.05213">
        <ele>115.8</ele>
        <time>2018-05-09T15:01:31Z</time>
      </trkpt>
      <trkpt lat="50.70535" lon="3.05197">
        <ele>115.6</ele>
        <time>2018-05-09T15:01:35Z</time>
      </trkpt>
      <trkpt lat="50.7052" lon="3.05179">
        <ele>115.8</ele>
        <time>2018-05-09T15:01:39Z</time>
      </trkpt>
      <trkpt lat="50.70505" lon="3.05162">
        <ele>115.4</ele>
        <time>2018-05-09T15:01:43Z</time>
      </trkpt>
      <trkpt lat="50.7049" lon="3.05148">
        <ele>114.4</ele>
        <time>2018-05-09T15:01:47Z</time>
      </trkpt>
      <trkpt lat="50.70478" lon="3.05139">
        <ele>113.8</ele>
        <time>2018-05-09T15:01:51Z</time>
      </trkpt>
      <trkpt lat="50.70456" lon="3.05122">
        <ele>113.8</ele>
        <time>2018-05-09T15:01:55Z</time>
      </trkpt>
      <trkpt lat="50.70439" lon="3.05108">
        <ele>113.2</ele>
        <time>2018-05-09T15:01:59Z</time>
      </trkpt>
      <trkpt lat="50.70419" lon="3.0509">
        <ele>112.6</ele>
        <time>2018-05-09T15:02:03Z</time>
      </trkpt>
      <trkpt lat="50.70399" lon="3.05073">
        <ele>112.6</ele>
        <time>2018-05-09T15:02:07Z</time>
      </trkpt>
      <trkpt lat="50.70382" lon="3.05058">
        <ele>113.2</ele>
        <time>2018-05-09T15:02:11Z</time>
      </trkpt>
      <trkpt lat="50.70367" lon="3.05041">
        <ele>113.2</ele>
        <time>2018-05-09T15:02:15Z</time>
      </trkpt>
      <trkpt lat="50.7035" lon="3.05024">
        <ele>113.4</ele>
        <time>2018-05-09T15:02:19Z</time>
      </trkpt>
      <trkpt lat="50.70336" lon="3.05008">
        <ele>113.2</ele>
        <time>2018-05-09T15:02:23Z</time>
      </trkpt>
      <trkpt lat="50.70321" lon="3.04993">
        <ele>113.2</ele>
        <time>2018-05-09T15:02:27Z</time>
      </trkpt>
      <trkpt lat="50.70309" lon="3.0499">
        <ele>113</ele>
        <time>2018-05-09T15:02:31Z</time>
      </trkpt>
      <trkpt lat="50.70301" lon="3.05008">
        <ele>112.8</ele>
        <time>2018-05-09T15:02:35Z</time>
      </trkpt>
      <trkpt lat="50.70292" lon="3.05029">
        <ele>113.2</ele>
        <time>2018-05-09T15:02:39Z</time>
      </trkpt>
      <trkpt lat="50.70284" lon="3.0505">
        <ele>113.4</ele>
        <time>2018-05-09T15:02:43Z</time>
      </trkpt>
      <trkpt lat="50.70275" lon="3.05071">
        <ele>113.4</ele>
        <time>2018-05-09T15:02:47Z</time>
      </trkpt>
      <trkpt lat="50.70267" lon="3.05092">
        <ele>113.2</ele>
        <time>2018-05-09T15:02:51Z</time>
      </trkpt>
      <trkpt lat="50.70258" lon="3.05113">
        <ele>113.2</ele>
        <time>2018-05-09T15:02:55Z</time>
      </trkpt>
      <trkpt lat="50.70249" lon="3.05135">
        <ele>113.2</ele>
        <time>2018-05-09T15:02:59Z</time>
      </trkpt>
      <trkpt lat="50.70239" lon="3.05156">
        <ele>114</ele>
        <time>2018-05-09T15:03:03Z</time>
      </trkpt>
      <trkpt lat="50.7023" lon="3.05178">
        <ele>113.6</ele>
        <time>2018-05-09T15:03:07Z</time>
      </trkpt>
      <trkpt lat="50.70222" lon="3.05202">
        <ele>113.8</ele>
        <time>2018-05-09T15:03:11Z</time>
      </trkpt>
      <trkpt lat="50.70216" lon="3.05226">
        <ele>113.8</ele>
        <time>2018-05-09T15:03:15Z</time>
      </trkpt>
      <trkpt lat="50.7021" lon="3.05251">
        <ele>113.8</ele>
        <time>2018-05-09T15:03:19Z</time>
      </trkpt>
      <trkpt lat="50.70205" lon="3.05278">
        <ele>113.8</ele>
        <time>2018-05-09T15:03:23Z</time>
      </trkpt>
      <trkpt lat="50.70204" lon="3.05307">
        <ele>113.8</ele>
        <time>2018-05-09T15:03:27Z</time>
      </trkpt>
      <trkpt lat="50.70206" lon="3.05336">
        <ele>113.8</ele>
        <time>2018-05-09T15:03:31Z</time>
      </trkpt>
      <trkpt lat="50.70208" lon="3.05365">
        <ele>113.8</ele>
        <time>2018-05-09T15:03:35Z</time>
      </trkpt>
      <trkpt lat="50.70204" lon="3.05393">
        <ele>113.8</ele>
        <time>2018-05-09T15:03:39Z</time>
      </trkpt>
      <trkpt lat="50.70198" lon="3.05419">
        <ele>114</ele>
        <time>2018-05-09T15:03:43Z</time>
      </trkpt>
      <trkpt lat="50.70191" lon="3.05445">
        <ele>113.8</ele>
        <time>2018-05-09T15:03:47Z</time>
      </trkpt>
      <trkpt lat="50.70184" lon="3.0547">
        <ele>114</ele>
        <time>2018-05-09T15:03:51Z</time>
      </trkpt>
      <trkpt lat="50.70177" lon="3.05494">
        <ele>114</ele>
        <time>2018-05-09T15:03:55Z</time>
      </trkpt>
      <trkpt lat="50.7017" lon="3.05514">
        <ele>115</ele>
        <time>2018-05-09T15:03:59Z</time>
      </trkpt>
      <trkpt lat="50.70157" lon="3.05511">
        <ele>114.8</ele>
        <time>2018-05-09T15:04:03Z</time>
      </trkpt>
      <trkpt lat="50.70143" lon="3.05502">
        <ele>114.8</ele>
        <time>2018-05-09T15:04:07Z</time>
      </trkpt>
      <trkpt lat="50.70127" lon="3.05494">
        <ele>114.8</ele>
        <time>2018-05-09T15:04:11Z</time>
      </trkpt>
      <trkpt lat="50.70111" lon="3.05485">
        <ele>115</ele>
        <time>2018-05-09T15:04:15Z</time>
      </trkpt>
      <trkpt lat="50.70095" lon="3.05476">
        <ele>115.4</ele>
        <time>2018-05-09T15:04:19Z</time>
      </trkpt>
      <trkpt lat="50.7008" lon="3.05468">
        <ele>115.4</ele>
        <time>2018-05-09T15:04:23Z</time>
      </trkpt>
      <trkpt lat="50.7007" lon="3.05478">
        <ele>115.2</ele>
        <time>2018-05-09T15:04:27Z</time>
      </trkpt>
      <trkpt lat="50.70068" lon="3.05502">
        <ele>114.8</ele>
        <time>2018-05-09T15:04:31Z</time>
      </trkpt>
      <trkpt lat="50.70065" lon="3.05527">
        <ele>115</ele>
        <time>2018-05-09T15:04:35Z</time>
      </trkpt>
      <trkpt lat="50.70063" lon="3.05553">
        <ele>115</ele>
        <time>2018-05-09T15:04:39Z</time>
      </trkpt>
      <trkpt lat="50.7006" lon="3.05579">
        <ele>114.8</ele>
        <time>2018-05-09T15:04:43Z</time>
      </trkpt>
      <trkpt lat="50.70058" lon="3.05607">
        <ele>115.2</ele>
        <time>2018-05-09T15:04:47Z</time>
      </trkpt>
      <trkpt lat="50.70055" lon="3.05635">
        <ele>115.2</ele>
        <time>2018-05-09T15:04:51Z</time>
      </trkpt>
      <trkpt lat="50.70053" lon="3.05664">
        <ele>115.2</ele>
        <time>2018-05-09T15:04:55Z</time>
      </trkpt>
      <trkpt lat="50.7005" lon="3.05692">
        <ele>115.2</ele>
        <time>2018-05-09T15:04:59Z</time>
      </trkpt>
      <trkpt lat="50.70048" lon="3.0572">
        <ele>115.4</ele>
        <time>2018-05-09T15:05:03Z</time>
      </trkpt>
      <trkpt lat="50.70046" lon="3.05749">
        <ele>115.6</ele>
        <time>2018-05-09T15:05:07Z</time>
      </trkpt>
      <trkpt lat="50.70043" lon="3.05777">
        <ele>115.8</ele>
        <time>2018-05-09T15:05:11Z</time>
      </trkpt>
      <trkpt lat="50.7004" lon="3.05806">
        <ele>115.8</ele>
        <time>2018-05-09T15:05:15Z</time>
      </trkpt>
      <trkpt lat="50.70038" lon="3.05833">
        <ele>115.6</ele>
        <time>2018-05-09T15:05:19Z</time>
      </trkpt>
      <trkpt lat="50.70035" lon="3.05861">
        <ele>116.6</ele>
        <time>2018-05-09T15:05:23Z</time>
      </trkpt>
      <trkpt lat="50.70035" lon="3.05888">
        <ele>117</ele>
        <time>2018-05-09T15:05:27Z</time>
      </trkpt>
      <trkpt lat="50.70041" lon="3.05913">
        <ele>117</ele>
        <time>2018-05-09T15:05:31Z</time>
      </trkpt>
      <trkpt lat="50.70047" lon="3.05939">
        <ele>116.8</ele>
        <time>2018-05-09T15:05:35Z</time>
      </trkpt>
      <trkpt lat="50.70054" lon="3.05965">
        <ele>116.8</ele>
        <time>2018-05-09T15:05:39Z</time>
      </trkpt>
      <trkpt lat="50.70061" lon="3.05991">
        <ele>116.6</ele>
        <time>2018-05-09T15:05:43Z</time>
      </trkpt>
      <trkpt lat="50.70067" lon="3.06017">
        <ele>116.8</ele>
        <time>2018-05-09T15:05:47Z</time>
      </trkpt>
      <trkpt lat="50.70074" lon="3.06044">
        <ele>116.4</ele>
        <time>2018-05-09T15:05:51Z</time>
      </trkpt>
      <trkpt lat="50.70081" lon="3.06072">
        <ele>116.2</ele>
        <time>2018-05-09T15:05:55Z</time>
      </trkpt>
      <trkpt lat="50.70089" lon="3.06101">
        <ele>115.8</ele>
        <time>2018-05-09T15:05:59Z</time>
      </trkpt>
      <trkpt lat="50.70096" lon="3.06129">
        <ele>116.2</ele>
        <time>2018-05-09T15:06:03Z</time>
      </trkpt>
      <trkpt lat="50.70103" lon="3.06157">
        <ele>115.8</ele>
        <time>2018-05-09T15:06:07Z</time>
      </trkpt>
      <trkpt lat="50.7011" lon="3.06186">
        <ele>116</ele>
        <time>2018-05-09T15:06:11Z</time>
      </trkpt>
      <trkpt lat="50.70117" lon="3.06216">
        <ele>115.8</ele>
        <time>2018-05-09T15:06:15Z</time>
      </trkpt>
      <trkpt lat="50.70125" lon="3.06245">
        <ele>116</ele>
        <time>2018-05-09T15:06:19Z</time>
      </trkpt>
      <trkpt lat="50.70132" lon="3.06274">
        <ele>115.8</ele>
        <time>2018-05-09T15:06:23Z</time>
      </trkpt>
      <trkpt lat="50.7014" lon="3.06303">
        <ele>115.8</ele>
        <time>2018-05-09T15:06:27Z</time>
      </trkpt>
      <trkpt lat="50.70147" lon="3.06333">
        <ele>115.6</ele>
        <time>2018-05-09T15:06:31Z</time>
      </trkpt>
      <trkpt lat="50.70155" lon="3.06363">
        <ele>115.4</ele>
        <time>2018-05-09T15:06:35Z</time>
      </trkpt>
      <trkpt lat="50.70161" lon="3.06392">
        <ele>115.6</ele>
        <time>2018-05-09T15:06:39Z</time>
      </trkpt>
      <trkpt lat="50.70167" lon="3.0642">
        <ele>115</ele>
        <time>2018-05-09T15:06:43Z</time>
      </trkpt>
      <trkpt lat="50.70172" lon="3.06448">
        <ele>115.2</ele>
        <time>2018-05-09T15:06:47Z</time>
      </trkpt>
      <trkpt lat="50.70177" lon="3.06474">
        <ele>115.2</ele>
        <time>2018-05-09T15:06:51Z</time>
      </trkpt>
      <trkpt lat="50.70182" lon="3.06499">
        <ele>115.4</ele>
        <time>2018-05-09T15:06:55Z</time>
      </trkpt>
      <trkpt lat="50.70186" lon="3.06523">
        <ele>115</ele>
        <time>2018-05-09T15:06:59Z</time>
      </trkpt>
      <trkpt lat="50.70176" lon="3.06532">
        <ele>115.2</ele>
        <time>2018-05-09T15:07:03Z</time>
      </trkpt>
      <trkpt lat="50.70162" lon="3.06534">
        <ele>115</ele>
        <time>2018-05-09T15:07:07Z</time>
      </trkpt>
      <trkpt lat="50.70147" lon="3.06536">
        <ele>115.2</ele>
        <time>2018-05-09T15:07:11Z</time>
      </trkpt>
      <trkpt lat="50.70131" lon="3.06538">
        <ele>115.2</ele>
        <time>2018-05-09T15:07:15Z</time>
      </trkpt>
      <trkpt lat="50.70114" lon="3.06539">
        <ele>115.2</ele>
        <time>2018-05-09T15:07:19Z</time>
      </trkpt>
      <trkpt lat="50.70098" lon="3.06541">
        <ele>115.6</ele>
        <time>2018-05-09T15:07:23Z</time>
      </trkpt>
      <trkpt lat="50.70082" lon="3.06541">
        <ele>114.4</ele>
        <time>2018-05-09T15:07:27Z</time>
      </trkpt>
      <trkpt lat="50.70067" lon="3.06529">
        <ele>115.6</ele>
        <time>2018-05-09T15:07:31Z</time>
      </trkpt>
      <trkpt lat="50.70052" lon="3.06516">
        <ele>115.4</ele>
        <time>2018-05-09T15:07:35Z</time>
      </trkpt>
      <trkpt lat="50.70034" lon="3.06515">
        <ele>116</ele>
        <time>2018-05-09T15:07:39Z</time>
      </trkpt>
      <trkpt lat="50.70017" lon="3.0652">
        <ele>116.2</ele>
        <time>2018-05-09T15:07:43Z</time>
      </trkpt>
      <trkpt lat="50.70002" lon="3.06533">
        <ele>115.8</ele>
        <time>2018-05-09T15:07:47Z</time>
      </trkpt>
      <trkpt lat="50.69988" lon="3.06547">
        <ele>115.4</ele>
        <time>2018-05-09T15:07:51Z</time>
      </trkpt>
      <trkpt lat="50.69974" lon="3.06564">
        <ele>116</ele>
        <time>2018-05-09T15:07:55Z</time>
      </trkpt>
      <trkpt lat="50.69961" lon="3.06583">
        <ele>115.8</ele>
        <time>2018-05-09T15:07:59Z</time>
      </trkpt>
      <trkpt lat="50.69951" lon="3.06604">
        <ele>116</ele>
        <time>2018-05-09T15:08:03Z</time>
      </trkpt>
      <trkpt lat="50.69939" lon="3.06626">
        <ele>116.2</ele>
        <time>2018-05-09T15:08:07Z</time>
      </trkpt>
      <trkpt lat="50.69926" lon="3.06647">
        <ele>116</ele>
        <time>2018-05-09T15:08:11Z</time>
      </trkpt>
      <trkpt lat="50.69912" lon="3.06668">
        <ele>116</ele>
        <time>2018-05-09T15:08:15Z</time>
      </trkpt>
      <trkpt lat="50.69899" lon="3.06689">
        <ele>116</ele>
        <time>2018-05-09T15:08:19Z</time>
      </trkpt>
      <trkpt lat="50.69886" lon="3.0671">
        <ele>115.6</ele>
        <time>2018-05-09T15:08:23Z</time>
      </trkpt>
      <trkpt lat="50.69875" lon="3.0673">
        <ele>115.8</ele>
        <time>2018-05-09T15:08:27Z</time>
      </trkpt>
      <trkpt lat="50.69866" lon="3.06745">
        <ele>115.2</ele>
        <time>2018-05-09T15:08:31Z</time>
      </trkpt>
      <trkpt lat="50.69861" lon="3.06749">
        <ele>115.8</ele>
        <time>2018-05-09T15:08:43Z</time>
      </trkpt>
      <trkpt lat="50.69857" lon="3.06757">
        <ele>115.2</ele>
        <time>2018-05-09T15:08:47Z</time>
      </trkpt>
      <trkpt lat="50.69857" lon="3.06772">
        <ele>115.2</ele>
        <time>2018-05-09T15:08:51Z</time>
      </trkpt>
      <trkpt lat="50.69862" lon="3.06788">
        <ele>115.4</ele>
        <time>2018-05-09T15:08:55Z</time>
      </trkpt>
      <trkpt lat="50.69868" lon="3.06804">
        <ele>115.2</ele>
        <time>2018-05-09T15:08:59Z</time>
      </trkpt>
      <trkpt lat="50.69875" lon="3.06823">
        <ele>115.4</ele>
        <time>2018-05-09T15:09:03Z</time>
      </trkpt>
      <trkpt lat="50.69882" lon="3.06842">
        <ele>115.6</ele>
        <time>2018-05-09T15:09:07Z</time>
      </trkpt>
      <trkpt lat="50.69888" lon="3.06863">
        <ele>116</ele>
        <time>2018-05-09T15:09:11Z</time>
      </trkpt>
      <trkpt lat="50.69895" lon="3.06885">
        <ele>116</ele>
        <time>2018-05-09T15:09:15Z</time>
      </trkpt>
      <trkpt lat="50.69902" lon="3.06905">
        <ele>115.6</ele>
        <time>2018-05-09T15:09:19Z</time>
      </trkpt>
      <trkpt lat="50.69908" lon="3.06924">
        <ele>116</ele>
        <time>2018-05-09T15:09:23Z</time>
      </trkpt>
      <trkpt lat="50.69916" lon="3.06946">
        <ele>116.2</ele>
        <time>2018-05-09T15:09:27Z</time>
      </trkpt>
      <trkpt lat="50.69925" lon="3.06971">
        <ele>115.8</ele>
        <time>2018-05-09T15:09:31Z</time>
      </trkpt>
      <trkpt lat="50.69932" lon="3.06993">
        <ele>116</ele>
        <time>2018-05-09T15:09:35Z</time>
      </trkpt>
      <trkpt lat="50.6994" lon="3.07017">
        <ele>115.6</ele>
        <time>2018-05-09T15:09:39Z</time>
      </trkpt>
      <trkpt lat="50.69947" lon="3.07039">
        <ele>116</ele>
        <time>2018-05-09T15:09:43Z</time>
      </trkpt>
      <trkpt lat="50.69954" lon="3.07061">
        <ele>116</ele>
        <time>2018-05-09T15:09:47Z</time>
      </trkpt>
      <trkpt lat="50.69961" lon="3.07084">
        <ele>116.2</ele>
        <time>2018-05-09T15:09:51Z</time>
      </trkpt>
      <trkpt lat="50.69968" lon="3.07107">
        <ele>116.4</ele>
        <time>2018-05-09T15:09:55Z</time>
      </trkpt>
      <trkpt lat="50.69976" lon="3.07129">
        <ele>116.4</ele>
        <time>2018-05-09T15:09:59Z</time>
      </trkpt>
      <trkpt lat="50.69982" lon="3.07149">
        <ele>116.2</ele>
        <time>2018-05-09T15:10:03Z</time>
      </trkpt>
      <trkpt lat="50.69987" lon="3.07172">
        <ele>116.4</ele>
        <time>2018-05-09T15:10:07Z</time>
      </trkpt>
      <trkpt lat="50.69994" lon="3.07194">
        <ele>116.2</ele>
        <time>2018-05-09T15:10:11Z</time>
      </trkpt>
      <trkpt lat="50.70002" lon="3.07215">
        <ele>116</ele>
        <time>2018-05-09T15:10:15Z</time>
      </trkpt>
      <trkpt lat="50.70011" lon="3.07235">
        <ele>115.8</ele>
        <time>2018-05-09T15:10:19Z</time>
      </trkpt>
      <trkpt lat="50.70017" lon="3.07256">
        <ele>115.8</ele>
        <time>2018-05-09T15:10:23Z</time>
      </trkpt>
      <trkpt lat="50.70024" lon="3.07278">
        <ele>115.6</ele>
        <time>2018-05-09T15:10:27Z</time>
      </trkpt>
      <trkpt lat="50.7003" lon="3.073">
        <ele>115.8</ele>
        <time>2018-05-09T15:10:31Z</time>
      </trkpt>
      <trkpt lat="50.70037" lon="3.07322">
        <ele>115.4</ele>
        <time>2018-05-09T15:10:35Z</time>
      </trkpt>
      <trkpt lat="50.70044" lon="3.07345">
        <ele>115.6</ele>
        <time>2018-05-09T15:10:39Z</time>
      </trkpt>
      <trkpt lat="50.70047" lon="3.07363">
        <ele>116.2</ele>
        <time>2018-05-09T15:10:43Z</time>
      </trkpt>
      <trkpt lat="50.70039" lon="3.07371">
        <ele>115.4</ele>
        <time>2018-05-09T15:10:47Z</time>
      </trkpt>
      <trkpt lat="50.70028" lon="3.07375">
        <ele>115.4</ele>
        <time>2018-05-09T15:10:51Z</time>
      </trkpt>
      <trkpt lat="50.70018" lon="3.07388">
        <ele>115.4</ele>
        <time>2018-05-09T15:10:55Z</time>
      </trkpt>
      <trkpt lat="50.70008" lon="3.07404">
        <ele>115.6</ele>
        <time>2018-05-09T15:10:59Z</time>
      </trkpt>
      <trkpt lat="50.69995" lon="3.0742">
        <ele>115</ele>
        <time>2018-05-09T15:11:03Z</time>
      </trkpt>
      <trkpt lat="50.69982" lon="3.07436">
        <ele>115.6</ele>
        <time>2018-05-09T15:11:07Z</time>
      </trkpt>
      <trkpt lat="50.69968" lon="3.07452">
        <ele>115.8</ele>
        <time>2018-05-09T15:11:11Z</time>
      </trkpt>
      <trkpt lat="50.69955" lon="3.07468">
        <ele>115.8</ele>
        <time>2018-05-09T15:11:15Z</time>
      </trkpt>
      <trkpt lat="50.69942" lon="3.07484">
        <ele>115.8</ele>
        <time>2018-05-09T15:11:19Z</time>
      </trkpt>
      <trkpt lat="50.69928" lon="3.075">
        <ele>117.2</ele>
        <time>2018-05-09T15:11:23Z</time>
      </trkpt>
      <trkpt lat="50.69914" lon="3.07517">
        <ele>115.8</ele>
        <time>2018-05-09T15:11:27Z</time>
      </trkpt>
      <trkpt lat="50.69901" lon="3.07535">
        <ele>115.2</ele>
        <time>2018-05-09T15:11:31Z</time>
      </trkpt>
      <trkpt lat="50.69887" lon="3.07551">
        <ele>115.8</ele>
        <time>2018-05-09T15:11:35Z</time>
      </trkpt>
      <trkpt lat="50.69874" lon="3.07567">
        <ele>115.6</ele>
        <time>2018-05-09T15:11:39Z</time>
      </trkpt>
      <trkpt lat="50.69859" lon="3.07583">
        <ele>115.8</ele>
        <time>2018-05-09T15:11:43Z</time>
      </trkpt>
      <trkpt lat="50.69844" lon="3.07599">
        <ele>115.4</ele>
        <time>2018-05-09T15:11:47Z</time>
      </trkpt>
      <trkpt lat="50.69828" lon="3.07614">
        <ele>116</ele>
        <time>2018-05-09T15:11:51Z</time>
      </trkpt>
      <trkpt lat="50.69813" lon="3.07629">
        <ele>115.2</ele>
        <time>2018-05-09T15:11:55Z</time>
      </trkpt>
      <trkpt lat="50.69798" lon="3.07645">
        <ele>115.8</ele>
        <time>2018-05-09T15:11:59Z</time>
      </trkpt>
      <trkpt lat="50.69784" lon="3.07662">
        <ele>116.2</ele>
        <time>2018-05-09T15:12:03Z</time>
      </trkpt>
      <trkpt lat="50.69769" lon="3.07678">
        <ele>116.2</ele>
        <time>2018-05-09T15:12:07Z</time>
      </trkpt>
      <trkpt lat="50.69754" lon="3.07692">
        <ele>116.8</ele>
        <time>2018-05-09T15:12:11Z</time>
      </trkpt>
      <trkpt lat="50.69739" lon="3.07706">
        <ele>115.6</ele>
        <time>2018-05-09T15:12:15Z</time>
      </trkpt>
      <trkpt lat="50.69724" lon="3.07722">
        <ele>116.4</ele>
        <time>2018-05-09T15:12:19Z</time>
      </trkpt>
      <trkpt lat="50.69709" lon="3.07737">
        <ele>116.2</ele>
        <time>2018-05-09T15:12:23Z</time>
      </trkpt>
      <trkpt lat="50.69693" lon="3.07752">
        <ele>116.2</ele>
        <time>2018-05-09T15:12:27Z</time>
      </trkpt>
      <trkpt lat="50.69677" lon="3.07763">
        <ele>116.8</ele>
        <time>2018-05-09T15:12:31Z</time>
      </trkpt>
      <trkpt lat="50.69661" lon="3.07774">
        <ele>116.4</ele>
        <time>2018-05-09T15:12:35Z</time>
      </trkpt>
      <trkpt lat="50.69644" lon="3.07785">
        <ele>116.4</ele>
        <time>2018-05-09T15:12:39Z</time>
      </trkpt>
      <trkpt lat="50.69626" lon="3.07792">
        <ele>116.8</ele>
        <time>2018-05-09T15:12:43Z</time>
      </trkpt>
      <trkpt lat="50.69609" lon="3.07798">
        <ele>117.2</ele>
        <time>2018-05-09T15:12:47Z</time>
      </trkpt>
      <trkpt lat="50.69591" lon="3.07801">
        <ele>116.6</ele>
        <time>2018-05-09T15:12:51Z</time>
      </trkpt>
      <trkpt lat="50.69572" lon="3.07805">
        <ele>117.4</ele>
        <time>2018-05-09T15:12:55Z</time>
      </trkpt>
      <trkpt lat="50.69553" lon="3.07808">
        <ele>116.8</ele>
        <time>2018-05-09T15:12:59Z</time>
      </trkpt>
      <trkpt lat="50.69534" lon="3.0781">
        <ele>116.8</ele>
        <time>2018-05-09T15:13:03Z</time>
      </trkpt>
      <trkpt lat="50.69516" lon="3.07814">
        <ele>117.2</ele>
        <time>2018-05-09T15:13:07Z</time>
      </trkpt>
      <trkpt lat="50.69497" lon="3.07818">
        <ele>116.6</ele>
        <time>2018-05-09T15:13:11Z</time>
      </trkpt>
      <trkpt lat="50.69479" lon="3.07821">
        <ele>117</ele>
        <time>2018-05-09T15:13:15Z</time>
      </trkpt>
      <trkpt lat="50.6946" lon="3.07824">
        <ele>116.4</ele>
        <time>2018-05-09T15:13:19Z</time>
      </trkpt>
      <trkpt lat="50.69441" lon="3.07826">
        <ele>116.6</ele>
        <time>2018-05-09T15:13:23Z</time>
      </trkpt>
      <trkpt lat="50.69422" lon="3.07824">
        <ele>116.6</ele>
        <time>2018-05-09T15:13:27Z</time>
      </trkpt>
      <trkpt lat="50.69401" lon="3.07822">
        <ele>116.8</ele>
        <time>2018-05-09T15:13:31Z</time>
      </trkpt>
      <trkpt lat="50.69381" lon="3.0782">
        <ele>116.6</ele>
        <time>2018-05-09T15:13:35Z</time>
      </trkpt>
      <trkpt lat="50.69361" lon="3.07824">
        <ele>116.8</ele>
        <time>2018-05-09T15:13:39Z</time>
      </trkpt>
      <trkpt lat="50.69341" lon="3.07823">
        <ele>116.6</ele>
        <time>2018-05-09T15:13:43Z</time>
      </trkpt>
      <trkpt lat="50.69322" lon="3.07817">
        <ele>116.4</ele>
        <time>2018-05-09T15:13:47Z</time>
      </trkpt>
      <trkpt lat="50.69303" lon="3.07811">
        <ele>116.8</ele>
        <time>2018-05-09T15:13:51Z</time>
      </trkpt>
      <trkpt lat="50.69284" lon="3.07805">
        <ele>116.4</ele>
        <time>2018-05-09T15:13:55Z</time>
      </trkpt>
      <trkpt lat="50.69265" lon="3.07799">
        <ele>116.4</ele>
        <time>2018-05-09T15:13:59Z</time>
      </trkpt>
      <trkpt lat="50.69246" lon="3.07794">
        <ele>116.4</ele>
        <time>2018-05-09T15:14:03Z</time>
      </trkpt>
      <trkpt lat="50.69227" lon="3.07787">
        <ele>116.4</ele>
        <time>2018-05-09T15:14:07Z</time>
      </trkpt>
      <trkpt lat="50.69208" lon="3.07781">
        <ele>116.4</ele>
        <time>2018-05-09T15:14:11Z</time>
      </trkpt>
      <trkpt lat="50.6919" lon="3.07779">
        <ele>116.8</ele>
        <time>2018-05-09T15:14:15Z</time>
      </trkpt>
      <trkpt lat="50.69171" lon="3.07778">
        <ele>116.6</ele>
        <time>2018-05-09T15:14:19Z</time>
      </trkpt>
      <trkpt lat="50.69151" lon="3.0778">
        <ele>117.2</ele>
        <time>2018-05-09T15:14:23Z</time>
      </trkpt>
      <trkpt lat="50.6913" lon="3.07785">
        <ele>117.2</ele>
        <time>2018-05-09T15:14:27Z</time>
      </trkpt>
      <trkpt lat="50.6911" lon="3.07793">
        <ele>117</ele>
        <time>2018-05-09T15:14:31Z</time>
      </trkpt>
      <trkpt lat="50.69091" lon="3.07805">
        <ele>117.2</ele>
        <time>2018-05-09T15:14:35Z</time>
      </trkpt>
      <trkpt lat="50.69072" lon="3.0782">
        <ele>117</ele>
        <time>2018-05-09T15:14:39Z</time>
      </trkpt>
      <trkpt lat="50.69053" lon="3.07836">
        <ele>117.2</ele>
        <time>2018-05-09T15:14:43Z</time>
      </trkpt>
      <trkpt lat="50.69034" lon="3.07853">
        <ele>117.6</ele>
        <time>2018-05-09T15:14:47Z</time>
      </trkpt>
      <trkpt lat="50.69016" lon="3.0787">
        <ele>117.2</ele>
        <time>2018-05-09T15:14:51Z</time>
      </trkpt>
      <trkpt lat="50.69005" lon="3.07891">
        <ele>117.2</ele>
        <time>2018-05-09T15:14:55Z</time>
      </trkpt>
      <trkpt lat="50.69007" lon="3.07919">
        <ele>117.2</ele>
        <time>2018-05-09T15:14:59Z</time>
      </trkpt>
      <trkpt lat="50.69011" lon="3.07946">
        <ele>117</ele>
        <time>2018-05-09T15:15:03Z</time>
      </trkpt>
      <trkpt lat="50.69012" lon="3.07966">
        <ele>116.8</ele>
        <time>2018-05-09T15:15:07Z</time>
      </trkpt>
      <trkpt lat="50.69005" lon="3.07988">
        <ele>117.2</ele>
        <time>2018-05-09T15:15:11Z</time>
      </trkpt>
      <trkpt lat="50.69011" lon="3.08007">
        <ele>117.6</ele>
        <time>2018-05-09T15:15:15Z</time>
      </trkpt>
      <trkpt lat="50.69021" lon="3.08019">
        <ele>118.2</ele>
        <time>2018-05-09T15:15:19Z</time>
      </trkpt>
      <trkpt lat="50.69028" lon="3.08035">
        <ele>118.4</ele>
        <time>2018-05-09T15:15:23Z</time>
      </trkpt>
      <trkpt lat="50.69031" lon="3.08056">
        <ele>119</ele>
        <time>2018-05-09T15:15:27Z</time>
      </trkpt>
      <trkpt lat="50.69033" lon="3.08076">
        <ele>119.2</ele>
        <time>2018-05-09T15:15:31Z</time>
      </trkpt>
      <trkpt lat="50.69035" lon="3.08096">
        <ele>120.6</ele>
        <time>2018-05-09T15:15:35Z</time>
      </trkpt>
      <trkpt lat="50.69038" lon="3.08116">
        <ele>121</ele>
        <time>2018-05-09T15:15:39Z</time>
      </trkpt>
      <trkpt lat="50.6904" lon="3.08135">
        <ele>121</ele>
        <time>2018-05-09T15:15:43Z</time>
      </trkpt>
      <trkpt lat="50.69043" lon="3.08154">
        <ele>121.2</ele>
        <time>2018-05-09T15:15:47Z</time>
      </trkpt>
      <trkpt lat="50.69045" lon="3.08174">
        <ele>122.2</ele>
        <time>2018-05-09T15:15:51Z</time>
      </trkpt>
      <trkpt lat="50.69047" lon="3.08194">
        <ele>122.8</ele>
        <time>2018-05-09T15:15:55Z</time>
      </trkpt>
      <trkpt lat="50.69046" lon="3.08215">
        <ele>123.2</ele>
        <time>2018-05-09T15:15:59Z</time>
      </trkpt>
      <trkpt lat="50.69045" lon="3.08235">
        <ele>124</ele>
        <time>2018-05-09T15:16:03Z</time>
      </trkpt>
      <trkpt lat="50.69041" lon="3.08253">
        <ele>124.4</ele>
        <time>2018-05-09T15:16:07Z</time>
      </trkpt>
      <trkpt lat="50.69038" lon="3.0827">
        <ele>124.4</ele>
        <time>2018-05-09T15:16:11Z</time>
      </trkpt>
      <trkpt lat="50.69029" lon="3.08281">
        <ele>124.8</ele>
        <time>2018-05-09T15:16:15Z</time>
      </trkpt>
      <trkpt lat="50.69016" lon="3.08287">
        <ele>124.6</ele>
        <time>2018-05-09T15:16:19Z</time>
      </trkpt>
      <trkpt lat="50.69003" lon="3.08292">
        <ele>124.4</ele>
        <time>2018-05-09T15:16:23Z</time>
      </trkpt>
      <trkpt lat="50.6899" lon="3.08297">
        <ele>124.4</ele>
        <time>2018-05-09T15:16:27Z</time>
      </trkpt>
      <trkpt lat="50.68975" lon="3.08302">
        <ele>124.2</ele>
        <time>2018-05-09T15:16:31Z</time>
      </trkpt>
      <trkpt lat="50.68961" lon="3.08307">
        <ele>124.6</ele>
        <time>2018-05-09T15:16:35Z</time>
      </trkpt>
      <trkpt lat="50.68947" lon="3.08312">
        <ele>123.8</ele>
        <time>2018-05-09T15:16:39Z</time>
      </trkpt>
      <trkpt lat="50.68933" lon="3.08317">
        <ele>124.4</ele>
        <time>2018-05-09T15:16:43Z</time>
      </trkpt>
      <trkpt lat="50.68919" lon="3.08323">
        <ele>124.4</ele>
        <time>2018-05-09T15:16:47Z</time>
      </trkpt>
      <trkpt lat="50.68907" lon="3.08333">
        <ele>124</ele>
        <time>2018-05-09T15:16:51Z</time>
      </trkpt>
      <trkpt lat="50.68897" lon="3.08348">
        <ele>124</ele>
        <time>2018-05-09T15:16:55Z</time>
      </trkpt>
      <trkpt lat="50.68886" lon="3.08364">
        <ele>124</ele>
        <time>2018-05-09T15:16:59Z</time>
      </trkpt>
      <trkpt lat="50.68875" lon="3.08381">
        <ele>124</ele>
        <time>2018-05-09T15:17:03Z</time>
      </trkpt>
      <trkpt lat="50.68864" lon="3.08398">
        <ele>123.8</ele>
        <time>2018-05-09T15:17:07Z</time>
      </trkpt>
      <trkpt lat="50.68854" lon="3.08414">
        <ele>123.2</ele>
        <time>2018-05-09T15:17:11Z</time>
      </trkpt>
      <trkpt lat="50.68843" lon="3.0843">
        <ele>123.4</ele>
        <time>2018-05-09T15:17:15Z</time>
      </trkpt>
      <trkpt lat="50.68834" lon="3.08443">
        <ele>123.4</ele>
        <time>2018-05-09T15:17:19Z</time>
      </trkpt>
      <trkpt lat="50.68833" lon="3.08445">
        <ele>124</ele>
        <time>2018-05-09T15:17:23Z</time>
      </trkpt>
      <trkpt lat="50.68832" lon="3.08447">
        <ele>124.2</ele>
        <time>2018-05-09T15:17:27Z</time>
      </trkpt>
      <trkpt lat="50.68831" lon="3.08447">
        <ele>123.4</ele>
        <time>2018-05-09T15:17:43Z</time>
      </trkpt>
      <trkpt lat="50.68829" lon="3.08447">
        <ele>123.6</ele>
        <time>2018-05-09T15:17:47Z</time>
      </trkpt>
      <trkpt lat="50.68828" lon="3.08448">
        <ele>123.8</ele>
        <time>2018-05-09T15:18:07Z</time>
      </trkpt>
      <trkpt lat="50.68826" lon="3.08452">
        <ele>123.8</ele>
        <time>2018-05-09T15:18:19Z</time>
      </trkpt>
      <trkpt lat="50.6882" lon="3.0846">
        <ele>123.8</ele>
        <time>2018-05-09T15:18:23Z</time>
      </trkpt>
      <trkpt lat="50.68814" lon="3.08471">
        <ele>123.2</ele>
        <time>2018-05-09T15:18:27Z</time>
      </trkpt>
      <trkpt lat="50.68806" lon="3.08485">
        <ele>123.4</ele>
        <time>2018-05-09T15:18:31Z</time>
      </trkpt>
      <trkpt lat="50.688" lon="3.085">
        <ele>123.8</ele>
        <time>2018-05-09T15:18:35Z</time>
      </trkpt>
      <trkpt lat="50.68791" lon="3.08511">
        <ele>123.2</ele>
        <time>2018-05-09T15:18:39Z</time>
      </trkpt>
      <trkpt lat="50.68781" lon="3.08523">
        <ele>123</ele>
        <time>2018-05-09T15:18:43Z</time>
      </trkpt>
      <trkpt lat="50.68771" lon="3.08534">
        <ele>122.4</ele>
        <time>2018-05-09T15:18:47Z</time>
      </trkpt>
      <trkpt lat="50.68758" lon="3.08542">
        <ele>122.2</ele>
        <time>2018-05-09T15:18:51Z</time>
      </trkpt>
      <trkpt lat="50.68751" lon="3.08561">
        <ele>122.2</ele>
        <time>2018-05-09T15:18:55Z</time>
      </trkpt>
      <trkpt lat="50.6875" lon="3.08581">
        <ele>122.8</ele>
        <time>2018-05-09T15:18:59Z</time>
      </trkpt>
      <trkpt lat="50.68745" lon="3.08591">
        <ele>121.8</ele>
        <time>2018-05-09T15:19:03Z</time>
      </trkpt>
      <trkpt lat="50.6874" lon="3.08595">
        <ele>122.4</ele>
        <time>2018-05-09T15:19:35Z</time>
      </trkpt>
      <trkpt lat="50.6874" lon="3.08607">
        <ele>122.4</ele>
        <time>2018-05-09T15:19:39Z</time>
      </trkpt>
      <trkpt lat="50.68741" lon="3.08625">
        <ele>122.4</ele>
        <time>2018-05-09T15:19:43Z</time>
      </trkpt>
      <trkpt lat="50.68738" lon="3.08633">
        <ele>122.6</ele>
        <time>2018-05-09T15:19:47Z</time>
      </trkpt>
      <trkpt lat="50.68737" lon="3.08636">
        <ele>122.4</ele>
        <time>2018-05-09T15:19:51Z</time>
      </trkpt>
      <trkpt lat="50.68732" lon="3.08648">
        <ele>122.4</ele>
        <time>2018-05-09T15:19:55Z</time>
      </trkpt>
      <trkpt lat="50.68736" lon="3.08667">
        <ele>122.8</ele>
        <time>2018-05-09T15:19:59Z</time>
      </trkpt>
      <trkpt lat="50.68737" lon="3.08685">
        <ele>123.2</ele>
        <time>2018-05-09T15:20:03Z</time>
      </trkpt>
      <trkpt lat="50.68737" lon="3.08705">
        <ele>123.2</ele>
        <time>2018-05-09T15:20:07Z</time>
      </trkpt>
      <trkpt lat="50.68737" lon="3.08728">
        <ele>123.4</ele>
        <time>2018-05-09T15:20:11Z</time>
      </trkpt>
      <trkpt lat="50.68737" lon="3.08751">
        <ele>123.4</ele>
        <time>2018-05-09T15:20:15Z</time>
      </trkpt>
      <trkpt lat="50.68737" lon="3.08775">
        <ele>123.8</ele>
        <time>2018-05-09T15:20:19Z</time>
      </trkpt>
      <trkpt lat="50.68736" lon="3.08799">
        <ele>123.8</ele>
        <time>2018-05-09T15:20:23Z</time>
      </trkpt>
      <trkpt lat="50.68735" lon="3.08824">
        <ele>123.8</ele>
        <time>2018-05-09T15:20:27Z</time>
      </trkpt>
      <trkpt lat="50.68734" lon="3.08849">
        <ele>123.6</ele>
        <time>2018-05-09T15:20:31Z</time>
      </trkpt>
      <trkpt lat="50.68733" lon="3.08874">
        <ele>123.6</ele>
        <time>2018-05-09T15:20:35Z</time>
      </trkpt>
      <trkpt lat="50.68732" lon="3.08899">
        <ele>123.4</ele>
        <time>2018-05-09T15:20:39Z</time>
      </trkpt>
      <trkpt lat="50.6873" lon="3.08924">
        <ele>123.4</ele>
        <time>2018-05-09T15:20:43Z</time>
      </trkpt>
      <trkpt lat="50.6873" lon="3.08949">
        <ele>123.4</ele>
        <time>2018-05-09T15:20:47Z</time>
      </trkpt>
      <trkpt lat="50.68729" lon="3.08973">
        <ele>123.2</ele>
        <time>2018-05-09T15:20:51Z</time>
      </trkpt>
      <trkpt lat="50.68727" lon="3.09">
        <ele>123.2</ele>
        <time>2018-05-09T15:20:55Z</time>
      </trkpt>
      <trkpt lat="50.68723" lon="3.09026">
        <ele>122.8</ele>
        <time>2018-05-09T15:20:59Z</time>
      </trkpt>
      <trkpt lat="50.68714" lon="3.09051">
        <ele>122.8</ele>
        <time>2018-05-09T15:21:03Z</time>
      </trkpt>
      <trkpt lat="50.68703" lon="3.09074">
        <ele>122.4</ele>
        <time>2018-05-09T15:21:07Z</time>
      </trkpt>
      <trkpt lat="50.68687" lon="3.09084">
        <ele>122.8</ele>
        <time>2018-05-09T15:21:11Z</time>
      </trkpt>
      <trkpt lat="50.6867" lon="3.0909">
        <ele>122.6</ele>
        <time>2018-05-09T15:21:15Z</time>
      </trkpt>
      <trkpt lat="50.68652" lon="3.09096">
        <ele>122.2</ele>
        <time>2018-05-09T15:21:19Z</time>
      </trkpt>
      <trkpt lat="50.68634" lon="3.09101">
        <ele>121.6</ele>
        <time>2018-05-09T15:21:23Z</time>
      </trkpt>
      <trkpt lat="50.68615" lon="3.09106">
        <ele>121.2</ele>
        <time>2018-05-09T15:21:27Z</time>
      </trkpt>
      <trkpt lat="50.68604" lon="3.09096">
        <ele>121</ele>
        <time>2018-05-09T15:21:31Z</time>
      </trkpt>
      <trkpt lat="50.68595" lon="3.091">
        <ele>120.8</ele>
        <time>2018-05-09T15:21:35Z</time>
      </trkpt>
      <trkpt lat="50.68584" lon="3.09116">
        <ele>120.8</ele>
        <time>2018-05-09T15:21:39Z</time>
      </trkpt>
      <trkpt lat="50.68568" lon="3.09122">
        <ele>120.8</ele>
        <time>2018-05-09T15:21:43Z</time>
      </trkpt>
      <trkpt lat="50.68549" lon="3.09128">
        <ele>120.2</ele>
        <time>2018-05-09T15:21:47Z</time>
      </trkpt>
      <trkpt lat="50.68537" lon="3.09137">
        <ele>120</ele>
        <time>2018-05-09T15:21:51Z</time>
      </trkpt>
      <trkpt lat="50.68528" lon="3.09153">
        <ele>120</ele>
        <time>2018-05-09T15:21:55Z</time>
      </trkpt>
      <trkpt lat="50.68523" lon="3.09174">
        <ele>119.4</ele>
        <time>2018-05-09T15:21:59Z</time>
      </trkpt>
      <trkpt lat="50.68513" lon="3.09196">
        <ele>119</ele>
        <time>2018-05-09T15:22:03Z</time>
      </trkpt>
      <trkpt lat="50.68498" lon="3.09214">
        <ele>118.8</ele>
        <time>2018-05-09T15:22:07Z</time>
      </trkpt>
      <trkpt lat="50.68476" lon="3.0922">
        <ele>117.8</ele>
        <time>2018-05-09T15:22:11Z</time>
      </trkpt>
      <trkpt lat="50.68455" lon="3.09214">
        <ele>116.8</ele>
        <time>2018-05-09T15:22:15Z</time>
      </trkpt>
      <trkpt lat="50.68437" lon="3.09206">
        <ele>116.8</ele>
        <time>2018-05-09T15:22:19Z</time>
      </trkpt>
      <trkpt lat="50.68421" lon="3.09192">
        <ele>117.8</ele>
        <time>2018-05-09T15:22:23Z</time>
      </trkpt>
      <trkpt lat="50.6841" lon="3.09166">
        <ele>117.6</ele>
        <time>2018-05-09T15:22:27Z</time>
      </trkpt>
      <trkpt lat="50.68401" lon="3.09147">
        <ele>117.8</ele>
        <time>2018-05-09T15:22:31Z</time>
      </trkpt>
      <trkpt lat="50.68391" lon="3.09132">
        <ele>116.8</ele>
        <time>2018-05-09T15:22:35Z</time>
      </trkpt>
      <trkpt lat="50.68381" lon="3.09118">
        <ele>117.2</ele>
        <time>2018-05-09T15:22:39Z</time>
      </trkpt>
      <trkpt lat="50.68374" lon="3.09103">
        <ele>117.2</ele>
        <time>2018-05-09T15:22:43Z</time>
      </trkpt>
      <trkpt lat="50.68361" lon="3.09093">
        <ele>116.8</ele>
        <time>2018-05-09T15:22:47Z</time>
      </trkpt>
      <trkpt lat="50.68347" lon="3.09082">
        <ele>117.2</ele>
        <time>2018-05-09T15:22:51Z</time>
      </trkpt>
      <trkpt lat="50.68333" lon="3.09072">
        <ele>117</ele>
        <time>2018-05-09T15:22:55Z</time>
      </trkpt>
      <trkpt lat="50.68319" lon="3.09067">
        <ele>116.6</ele>
        <time>2018-05-09T15:22:59Z</time>
      </trkpt>
      <trkpt lat="50.68303" lon="3.0906">
        <ele>116.4</ele>
        <time>2018-05-09T15:23:03Z</time>
      </trkpt>
      <trkpt lat="50.68287" lon="3.09055">
        <ele>116.4</ele>
        <time>2018-05-09T15:23:07Z</time>
      </trkpt>
      <trkpt lat="50.68271" lon="3.09048">
        <ele>115.8</ele>
        <time>2018-05-09T15:23:11Z</time>
      </trkpt>
      <trkpt lat="50.68253" lon="3.09042">
        <ele>115.8</ele>
        <time>2018-05-09T15:23:15Z</time>
      </trkpt>
      <trkpt lat="50.68237" lon="3.09035">
        <ele>115.8</ele>
        <time>2018-05-09T15:23:19Z</time>
      </trkpt>
      <trkpt lat="50.6822" lon="3.09029">
        <ele>115.4</ele>
        <time>2018-05-09T15:23:23Z</time>
      </trkpt>
      <trkpt lat="50.68202" lon="3.09025">
        <ele>115.8</ele>
        <time>2018-05-09T15:23:27Z</time>
      </trkpt>
      <trkpt lat="50.68184" lon="3.09021">
        <ele>115.6</ele>
        <time>2018-05-09T15:23:31Z</time>
      </trkpt>
      <trkpt lat="50.68168" lon="3.09018">
        <ele>115.6</ele>
        <time>2018-05-09T15:23:35Z</time>
      </trkpt>
      <trkpt lat="50.68153" lon="3.09016">
        <ele>115.6</ele>
        <time>2018-05-09T15:23:39Z</time>
      </trkpt>
      <trkpt lat="50.68137" lon="3.09016">
        <ele>116.4</ele>
        <time>2018-05-09T15:23:43Z</time>
      </trkpt>
      <trkpt lat="50.68121" lon="3.09016">
        <ele>116.2</ele>
        <time>2018-05-09T15:23:47Z</time>
      </trkpt>
      <trkpt lat="50.68105" lon="3.09016">
        <ele>116.6</ele>
        <time>2018-05-09T15:23:51Z</time>
      </trkpt>
      <trkpt lat="50.68089" lon="3.09017">
        <ele>116.6</ele>
        <time>2018-05-09T15:23:55Z</time>
      </trkpt>
      <trkpt lat="50.68074" lon="3.09018">
        <ele>117.2</ele>
        <time>2018-05-09T15:23:59Z</time>
      </trkpt>
      <trkpt lat="50.68059" lon="3.09016">
        <ele>117.2</ele>
        <time>2018-05-09T15:24:03Z</time>
      </trkpt>
      <trkpt lat="50.68045" lon="3.09022">
        <ele>117.4</ele>
        <time>2018-05-09T15:24:07Z</time>
      </trkpt>
      <trkpt lat="50.68028" lon="3.09024">
        <ele>116.6</ele>
        <time>2018-05-09T15:24:11Z</time>
      </trkpt>
      <trkpt lat="50.68011" lon="3.09027">
        <ele>116.4</ele>
        <time>2018-05-09T15:24:15Z</time>
      </trkpt>
      <trkpt lat="50.67995" lon="3.09029">
        <ele>116.6</ele>
        <time>2018-05-09T15:24:19Z</time>
      </trkpt>
      <trkpt lat="50.67979" lon="3.0903">
        <ele>117.8</ele>
        <time>2018-05-09T15:24:23Z</time>
      </trkpt>
      <trkpt lat="50.67963" lon="3.09032">
        <ele>117</ele>
        <time>2018-05-09T15:24:27Z</time>
      </trkpt>
      <trkpt lat="50.67947" lon="3.09034">
        <ele>117.2</ele>
        <time>2018-05-09T15:24:31Z</time>
      </trkpt>
      <trkpt lat="50.67932" lon="3.09038">
        <ele>117.2</ele>
        <time>2018-05-09T15:24:35Z</time>
      </trkpt>
      <trkpt lat="50.67916" lon="3.09044">
        <ele>117</ele>
        <time>2018-05-09T15:24:39Z</time>
      </trkpt>
      <trkpt lat="50.679" lon="3.0905">
        <ele>117</ele>
        <time>2018-05-09T15:24:43Z</time>
      </trkpt>
      <trkpt lat="50.67884" lon="3.09055">
        <ele>117</ele>
        <time>2018-05-09T15:24:47Z</time>
      </trkpt>
      <trkpt lat="50.67868" lon="3.09061">
        <ele>117.8</ele>
        <time>2018-05-09T15:24:51Z</time>
      </trkpt>
      <trkpt lat="50.67852" lon="3.09066">
        <ele>117.2</ele>
        <time>2018-05-09T15:24:55Z</time>
      </trkpt>
      <trkpt lat="50.67836" lon="3.09073">
        <ele>117.4</ele>
        <time>2018-05-09T15:24:59Z</time>
      </trkpt>
      <trkpt lat="50.6782" lon="3.0908">
        <ele>117.2</ele>
        <time>2018-05-09T15:25:03Z</time>
      </trkpt>
      <trkpt lat="50.67805" lon="3.09087">
        <ele>116.6</ele>
        <time>2018-05-09T15:25:07Z</time>
      </trkpt>
      <trkpt lat="50.67794" lon="3.0909">
        <ele>116.8</ele>
        <time>2018-05-09T15:25:11Z</time>
      </trkpt>
      <trkpt lat="50.67779" lon="3.09094">
        <ele>117</ele>
        <time>2018-05-09T15:25:15Z</time>
      </trkpt>
      <trkpt lat="50.6776" lon="3.09099">
        <ele>117.2</ele>
        <time>2018-05-09T15:25:19Z</time>
      </trkpt>
      <trkpt lat="50.67743" lon="3.09105">
        <ele>117.2</ele>
        <time>2018-05-09T15:25:23Z</time>
      </trkpt>
      <trkpt lat="50.67726" lon="3.09119">
        <ele>117.2</ele>
        <time>2018-05-09T15:25:27Z</time>
      </trkpt>
      <trkpt lat="50.67709" lon="3.09135">
        <ele>117.2</ele>
        <time>2018-05-09T15:25:31Z</time>
      </trkpt>
      <trkpt lat="50.6769" lon="3.0914">
        <ele>117.4</ele>
        <time>2018-05-09T15:25:35Z</time>
      </trkpt>
      <trkpt lat="50.67673" lon="3.0915">
        <ele>117.4</ele>
        <time>2018-05-09T15:25:39Z</time>
      </trkpt>
      <trkpt lat="50.67658" lon="3.09166">
        <ele>117</ele>
        <time>2018-05-09T15:25:43Z</time>
      </trkpt>
      <trkpt lat="50.67644" lon="3.09182">
        <ele>117.2</ele>
        <time>2018-05-09T15:25:47Z</time>
      </trkpt>
      <trkpt lat="50.6763" lon="3.09198">
        <ele>117.6</ele>
        <time>2018-05-09T15:25:51Z</time>
      </trkpt>
      <trkpt lat="50.67616" lon="3.09214">
        <ele>118</ele>
        <time>2018-05-09T15:25:55Z</time>
      </trkpt>
      <trkpt lat="50.67605" lon="3.09229">
        <ele>119</ele>
        <time>2018-05-09T15:25:59Z</time>
      </trkpt>
      <trkpt lat="50.67592" lon="3.09243">
        <ele>119.2</ele>
        <time>2018-05-09T15:26:03Z</time>
      </trkpt>
      <trkpt lat="50.6758" lon="3.09258">
        <ele>119.6</ele>
        <time>2018-05-09T15:26:07Z</time>
      </trkpt>
      <trkpt lat="50.67566" lon="3.09272">
        <ele>120.2</ele>
        <time>2018-05-09T15:26:11Z</time>
      </trkpt>
      <trkpt lat="50.67553" lon="3.09287">
        <ele>120.2</ele>
        <time>2018-05-09T15:26:15Z</time>
      </trkpt>
      <trkpt lat="50.67539" lon="3.09302">
        <ele>120.4</ele>
        <time>2018-05-09T15:26:19Z</time>
      </trkpt>
      <trkpt lat="50.67525" lon="3.09317">
        <ele>119.6</ele>
        <time>2018-05-09T15:26:23Z</time>
      </trkpt>
      <trkpt lat="50.67511" lon="3.09334">
        <ele>119.2</ele>
        <time>2018-05-09T15:26:27Z</time>
      </trkpt>
      <trkpt lat="50.67494" lon="3.09354">
        <ele>118.4</ele>
        <time>2018-05-09T15:26:31Z</time>
      </trkpt>
      <trkpt lat="50.67477" lon="3.09373">
        <ele>118.2</ele>
        <time>2018-05-09T15:26:35Z</time>
      </trkpt>
      <trkpt lat="50.67459" lon="3.09392">
        <ele>117.4</ele>
        <time>2018-05-09T15:26:39Z</time>
      </trkpt>
      <trkpt lat="50.67444" lon="3.09411">
        <ele>117.2</ele>
        <time>2018-05-09T15:26:43Z</time>
      </trkpt>
      <trkpt lat="50.67433" lon="3.09426">
        <ele>116.4</ele>
        <time>2018-05-09T15:26:47Z</time>
      </trkpt>
      <trkpt lat="50.67421" lon="3.09442">
        <ele>116.2</ele>
        <time>2018-05-09T15:26:51Z</time>
      </trkpt>
      <trkpt lat="50.67404" lon="3.09461">
        <ele>116.4</ele>
        <time>2018-05-09T15:26:55Z</time>
      </trkpt>
      <trkpt lat="50.67385" lon="3.09481">
        <ele>116.2</ele>
        <time>2018-05-09T15:26:59Z</time>
      </trkpt>
      <trkpt lat="50.67366" lon="3.09503">
        <ele>116.2</ele>
        <time>2018-05-09T15:27:03Z</time>
      </trkpt>
      <trkpt lat="50.67348" lon="3.09522">
        <ele>116.2</ele>
        <time>2018-05-09T15:27:07Z</time>
      </trkpt>
      <trkpt lat="50.67332" lon="3.09541">
        <ele>116.4</ele>
        <time>2018-05-09T15:27:11Z</time>
      </trkpt>
      <trkpt lat="50.67316" lon="3.09558">
        <ele>116.2</ele>
        <time>2018-05-09T15:27:15Z</time>
      </trkpt>
      <trkpt lat="50.67302" lon="3.09576">
        <ele>116.2</ele>
        <time>2018-05-09T15:27:19Z</time>
      </trkpt>
      <trkpt lat="50.67286" lon="3.09595">
        <ele>116.2</ele>
        <time>2018-05-09T15:27:23Z</time>
      </trkpt>
      <trkpt lat="50.67269" lon="3.09614">
        <ele>116.2</ele>
        <time>2018-05-09T15:27:27Z</time>
      </trkpt>
      <trkpt lat="50.67252" lon="3.09633">
        <ele>116.2</ele>
        <time>2018-05-09T15:27:31Z</time>
      </trkpt>
      <trkpt lat="50.67235" lon="3.09651">
        <ele>116.2</ele>
        <time>2018-05-09T15:27:35Z</time>
      </trkpt>
      <trkpt lat="50.67218" lon="3.0967">
        <ele>116.4</ele>
        <time>2018-05-09T15:27:39Z</time>
      </trkpt>
      <trkpt lat="50.67202" lon="3.09691">
        <ele>116.2</ele>
        <time>2018-05-09T15:27:43Z</time>
      </trkpt>
      <trkpt lat="50.67184" lon="3.0971">
        <ele>115.8</ele>
        <time>2018-05-09T15:27:47Z</time>
      </trkpt>
      <trkpt lat="50.67168" lon="3.09731">
        <ele>115.6</ele>
        <time>2018-05-09T15:27:51Z</time>
      </trkpt>
      <trkpt lat="50.6715" lon="3.0975">
        <ele>116</ele>
        <time>2018-05-09T15:27:55Z</time>
      </trkpt>
      <trkpt lat="50.67133" lon="3.09768">
        <ele>115.8</ele>
        <time>2018-05-09T15:27:59Z</time>
      </trkpt>
      <trkpt lat="50.67118" lon="3.09787">
        <ele>115.8</ele>
        <time>2018-05-09T15:28:03Z</time>
      </trkpt>
      <trkpt lat="50.67101" lon="3.09806">
        <ele>116</ele>
        <time>2018-05-09T15:28:07Z</time>
      </trkpt>
      <trkpt lat="50.67085" lon="3.09824">
        <ele>115.8</ele>
        <time>2018-05-09T15:28:11Z</time>
      </trkpt>
      <trkpt lat="50.67068" lon="3.09844">
        <ele>116</ele>
        <time>2018-05-09T15:28:15Z</time>
      </trkpt>
      <trkpt lat="50.67052" lon="3.09863">
        <ele>116.2</ele>
        <time>2018-05-09T15:28:19Z</time>
      </trkpt>
      <trkpt lat="50.67035" lon="3.09883">
        <ele>116.2</ele>
        <time>2018-05-09T15:28:23Z</time>
      </trkpt>
      <trkpt lat="50.67018" lon="3.09902">
        <ele>116.2</ele>
        <time>2018-05-09T15:28:27Z</time>
      </trkpt>
      <trkpt lat="50.67001" lon="3.0992">
        <ele>116</ele>
        <time>2018-05-09T15:28:31Z</time>
      </trkpt>
      <trkpt lat="50.66984" lon="3.0994">
        <ele>116</ele>
        <time>2018-05-09T15:28:35Z</time>
      </trkpt>
      <trkpt lat="50.66968" lon="3.09959">
        <ele>116.4</ele>
        <time>2018-05-09T15:28:39Z</time>
      </trkpt>
      <trkpt lat="50.66952" lon="3.09977">
        <ele>116.2</ele>
        <time>2018-05-09T15:28:43Z</time>
      </trkpt>
      <trkpt lat="50.66935" lon="3.09995">
        <ele>116.6</ele>
        <time>2018-05-09T15:28:47Z</time>
      </trkpt>
      <trkpt lat="50.66918" lon="3.10015">
        <ele>116.6</ele>
        <time>2018-05-09T15:28:51Z</time>
      </trkpt>
      <trkpt lat="50.66902" lon="3.10033">
        <ele>116.2</ele>
        <time>2018-05-09T15:28:55Z</time>
      </trkpt>
      <trkpt lat="50.66886" lon="3.10052">
        <ele>116.6</ele>
        <time>2018-05-09T15:28:59Z</time>
      </trkpt>
      <trkpt lat="50.66869" lon="3.10072">
        <ele>117</ele>
        <time>2018-05-09T15:29:03Z</time>
      </trkpt>
      <trkpt lat="50.66853" lon="3.1009">
        <ele>117.4</ele>
        <time>2018-05-09T15:29:07Z</time>
      </trkpt>
      <trkpt lat="50.66837" lon="3.10107">
        <ele>117.4</ele>
        <time>2018-05-09T15:29:11Z</time>
      </trkpt>
      <trkpt lat="50.6682" lon="3.10125">
        <ele>117.6</ele>
        <time>2018-05-09T15:29:15Z</time>
      </trkpt>
      <trkpt lat="50.66804" lon="3.10144">
        <ele>117.4</ele>
        <time>2018-05-09T15:29:19Z</time>
      </trkpt>
      <trkpt lat="50.66789" lon="3.10163">
        <ele>117.4</ele>
        <time>2018-05-09T15:29:23Z</time>
      </trkpt>
      <trkpt lat="50.66773" lon="3.10183">
        <ele>117.8</ele>
        <time>2018-05-09T15:29:27Z</time>
      </trkpt>
      <trkpt lat="50.66757" lon="3.102">
        <ele>117.8</ele>
        <time>2018-05-09T15:29:31Z</time>
      </trkpt>
      <trkpt lat="50.66741" lon="3.10217">
        <ele>118</ele>
        <time>2018-05-09T15:29:35Z</time>
      </trkpt>
      <trkpt lat="50.66732" lon="3.10241">
        <ele>118</ele>
        <time>2018-05-09T15:29:39Z</time>
      </trkpt>
      <trkpt lat="50.6672" lon="3.10259">
        <ele>117.8</ele>
        <time>2018-05-09T15:29:43Z</time>
      </trkpt>
      <trkpt lat="50.66707" lon="3.1028">
        <ele>117.8</ele>
        <time>2018-05-09T15:29:47Z</time>
      </trkpt>
      <trkpt lat="50.66693" lon="3.10297">
        <ele>117</ele>
        <time>2018-05-09T15:29:51Z</time>
      </trkpt>
      <trkpt lat="50.66682" lon="3.10307">
        <ele>117.4</ele>
        <time>2018-05-09T15:29:55Z</time>
      </trkpt>
      <trkpt lat="50.66672" lon="3.10316">
        <ele>118.2</ele>
        <time>2018-05-09T15:29:59Z</time>
      </trkpt>
      <trkpt lat="50.66664" lon="3.10323">
        <ele>118</ele>
        <time>2018-05-09T15:30:03Z</time>
      </trkpt>
      <trkpt lat="50.66656" lon="3.10329">
        <ele>117.8</ele>
        <time>2018-05-09T15:30:07Z</time>
      </trkpt>
      <trkpt lat="50.66651" lon="3.10339">
        <ele>118.4</ele>
        <time>2018-05-09T15:30:11Z</time>
      </trkpt>
      <trkpt lat="50.66643" lon="3.10346">
        <ele>118.2</ele>
        <time>2018-05-09T15:30:15Z</time>
      </trkpt>
      <trkpt lat="50.66635" lon="3.10353">
        <ele>118.2</ele>
        <time>2018-05-09T15:30:19Z</time>
      </trkpt>
      <trkpt lat="50.66626" lon="3.10351">
        <ele>118</ele>
        <time>2018-05-09T15:30:23Z</time>
      </trkpt>
      <trkpt lat="50.66611" lon="3.10348">
        <ele>117.8</ele>
        <time>2018-05-09T15:30:27Z</time>
      </trkpt>
      <trkpt lat="50.66595" lon="3.10345">
        <ele>118.2</ele>
        <time>2018-05-09T15:30:31Z</time>
      </trkpt>
      <trkpt lat="50.66579" lon="3.10335">
        <ele>118</ele>
        <time>2018-05-09T15:30:35Z</time>
      </trkpt>
      <trkpt lat="50.66564" lon="3.10325">
        <ele>118.2</ele>
        <time>2018-05-09T15:30:39Z</time>
      </trkpt>
      <trkpt lat="50.6655" lon="3.1031">
        <ele>118.2</ele>
        <time>2018-05-09T15:30:43Z</time>
      </trkpt>
      <trkpt lat="50.66538" lon="3.10294">
        <ele>118</ele>
        <time>2018-05-09T15:30:47Z</time>
      </trkpt>
      <trkpt lat="50.66526" lon="3.10277">
        <ele>118.2</ele>
        <time>2018-05-09T15:30:51Z</time>
      </trkpt>
      <trkpt lat="50.66517" lon="3.10258">
        <ele>118.2</ele>
        <time>2018-05-09T15:30:55Z</time>
      </trkpt>
      <trkpt lat="50.66509" lon="3.10241">
        <ele>118.2</ele>
        <time>2018-05-09T15:30:59Z</time>
      </trkpt>
      <trkpt lat="50.66504" lon="3.10232">
        <ele>117.8</ele>
        <time>2018-05-09T15:31:07Z</time>
      </trkpt>
      <trkpt lat="50.665" lon="3.10221">
        <ele>117.8</ele>
        <time>2018-05-09T15:31:11Z</time>
      </trkpt>
      <trkpt lat="50.66496" lon="3.1021">
        <ele>118.2</ele>
        <time>2018-05-09T15:31:15Z</time>
      </trkpt>
      <trkpt lat="50.6649" lon="3.10196">
        <ele>117.8</ele>
        <time>2018-05-09T15:31:19Z</time>
      </trkpt>
      <trkpt lat="50.66484" lon="3.10184">
        <ele>117.8</ele>
        <time>2018-05-09T15:31:23Z</time>
      </trkpt>
      <trkpt lat="50.66476" lon="3.1017">
        <ele>117.8</ele>
        <time>2018-05-09T15:31:27Z</time>
      </trkpt>
      <trkpt lat="50.66469" lon="3.10156">
        <ele>118.4</ele>
        <time>2018-05-09T15:31:31Z</time>
      </trkpt>
      <trkpt lat="50.66461" lon="3.10141">
        <ele>118.6</ele>
        <time>2018-05-09T15:31:35Z</time>
      </trkpt>
      <trkpt lat="50.66454" lon="3.10126">
        <ele>118.2</ele>
        <time>2018-05-09T15:31:39Z</time>
      </trkpt>
      <trkpt lat="50.66447" lon="3.10111">
        <ele>118.2</ele>
        <time>2018-05-09T15:31:43Z</time>
      </trkpt>
      <trkpt lat="50.66439" lon="3.10095">
        <ele>118.4</ele>
        <time>2018-05-09T15:31:47Z</time>
      </trkpt>
      <trkpt lat="50.66431" lon="3.10077">
        <ele>118.4</ele>
        <time>2018-05-09T15:31:51Z</time>
      </trkpt>
      <trkpt lat="50.66422" lon="3.10058">
        <ele>118.2</ele>
        <time>2018-05-09T15:31:55Z</time>
      </trkpt>
      <trkpt lat="50.66413" lon="3.10039">
        <ele>118.2</ele>
        <time>2018-05-09T15:31:59Z</time>
      </trkpt>
      <trkpt lat="50.66404" lon="3.10019">
        <ele>118.2</ele>
        <time>2018-05-09T15:32:03Z</time>
      </trkpt>
      <trkpt lat="50.66395" lon="3.09999">
        <ele>118.4</ele>
        <time>2018-05-09T15:32:07Z</time>
      </trkpt>
      <trkpt lat="50.66385" lon="3.09979">
        <ele>118.4</ele>
        <time>2018-05-09T15:32:11Z</time>
      </trkpt>
      <trkpt lat="50.66376" lon="3.0996">
        <ele>118.6</ele>
        <time>2018-05-09T15:32:15Z</time>
      </trkpt>
      <trkpt lat="50.66368" lon="3.0994">
        <ele>118.8</ele>
        <time>2018-05-09T15:32:19Z</time>
      </trkpt>
      <trkpt lat="50.66358" lon="3.09921">
        <ele>118.8</ele>
        <time>2018-05-09T15:32:23Z</time>
      </trkpt>
      <trkpt lat="50.6635" lon="3.09902">
        <ele>119.2</ele>
        <time>2018-05-09T15:32:27Z</time>
      </trkpt>
      <trkpt lat="50.6634" lon="3.09884">
        <ele>118.8</ele>
        <time>2018-05-09T15:32:31Z</time>
      </trkpt>
      <trkpt lat="50.66331" lon="3.09865">
        <ele>119</ele>
        <time>2018-05-09T15:32:35Z</time>
      </trkpt>
      <trkpt lat="50.66322" lon="3.09845">
        <ele>119</ele>
        <time>2018-05-09T15:32:39Z</time>
      </trkpt>
      <trkpt lat="50.66312" lon="3.09825">
        <ele>118.8</ele>
        <time>2018-05-09T15:32:43Z</time>
      </trkpt>
      <trkpt lat="50.66303" lon="3.09806">
        <ele>119</ele>
        <time>2018-05-09T15:32:47Z</time>
      </trkpt>
      <trkpt lat="50.66294" lon="3.09787">
        <ele>119</ele>
        <time>2018-05-09T15:32:51Z</time>
      </trkpt>
      <trkpt lat="50.66284" lon="3.09768">
        <ele>119.2</ele>
        <time>2018-05-09T15:32:55Z</time>
      </trkpt>
      <trkpt lat="50.66275" lon="3.0975">
        <ele>119.2</ele>
        <time>2018-05-09T15:32:59Z</time>
      </trkpt>
      <trkpt lat="50.66266" lon="3.09731">
        <ele>119.2</ele>
        <time>2018-05-09T15:33:03Z</time>
      </trkpt>
      <trkpt lat="50.66257" lon="3.09712">
        <ele>119.4</ele>
        <time>2018-05-09T15:33:07Z</time>
      </trkpt>
      <trkpt lat="50.66248" lon="3.09694">
        <ele>119.4</ele>
        <time>2018-05-09T15:33:11Z</time>
      </trkpt>
      <trkpt lat="50.66239" lon="3.09675">
        <ele>119</ele>
        <time>2018-05-09T15:33:15Z</time>
      </trkpt>
      <trkpt lat="50.66231" lon="3.0966">
        <ele>119</ele>
        <time>2018-05-09T15:33:19Z</time>
      </trkpt>
      <trkpt lat="50.66226" lon="3.09651">
        <ele>119</ele>
        <time>2018-05-09T15:33:23Z</time>
      </trkpt>
      <trkpt lat="50.66225" lon="3.09649">
        <ele>119</ele>
        <time>2018-05-09T15:34:07Z</time>
      </trkpt>
      <trkpt lat="50.66218" lon="3.09636">
        <ele>119.2</ele>
        <time>2018-05-09T15:34:11Z</time>
      </trkpt>
      <trkpt lat="50.66209" lon="3.0962">
        <ele>119.6</ele>
        <time>2018-05-09T15:34:15Z</time>
      </trkpt>
      <trkpt lat="50.66199" lon="3.09604">
        <ele>119.2</ele>
        <time>2018-05-09T15:34:19Z</time>
      </trkpt>
      <trkpt lat="50.66186" lon="3.09587">
        <ele>119.6</ele>
        <time>2018-05-09T15:34:23Z</time>
      </trkpt>
      <trkpt lat="50.66175" lon="3.09571">
        <ele>119.6</ele>
        <time>2018-05-09T15:34:27Z</time>
      </trkpt>
      <trkpt lat="50.66164" lon="3.09555">
        <ele>119.6</ele>
        <time>2018-05-09T15:34:31Z</time>
      </trkpt>
      <trkpt lat="50.66153" lon="3.09537">
        <ele>119.6</ele>
        <time>2018-05-09T15:34:35Z</time>
      </trkpt>
      <trkpt lat="50.66139" lon="3.09519">
        <ele>120</ele>
        <time>2018-05-09T15:34:39Z</time>
      </trkpt>
      <trkpt lat="50.66126" lon="3.09501">
        <ele>120</ele>
        <time>2018-05-09T15:34:43Z</time>
      </trkpt>
      <trkpt lat="50.66113" lon="3.09482">
        <ele>120</ele>
        <time>2018-05-09T15:34:47Z</time>
      </trkpt>
      <trkpt lat="50.66101" lon="3.09465">
        <ele>120.2</ele>
        <time>2018-05-09T15:34:51Z</time>
      </trkpt>
      <trkpt lat="50.66089" lon="3.09447">
        <ele>120.4</ele>
        <time>2018-05-09T15:34:55Z</time>
      </trkpt>
      <trkpt lat="50.66077" lon="3.09431">
        <ele>120.4</ele>
        <time>2018-05-09T15:34:59Z</time>
      </trkpt>
      <trkpt lat="50.66066" lon="3.09414">
        <ele>120.2</ele>
        <time>2018-05-09T15:35:03Z</time>
      </trkpt>
      <trkpt lat="50.66059" lon="3.09402">
        <ele>120.2</ele>
        <time>2018-05-09T15:35:07Z</time>
      </trkpt>
      <trkpt lat="50.66057" lon="3.09399">
        <ele>120.4</ele>
        <time>2018-05-09T15:35:43Z</time>
      </trkpt>
      <trkpt lat="50.66051" lon="3.0939">
        <ele>120.8</ele>
        <time>2018-05-09T15:35:47Z</time>
      </trkpt>
      <trkpt lat="50.6604" lon="3.09376">
        <ele>120.8</ele>
        <time>2018-05-09T15:35:51Z</time>
      </trkpt>
      <trkpt lat="50.66031" lon="3.09363">
        <ele>120.8</ele>
        <time>2018-05-09T15:35:55Z</time>
      </trkpt>
      <trkpt lat="50.66019" lon="3.09345">
        <ele>120.8</ele>
        <time>2018-05-09T15:35:59Z</time>
      </trkpt>
      <trkpt lat="50.66006" lon="3.09328">
        <ele>121.2</ele>
        <time>2018-05-09T15:36:03Z</time>
      </trkpt>
      <trkpt lat="50.65995" lon="3.09311">
        <ele>121</ele>
        <time>2018-05-09T15:36:07Z</time>
      </trkpt>
      <trkpt lat="50.65983" lon="3.09295">
        <ele>121.4</ele>
        <time>2018-05-09T15:36:11Z</time>
      </trkpt>
      <trkpt lat="50.65972" lon="3.09277">
        <ele>121.6</ele>
        <time>2018-05-09T15:36:15Z</time>
      </trkpt>
      <trkpt lat="50.65959" lon="3.09258">
        <ele>121.4</ele>
        <time>2018-05-09T15:36:19Z</time>
      </trkpt>
      <trkpt lat="50.65946" lon="3.09241">
        <ele>121.8</ele>
        <time>2018-05-09T15:36:23Z</time>
      </trkpt>
      <trkpt lat="50.65933" lon="3.09222">
        <ele>122.2</ele>
        <time>2018-05-09T15:36:27Z</time>
      </trkpt>
      <trkpt lat="50.65919" lon="3.09203">
        <ele>122</ele>
        <time>2018-05-09T15:36:31Z</time>
      </trkpt>
      <trkpt lat="50.65906" lon="3.09184">
        <ele>121.8</ele>
        <time>2018-05-09T15:36:35Z</time>
      </trkpt>
      <trkpt lat="50.65893" lon="3.09164">
        <ele>121.8</ele>
        <time>2018-05-09T15:36:39Z</time>
      </trkpt>
      <trkpt lat="50.6588" lon="3.09145">
        <ele>121.8</ele>
        <time>2018-05-09T15:36:43Z</time>
      </trkpt>
      <trkpt lat="50.65867" lon="3.09126">
        <ele>122.2</ele>
        <time>2018-05-09T15:36:47Z</time>
      </trkpt>
      <trkpt lat="50.65855" lon="3.09106">
        <ele>122.4</ele>
        <time>2018-05-09T15:36:51Z</time>
      </trkpt>
      <trkpt lat="50.65843" lon="3.09088">
        <ele>122.2</ele>
        <time>2018-05-09T15:36:55Z</time>
      </trkpt>
      <trkpt lat="50.65832" lon="3.09071">
        <ele>122.2</ele>
        <time>2018-05-09T15:36:59Z</time>
      </trkpt>
      <trkpt lat="50.6582" lon="3.09056">
        <ele>122</ele>
        <time>2018-05-09T15:37:03Z</time>
      </trkpt>
      <trkpt lat="50.65807" lon="3.09039">
        <ele>122.4</ele>
        <time>2018-05-09T15:37:07Z</time>
      </trkpt>
      <trkpt lat="50.65795" lon="3.0902">
        <ele>122.8</ele>
        <time>2018-05-09T15:37:11Z</time>
      </trkpt>
      <trkpt lat="50.65783" lon="3.09003">
        <ele>123.2</ele>
        <time>2018-05-09T15:37:15Z</time>
      </trkpt>
      <trkpt lat="50.6577" lon="3.08987">
        <ele>123</ele>
        <time>2018-05-09T15:37:19Z</time>
      </trkpt>
      <trkpt lat="50.65759" lon="3.08972">
        <ele>124.4</ele>
        <time>2018-05-09T15:37:23Z</time>
      </trkpt>
      <trkpt lat="50.65747" lon="3.08955">
        <ele>125</ele>
        <time>2018-05-09T15:37:27Z</time>
      </trkpt>
      <trkpt lat="50.65739" lon="3.08943">
        <ele>124.8</ele>
        <time>2018-05-09T15:37:31Z</time>
      </trkpt>
      <trkpt lat="50.65726" lon="3.08926">
        <ele>125</ele>
        <time>2018-05-09T15:37:35Z</time>
      </trkpt>
      <trkpt lat="50.65714" lon="3.08914">
        <ele>125.8</ele>
        <time>2018-05-09T15:37:39Z</time>
      </trkpt>
      <trkpt lat="50.657" lon="3.08895">
        <ele>126</ele>
        <time>2018-05-09T15:37:43Z</time>
      </trkpt>
      <trkpt lat="50.6569" lon="3.08878">
        <ele>126.2</ele>
        <time>2018-05-09T15:37:47Z</time>
      </trkpt>
      <trkpt lat="50.65683" lon="3.08863">
        <ele>126</ele>
        <time>2018-05-09T15:37:51Z</time>
      </trkpt>
      <trkpt lat="50.65677" lon="3.08859">
        <ele>126.2</ele>
        <time>2018-05-09T15:39:11Z</time>
      </trkpt>
      <trkpt lat="50.65669" lon="3.08848">
        <ele>126.8</ele>
        <time>2018-05-09T15:39:15Z</time>
      </trkpt>
      <trkpt lat="50.65659" lon="3.08834">
        <ele>126.8</ele>
        <time>2018-05-09T15:39:19Z</time>
      </trkpt>
      <trkpt lat="50.6565" lon="3.08821">
        <ele>127.2</ele>
        <time>2018-05-09T15:39:23Z</time>
      </trkpt>
      <trkpt lat="50.6564" lon="3.08804">
        <ele>127.4</ele>
        <time>2018-05-09T15:39:27Z</time>
      </trkpt>
      <trkpt lat="50.65631" lon="3.08787">
        <ele>127.8</ele>
        <time>2018-05-09T15:39:31Z</time>
      </trkpt>
      <trkpt lat="50.6562" lon="3.08771">
        <ele>128</ele>
        <time>2018-05-09T15:39:35Z</time>
      </trkpt>
      <trkpt lat="50.65609" lon="3.08755">
        <ele>128.4</ele>
        <time>2018-05-09T15:39:39Z</time>
      </trkpt>
      <trkpt lat="50.65598" lon="3.08738">
        <ele>128.8</ele>
        <time>2018-05-09T15:39:43Z</time>
      </trkpt>
      <trkpt lat="50.65586" lon="3.08722">
        <ele>129</ele>
        <time>2018-05-09T15:39:47Z</time>
      </trkpt>
      <trkpt lat="50.65574" lon="3.08706">
        <ele>129.6</ele>
        <time>2018-05-09T15:39:51Z</time>
      </trkpt>
      <trkpt lat="50.65563" lon="3.08689">
        <ele>129.4</ele>
        <time>2018-05-09T15:39:55Z</time>
      </trkpt>
      <trkpt lat="50.65551" lon="3.08672">
        <ele>130</ele>
        <time>2018-05-09T15:39:59Z</time>
      </trkpt>
      <trkpt lat="50.65541" lon="3.08656">
        <ele>129.8</ele>
        <time>2018-05-09T15:40:03Z</time>
      </trkpt>
      <trkpt lat="50.65531" lon="3.08639">
        <ele>130.4</ele>
        <time>2018-05-09T15:40:07Z</time>
      </trkpt>
      <trkpt lat="50.6552" lon="3.08621">
        <ele>130.8</ele>
        <time>2018-05-09T15:40:11Z</time>
      </trkpt>
      <trkpt lat="50.65507" lon="3.08604">
        <ele>131</ele>
        <time>2018-05-09T15:40:15Z</time>
      </trkpt>
      <trkpt lat="50.65495" lon="3.08586">
        <ele>131.2</ele>
        <time>2018-05-09T15:40:19Z</time>
      </trkpt>
      <trkpt lat="50.65483" lon="3.08568">
        <ele>131.4</ele>
        <time>2018-05-09T15:40:23Z</time>
      </trkpt>
      <trkpt lat="50.65471" lon="3.08551">
        <ele>131.2</ele>
        <time>2018-05-09T15:40:27Z</time>
      </trkpt>
      <trkpt lat="50.65459" lon="3.08535">
        <ele>131.8</ele>
        <time>2018-05-09T15:40:31Z</time>
      </trkpt>
      <trkpt lat="50.65448" lon="3.08517">
        <ele>131.8</ele>
        <time>2018-05-09T15:40:35Z</time>
      </trkpt>
      <trkpt lat="50.65437" lon="3.085">
        <ele>132</ele>
        <time>2018-05-09T15:40:39Z</time>
      </trkpt>
      <trkpt lat="50.65424" lon="3.08484">
        <ele>132.6</ele>
        <time>2018-05-09T15:40:43Z</time>
      </trkpt>
      <trkpt lat="50.65413" lon="3.08467">
        <ele>132.8</ele>
        <time>2018-05-09T15:40:47Z</time>
      </trkpt>
      <trkpt lat="50.65401" lon="3.08449">
        <ele>132.8</ele>
        <time>2018-05-09T15:40:51Z</time>
      </trkpt>
      <trkpt lat="50.6539" lon="3.08431">
        <ele>133</ele>
        <time>2018-05-09T15:40:55Z</time>
      </trkpt>
      <trkpt lat="50.65378" lon="3.08413">
        <ele>133</ele>
        <time>2018-05-09T15:40:59Z</time>
      </trkpt>
      <trkpt lat="50.65366" lon="3.08397">
        <ele>133.8</ele>
        <time>2018-05-09T15:41:03Z</time>
      </trkpt>
      <trkpt lat="50.65356" lon="3.08383">
        <ele>133.4</ele>
        <time>2018-05-09T15:41:07Z</time>
      </trkpt>
      <trkpt lat="50.65345" lon="3.08367">
        <ele>134</ele>
        <time>2018-05-09T15:41:11Z</time>
      </trkpt>
      <trkpt lat="50.65333" lon="3.0835">
        <ele>133.8</ele>
        <time>2018-05-09T15:41:15Z</time>
      </trkpt>
      <trkpt lat="50.6532" lon="3.08333">
        <ele>133.6</ele>
        <time>2018-05-09T15:41:19Z</time>
      </trkpt>
      <trkpt lat="50.65309" lon="3.08316">
        <ele>134.4</ele>
        <time>2018-05-09T15:41:23Z</time>
      </trkpt>
      <trkpt lat="50.65297" lon="3.08298">
        <ele>134.4</ele>
        <time>2018-05-09T15:41:27Z</time>
      </trkpt>
      <trkpt lat="50.65285" lon="3.0828">
        <ele>134.8</ele>
        <time>2018-05-09T15:41:31Z</time>
      </trkpt>
      <trkpt lat="50.65273" lon="3.08262">
        <ele>134.4</ele>
        <time>2018-05-09T15:41:35Z</time>
      </trkpt>
      <trkpt lat="50.65261" lon="3.08246">
        <ele>134.8</ele>
        <time>2018-05-09T15:41:39Z</time>
      </trkpt>
      <trkpt lat="50.65248" lon="3.08229">
        <ele>133.8</ele>
        <time>2018-05-09T15:41:43Z</time>
      </trkpt>
      <trkpt lat="50.65236" lon="3.08213">
        <ele>134.2</ele>
        <time>2018-05-09T15:41:47Z</time>
      </trkpt>
      <trkpt lat="50.65225" lon="3.08197">
        <ele>134.4</ele>
        <time>2018-05-09T15:41:51Z</time>
      </trkpt>
      <trkpt lat="50.65215" lon="3.08182">
        <ele>134.6</ele>
        <time>2018-05-09T15:41:55Z</time>
      </trkpt>
      <trkpt lat="50.65206" lon="3.08168">
        <ele>134.2</ele>
        <time>2018-05-09T15:41:59Z</time>
      </trkpt>
      <trkpt lat="50.65205" lon="3.0816">
        <ele>134</ele>
        <time>2018-05-09T15:43:11Z</time>
      </trkpt>
      <trkpt lat="50.65196" lon="3.08152">
        <ele>133.8</ele>
        <time>2018-05-09T15:43:15Z</time>
      </trkpt>
      <trkpt lat="50.65185" lon="3.08141">
        <ele>133.4</ele>
        <time>2018-05-09T15:43:19Z</time>
      </trkpt>
      <trkpt lat="50.65173" lon="3.08129">
        <ele>133.4</ele>
        <time>2018-05-09T15:43:23Z</time>
      </trkpt>
      <trkpt lat="50.65162" lon="3.08116">
        <ele>133.4</ele>
        <time>2018-05-09T15:43:27Z</time>
      </trkpt>
      <trkpt lat="50.6515" lon="3.08101">
        <ele>133.6</ele>
        <time>2018-05-09T15:43:31Z</time>
      </trkpt>
      <trkpt lat="50.65136" lon="3.0809">
        <ele>132.6</ele>
        <time>2018-05-09T15:43:35Z</time>
      </trkpt>
      <trkpt lat="50.65119" lon="3.08075">
        <ele>132.6</ele>
        <time>2018-05-09T15:43:39Z</time>
      </trkpt>
      <trkpt lat="50.65102" lon="3.08061">
        <ele>131.8</ele>
        <time>2018-05-09T15:43:43Z</time>
      </trkpt>
      <trkpt lat="50.65083" lon="3.08047">
        <ele>131.4</ele>
        <time>2018-05-09T15:43:47Z</time>
      </trkpt>
      <trkpt lat="50.65065" lon="3.08028">
        <ele>130.8</ele>
        <time>2018-05-09T15:43:51Z</time>
      </trkpt>
      <trkpt lat="50.6505" lon="3.08009">
        <ele>130.4</ele>
        <time>2018-05-09T15:43:55Z</time>
      </trkpt>
      <trkpt lat="50.6503" lon="3.07993">
        <ele>129.6</ele>
        <time>2018-05-09T15:43:59Z</time>
      </trkpt>
      <trkpt lat="50.6501" lon="3.07974">
        <ele>128.8</ele>
        <time>2018-05-09T15:44:03Z</time>
      </trkpt>
      <trkpt lat="50.6499" lon="3.07956">
        <ele>128.4</ele>
        <time>2018-05-09T15:44:07Z</time>
      </trkpt>
      <trkpt lat="50.6497" lon="3.07936">
        <ele>127.4</ele>
        <time>2018-05-09T15:44:11Z</time>
      </trkpt>
      <trkpt lat="50.64949" lon="3.07915">
        <ele>126.8</ele>
        <time>2018-05-09T15:44:15Z</time>
      </trkpt>
      <trkpt lat="50.64934" lon="3.07898">
        <ele>126.2</ele>
        <time>2018-05-09T15:44:19Z</time>
      </trkpt>
      <trkpt lat="50.64923" lon="3.07889">
        <ele>125.8</ele>
        <time>2018-05-09T15:44:23Z</time>
      </trkpt>
      <trkpt lat="50.64914" lon="3.07879">
        <ele>124.8</ele>
        <time>2018-05-09T15:44:27Z</time>
      </trkpt>
      <trkpt lat="50.64906" lon="3.07871">
        <ele>124.8</ele>
        <time>2018-05-09T15:44:31Z</time>
      </trkpt>
      <trkpt lat="50.64895" lon="3.0786">
        <ele>124.8</ele>
        <time>2018-05-09T15:44:35Z</time>
      </trkpt>
      <trkpt lat="50.64883" lon="3.07843">
        <ele>124.4</ele>
        <time>2018-05-09T15:44:39Z</time>
      </trkpt>
      <trkpt lat="50.64865" lon="3.07829">
        <ele>124.2</ele>
        <time>2018-05-09T15:44:43Z</time>
      </trkpt>
      <trkpt lat="50.64848" lon="3.07813">
        <ele>123.4</ele>
        <time>2018-05-09T15:44:47Z</time>
      </trkpt>
      <trkpt lat="50.64833" lon="3.07799">
        <ele>123.4</ele>
        <time>2018-05-09T15:44:51Z</time>
      </trkpt>
      <trkpt lat="50.64824" lon="3.07789">
        <ele>122.4</ele>
        <time>2018-05-09T15:44:55Z</time>
      </trkpt>
      <trkpt lat="50.64819" lon="3.07781">
        <ele>122.6</ele>
        <time>2018-05-09T15:44:59Z</time>
      </trkpt>
      <trkpt lat="50.64805" lon="3.07769">
        <ele>122.8</ele>
        <time>2018-05-09T15:45:03Z</time>
      </trkpt>
      <trkpt lat="50.64791" lon="3.07754">
        <ele>122.4</ele>
        <time>2018-05-09T15:45:07Z</time>
      </trkpt>
      <trkpt lat="50.64776" lon="3.0774">
        <ele>122.2</ele>
        <time>2018-05-09T15:45:11Z</time>
      </trkpt>
      <trkpt lat="50.64762" lon="3.07724">
        <ele>121.4</ele>
        <time>2018-05-09T15:45:15Z</time>
      </trkpt>
      <trkpt lat="50.64748" lon="3.07706">
        <ele>121.8</ele>
        <time>2018-05-09T15:45:19Z</time>
      </trkpt>
      <trkpt lat="50.64734" lon="3.07689">
        <ele>121.8</ele>
        <time>2018-05-09T15:45:23Z</time>
      </trkpt>
      <trkpt lat="50.64719" lon="3.0767">
        <ele>121.8</ele>
        <time>2018-05-09T15:45:27Z</time>
      </trkpt>
      <trkpt lat="50.64704" lon="3.07651">
        <ele>121.8</ele>
        <time>2018-05-09T15:45:31Z</time>
      </trkpt>
      <trkpt lat="50.6469" lon="3.07634">
        <ele>121.8</ele>
        <time>2018-05-09T15:45:35Z</time>
      </trkpt>
      <trkpt lat="50.64675" lon="3.07618">
        <ele>122</ele>
        <time>2018-05-09T15:45:39Z</time>
      </trkpt>
      <trkpt lat="50.64661" lon="3.07601">
        <ele>121.4</ele>
        <time>2018-05-09T15:45:43Z</time>
      </trkpt>
      <trkpt lat="50.64647" lon="3.07586">
        <ele>121.2</ele>
        <time>2018-05-09T15:45:47Z</time>
      </trkpt>
      <trkpt lat="50.64635" lon="3.07574">
        <ele>121</ele>
        <time>2018-05-09T15:45:51Z</time>
      </trkpt>
      <trkpt lat="50.64622" lon="3.0756">
        <ele>120.8</ele>
        <time>2018-05-09T15:45:55Z</time>
      </trkpt>
      <trkpt lat="50.64609" lon="3.07549">
        <ele>120.4</ele>
        <time>2018-05-09T15:45:59Z</time>
      </trkpt>
      <trkpt lat="50.64596" lon="3.07535">
        <ele>120.8</ele>
        <time>2018-05-09T15:46:03Z</time>
      </trkpt>
      <trkpt lat="50.64591" lon="3.07528">
        <ele>120.2</ele>
        <time>2018-05-09T15:46:07Z</time>
      </trkpt>
      <trkpt lat="50.64589" lon="3.07525">
        <ele>120</ele>
        <time>2018-05-09T15:46:27Z</time>
      </trkpt>
      <trkpt lat="50.64583" lon="3.07516">
        <ele>120.6</ele>
        <time>2018-05-09T15:46:31Z</time>
      </trkpt>
      <trkpt lat="50.64574" lon="3.07509">
        <ele>120.6</ele>
        <time>2018-05-09T15:46:35Z</time>
      </trkpt>
      <trkpt lat="50.64569" lon="3.07517">
        <ele>120.4</ele>
        <time>2018-05-09T15:46:39Z</time>
      </trkpt>
      <trkpt lat="50.64564" lon="3.07526">
        <ele>120.4</ele>
        <time>2018-05-09T15:46:43Z</time>
      </trkpt>
      <trkpt lat="50.64558" lon="3.07537">
        <ele>120</ele>
        <time>2018-05-09T15:46:47Z</time>
      </trkpt>
      <trkpt lat="50.64553" lon="3.0754">
        <ele>120.6</ele>
        <time>2018-05-09T15:46:51Z</time>
      </trkpt>
      <trkpt lat="50.64541" lon="3.07533">
        <ele>119.6</ele>
        <time>2018-05-09T15:46:55Z</time>
      </trkpt>
      <trkpt lat="50.64531" lon="3.07535">
        <ele>120</ele>
        <time>2018-05-09T15:46:59Z</time>
      </trkpt>
      <trkpt lat="50.64518" lon="3.07539">
        <ele>119.4</ele>
        <time>2018-05-09T15:47:03Z</time>
      </trkpt>
      <trkpt lat="50.64499" lon="3.0754">
        <ele>119.8</ele>
        <time>2018-05-09T15:47:07Z</time>
      </trkpt>
      <trkpt lat="50.64485" lon="3.07542">
        <ele>119.6</ele>
        <time>2018-05-09T15:47:11Z</time>
      </trkpt>
      <trkpt lat="50.64471" lon="3.07547">
        <ele>119.2</ele>
        <time>2018-05-09T15:47:15Z</time>
      </trkpt>
      <trkpt lat="50.64454" lon="3.07549">
        <ele>118.2</ele>
        <time>2018-05-09T15:47:19Z</time>
      </trkpt>
      <trkpt lat="50.64436" lon="3.07546">
        <ele>118.8</ele>
        <time>2018-05-09T15:47:23Z</time>
      </trkpt>
      <trkpt lat="50.64418" lon="3.07545">
        <ele>119</ele>
        <time>2018-05-09T15:47:27Z</time>
      </trkpt>
      <trkpt lat="50.64397" lon="3.07546">
        <ele>118</ele>
        <time>2018-05-09T15:47:31Z</time>
      </trkpt>
      <trkpt lat="50.64378" lon="3.0755">
        <ele>118</ele>
        <time>2018-05-09T15:47:35Z</time>
      </trkpt>
      <trkpt lat="50.64359" lon="3.07554">
        <ele>118.2</ele>
        <time>2018-05-09T15:47:39Z</time>
      </trkpt>
      <trkpt lat="50.6434" lon="3.07558">
        <ele>118</ele>
        <time>2018-05-09T15:47:43Z</time>
      </trkpt>
      <trkpt lat="50.6432" lon="3.07563">
        <ele>117.6</ele>
        <time>2018-05-09T15:47:47Z</time>
      </trkpt>
      <trkpt lat="50.64301" lon="3.0756">
        <ele>117.8</ele>
        <time>2018-05-09T15:47:51Z</time>
      </trkpt>
      <trkpt lat="50.64284" lon="3.07555">
        <ele>118</ele>
        <time>2018-05-09T15:47:55Z</time>
      </trkpt>
      <trkpt lat="50.64266" lon="3.07551">
        <ele>118.2</ele>
        <time>2018-05-09T15:47:59Z</time>
      </trkpt>
      <trkpt lat="50.64247" lon="3.07546">
        <ele>118.2</ele>
        <time>2018-05-09T15:48:03Z</time>
      </trkpt>
      <trkpt lat="50.64228" lon="3.07541">
        <ele>118.6</ele>
        <time>2018-05-09T15:48:07Z</time>
      </trkpt>
      <trkpt lat="50.64208" lon="3.07534">
        <ele>118.2</ele>
        <time>2018-05-09T15:48:11Z</time>
      </trkpt>
      <trkpt lat="50.64189" lon="3.07537">
        <ele>118</ele>
        <time>2018-05-09T15:48:15Z</time>
      </trkpt>
      <trkpt lat="50.64179" lon="3.07561">
        <ele>118.2</ele>
        <time>2018-05-09T15:48:19Z</time>
      </trkpt>
      <trkpt lat="50.64175" lon="3.07589">
        <ele>118.6</ele>
        <time>2018-05-09T15:48:23Z</time>
      </trkpt>
      <trkpt lat="50.64171" lon="3.07618">
        <ele>118.8</ele>
        <time>2018-05-09T15:48:27Z</time>
      </trkpt>
      <trkpt lat="50.64168" lon="3.07646">
        <ele>119</ele>
        <time>2018-05-09T15:48:31Z</time>
      </trkpt>
      <trkpt lat="50.64164" lon="3.07669">
        <ele>118.8</ele>
        <time>2018-05-09T15:48:35Z</time>
      </trkpt>
      <trkpt lat="50.64146" lon="3.07668">
        <ele>119</ele>
        <time>2018-05-09T15:48:39Z</time>
      </trkpt>
      <trkpt lat="50.64126" lon="3.07663">
        <ele>118.8</ele>
        <time>2018-05-09T15:48:43Z</time>
      </trkpt>
      <trkpt lat="50.64109" lon="3.07654">
        <ele>118.4</ele>
        <time>2018-05-09T15:48:47Z</time>
      </trkpt>
      <trkpt lat="50.64095" lon="3.07645">
        <ele>118.6</ele>
        <time>2018-05-09T15:48:51Z</time>
      </trkpt>
      <trkpt lat="50.6408" lon="3.07647">
        <ele>118.4</ele>
        <time>2018-05-09T15:48:55Z</time>
      </trkpt>
      <trkpt lat="50.64069" lon="3.07648">
        <ele>119</ele>
        <time>2018-05-09T15:48:59Z</time>
      </trkpt>
      <trkpt lat="50.64058" lon="3.07658">
        <ele>119.4</ele>
        <time>2018-05-09T15:49:03Z</time>
      </trkpt>
      <trkpt lat="50.64047" lon="3.07669">
        <ele>119.6</ele>
        <time>2018-05-09T15:49:07Z</time>
      </trkpt>
      <trkpt lat="50.64035" lon="3.07677">
        <ele>120.4</ele>
        <time>2018-05-09T15:49:11Z</time>
      </trkpt>
      <trkpt lat="50.64025" lon="3.07687">
        <ele>120.6</ele>
        <time>2018-05-09T15:49:15Z</time>
      </trkpt>
      <trkpt lat="50.64016" lon="3.07693">
        <ele>120.2</ele>
        <time>2018-05-09T15:49:19Z</time>
      </trkpt>
      <trkpt lat="50.64013" lon="3.077">
        <ele>120.2</ele>
        <time>2018-05-09T15:49:23Z</time>
      </trkpt>
      <trkpt lat="50.64009" lon="3.07707">
        <ele>119.4</ele>
        <time>2018-05-09T15:49:31Z</time>
      </trkpt>
      <trkpt lat="50.64003" lon="3.07716">
        <ele>119.6</ele>
        <time>2018-05-09T15:49:35Z</time>
      </trkpt>
      <trkpt lat="50.63995" lon="3.07723">
        <ele>119.6</ele>
        <time>2018-05-09T15:49:39Z</time>
      </trkpt>
      <trkpt lat="50.63983" lon="3.07731">
        <ele>120.2</ele>
        <time>2018-05-09T15:49:43Z</time>
      </trkpt>
      <trkpt lat="50.63974" lon="3.07743">
        <ele>120.2</ele>
        <time>2018-05-09T15:49:47Z</time>
      </trkpt>
      <trkpt lat="50.63964" lon="3.07756">
        <ele>120.4</ele>
        <time>2018-05-09T15:49:51Z</time>
      </trkpt>
      <trkpt lat="50.63951" lon="3.07764">
        <ele>120.2</ele>
        <time>2018-05-09T15:49:55Z</time>
      </trkpt>
      <trkpt lat="50.63932" lon="3.07771">
        <ele>120.2</ele>
        <time>2018-05-09T15:49:59Z</time>
      </trkpt>
      <trkpt lat="50.63919" lon="3.07784">
        <ele>120.4</ele>
        <time>2018-05-09T15:50:03Z</time>
      </trkpt>
      <trkpt lat="50.63917" lon="3.07806">
        <ele>120.2</ele>
        <time>2018-05-09T15:50:07Z</time>
      </trkpt>
      <trkpt lat="50.63898" lon="3.07813">
        <ele>120</ele>
        <time>2018-05-09T15:50:11Z</time>
      </trkpt>
      <trkpt lat="50.63879" lon="3.07821">
        <ele>119.8</ele>
        <time>2018-05-09T15:50:15Z</time>
      </trkpt>
      <trkpt lat="50.63859" lon="3.07827">
        <ele>119.8</ele>
        <time>2018-05-09T15:50:19Z</time>
      </trkpt>
      <trkpt lat="50.63839" lon="3.07835">
        <ele>120</ele>
        <time>2018-05-09T15:50:23Z</time>
      </trkpt>
      <trkpt lat="50.63825" lon="3.07857">
        <ele>119.6</ele>
        <time>2018-05-09T15:50:27Z</time>
      </trkpt>
      <trkpt lat="50.63815" lon="3.07873">
        <ele>119.6</ele>
        <time>2018-05-09T15:50:31Z</time>
      </trkpt>
      <trkpt lat="50.63808" lon="3.07871">
        <ele>119.6</ele>
        <time>2018-05-09T15:50:35Z</time>
      </trkpt>
      <trkpt lat="50.638" lon="3.0786">
        <ele>120</ele>
        <time>2018-05-09T15:50:39Z</time>
      </trkpt>
      <trkpt lat="50.63794" lon="3.07844">
        <ele>119.8</ele>
        <time>2018-05-09T15:50:43Z</time>
      </trkpt>
      <trkpt lat="50.63788" lon="3.07827">
        <ele>120.8</ele>
        <time>2018-05-09T15:50:47Z</time>
      </trkpt>
      <trkpt lat="50.6378" lon="3.07808">
        <ele>120.4</ele>
        <time>2018-05-09T15:50:51Z</time>
      </trkpt>
      <trkpt lat="50.63771" lon="3.07788">
        <ele>120.8</ele>
        <time>2018-05-09T15:50:55Z</time>
      </trkpt>
      <trkpt lat="50.63764" lon="3.07766">
        <ele>120.8</ele>
        <time>2018-05-09T15:50:59Z</time>
      </trkpt>
      <trkpt lat="50.63756" lon="3.07744">
        <ele>120.2</ele>
        <time>2018-05-09T15:51:03Z</time>
      </trkpt>
      <trkpt lat="50.63747" lon="3.07723">
        <ele>120.6</ele>
        <time>2018-05-09T15:51:07Z</time>
      </trkpt>
      <trkpt lat="50.63734" lon="3.07707">
        <ele>120.8</ele>
        <time>2018-05-09T15:51:11Z</time>
      </trkpt>
      <trkpt lat="50.63718" lon="3.07697">
        <ele>120.6</ele>
        <time>2018-05-09T15:51:15Z</time>
      </trkpt>
      <trkpt lat="50.63704" lon="3.07689">
        <ele>120.8</ele>
        <time>2018-05-09T15:51:19Z</time>
      </trkpt>
      <trkpt lat="50.6369" lon="3.07682">
        <ele>120.8</ele>
        <time>2018-05-09T15:51:23Z</time>
      </trkpt>
      <trkpt lat="50.63676" lon="3.07677">
        <ele>120.8</ele>
        <time>2018-05-09T15:51:27Z</time>
      </trkpt>
      <trkpt lat="50.63664" lon="3.07672">
        <ele>120.6</ele>
        <time>2018-05-09T15:51:31Z</time>
      </trkpt>
      <trkpt lat="50.63651" lon="3.07668">
        <ele>121.2</ele>
        <time>2018-05-09T15:51:35Z</time>
      </trkpt>
      <trkpt lat="50.63637" lon="3.07664">
        <ele>121.4</ele>
        <time>2018-05-09T15:51:39Z</time>
      </trkpt>
      <trkpt lat="50.63624" lon="3.0766">
        <ele>121.4</ele>
        <time>2018-05-09T15:51:43Z</time>
      </trkpt>
      <trkpt lat="50.63611" lon="3.07657">
        <ele>122</ele>
        <time>2018-05-09T15:51:47Z</time>
      </trkpt>
      <trkpt lat="50.63598" lon="3.07655">
        <ele>122.2</ele>
        <time>2018-05-09T15:51:51Z</time>
      </trkpt>
      <trkpt lat="50.63585" lon="3.07653">
        <ele>122.4</ele>
        <time>2018-05-09T15:51:55Z</time>
      </trkpt>
      <trkpt lat="50.63574" lon="3.07651">
        <ele>122.8</ele>
        <time>2018-05-09T15:51:59Z</time>
      </trkpt>
      <trkpt lat="50.63566" lon="3.0765">
        <ele>122.8</ele>
        <time>2018-05-09T15:52:03Z</time>
      </trkpt>
      <trkpt lat="50.63557" lon="3.0765">
        <ele>123</ele>
        <time>2018-05-09T15:52:07Z</time>
      </trkpt>
      <trkpt lat="50.63548" lon="3.07649">
        <ele>123.6</ele>
        <time>2018-05-09T15:52:11Z</time>
      </trkpt>
      <trkpt lat="50.63536" lon="3.07646">
        <ele>123.8</ele>
        <time>2018-05-09T15:52:15Z</time>
      </trkpt>
      <trkpt lat="50.63524" lon="3.07644">
        <ele>123.8</ele>
        <time>2018-05-09T15:52:19Z</time>
      </trkpt>
      <trkpt lat="50.63511" lon="3.07641">
        <ele>123.8</ele>
        <time>2018-05-09T15:52:23Z</time>
      </trkpt>
      <trkpt lat="50.63496" lon="3.07637">
        <ele>123.6</ele>
        <time>2018-05-09T15:52:27Z</time>
      </trkpt>
      <trkpt lat="50.6348" lon="3.07634">
        <ele>124.4</ele>
        <time>2018-05-09T15:52:31Z</time>
      </trkpt>
      <trkpt lat="50.63463" lon="3.0763">
        <ele>124.6</ele>
        <time>2018-05-09T15:52:35Z</time>
      </trkpt>
      <trkpt lat="50.63446" lon="3.07627">
        <ele>124.4</ele>
        <time>2018-05-09T15:52:39Z</time>
      </trkpt>
      <trkpt lat="50.63429" lon="3.07624">
        <ele>124.2</ele>
        <time>2018-05-09T15:52:43Z</time>
      </trkpt>
      <trkpt lat="50.6341" lon="3.07619">
        <ele>123.8</ele>
        <time>2018-05-09T15:52:47Z</time>
      </trkpt>
      <trkpt lat="50.63391" lon="3.07615">
        <ele>123.4</ele>
        <time>2018-05-09T15:52:51Z</time>
      </trkpt>
      <trkpt lat="50.63372" lon="3.07611">
        <ele>122.4</ele>
        <time>2018-05-09T15:52:55Z</time>
      </trkpt>
      <trkpt lat="50.63357" lon="3.07607">
        <ele>121.8</ele>
        <time>2018-05-09T15:52:59Z</time>
      </trkpt>
      <trkpt lat="50.63349" lon="3.07605">
        <ele>121.4</ele>
        <time>2018-05-09T15:53:03Z</time>
      </trkpt>
      <trkpt lat="50.63348" lon="3.07604">
        <ele>121.6</ele>
        <time>2018-05-09T15:53:31Z</time>
      </trkpt>
      <trkpt lat="50.6334" lon="3.07604">
        <ele>121.6</ele>
        <time>2018-05-09T15:53:35Z</time>
      </trkpt>
      <trkpt lat="50.63326" lon="3.07605">
        <ele>121.2</ele>
        <time>2018-05-09T15:53:39Z</time>
      </trkpt>
      <trkpt lat="50.6331" lon="3.07607">
        <ele>121.6</ele>
        <time>2018-05-09T15:53:43Z</time>
      </trkpt>
      <trkpt lat="50.63294" lon="3.07614">
        <ele>120.8</ele>
        <time>2018-05-09T15:53:47Z</time>
      </trkpt>
      <trkpt lat="50.6328" lon="3.07624">
        <ele>120.4</ele>
        <time>2018-05-09T15:53:51Z</time>
      </trkpt>
      <trkpt lat="50.63264" lon="3.07633">
        <ele>120.6</ele>
        <time>2018-05-09T15:53:55Z</time>
      </trkpt>
      <trkpt lat="50.63246" lon="3.07641">
        <ele>120.8</ele>
        <time>2018-05-09T15:53:59Z</time>
      </trkpt>
      <trkpt lat="50.63229" lon="3.07653">
        <ele>121.2</ele>
        <time>2018-05-09T15:54:03Z</time>
      </trkpt>
      <trkpt lat="50.63211" lon="3.07661">
        <ele>120.6</ele>
        <time>2018-05-09T15:54:07Z</time>
      </trkpt>
      <trkpt lat="50.63193" lon="3.07671">
        <ele>121</ele>
        <time>2018-05-09T15:54:11Z</time>
      </trkpt>
      <trkpt lat="50.63175" lon="3.07677">
        <ele>120.6</ele>
        <time>2018-05-09T15:54:15Z</time>
      </trkpt>
      <trkpt lat="50.63158" lon="3.07684">
        <ele>120.4</ele>
        <time>2018-05-09T15:54:19Z</time>
      </trkpt>
      <trkpt lat="50.63142" lon="3.07691">
        <ele>120.4</ele>
        <time>2018-05-09T15:54:23Z</time>
      </trkpt>
      <trkpt lat="50.63125" lon="3.07701">
        <ele>120.4</ele>
        <time>2018-05-09T15:54:27Z</time>
      </trkpt>
      <trkpt lat="50.63107" lon="3.07709">
        <ele>121.8</ele>
        <time>2018-05-09T15:54:31Z</time>
      </trkpt>
      <trkpt lat="50.6309" lon="3.07719">
        <ele>121.2</ele>
        <time>2018-05-09T15:54:35Z</time>
      </trkpt>
      <trkpt lat="50.63072" lon="3.07729">
        <ele>121.2</ele>
        <time>2018-05-09T15:54:39Z</time>
      </trkpt>
      <trkpt lat="50.63055" lon="3.0774">
        <ele>121</ele>
        <time>2018-05-09T15:54:43Z</time>
      </trkpt>
      <trkpt lat="50.63035" lon="3.0775">
        <ele>121.8</ele>
        <time>2018-05-09T15:54:47Z</time>
      </trkpt>
      <trkpt lat="50.6302" lon="3.07762">
        <ele>122</ele>
        <time>2018-05-09T15:54:51Z</time>
      </trkpt>
      <trkpt lat="50.63003" lon="3.07771">
        <ele>121.8</ele>
        <time>2018-05-09T15:54:55Z</time>
      </trkpt>
      <trkpt lat="50.62987" lon="3.07781">
        <ele>121.8</ele>
        <time>2018-05-09T15:54:59Z</time>
      </trkpt>
      <trkpt lat="50.62971" lon="3.07787">
        <ele>122.2</ele>
        <time>2018-05-09T15:55:03Z</time>
      </trkpt>
      <trkpt lat="50.62957" lon="3.07791">
        <ele>122.4</ele>
        <time>2018-05-09T15:55:07Z</time>
      </trkpt>
      <trkpt lat="50.62944" lon="3.0781">
        <ele>122.2</ele>
        <time>2018-05-09T15:55:11Z</time>
      </trkpt>
      <trkpt lat="50.62927" lon="3.07821">
        <ele>122</ele>
        <time>2018-05-09T15:55:15Z</time>
      </trkpt>
      <trkpt lat="50.62916" lon="3.07833">
        <ele>122.4</ele>
        <time>2018-05-09T15:55:19Z</time>
      </trkpt>
      <trkpt lat="50.62896" lon="3.07836">
        <ele>122.2</ele>
        <time>2018-05-09T15:55:23Z</time>
      </trkpt>
      <trkpt lat="50.62877" lon="3.07843">
        <ele>122.6</ele>
        <time>2018-05-09T15:55:27Z</time>
      </trkpt>
      <trkpt lat="50.62859" lon="3.07851">
        <ele>122.8</ele>
        <time>2018-05-09T15:55:31Z</time>
      </trkpt>
      <trkpt lat="50.6284" lon="3.07854">
        <ele>123</ele>
        <time>2018-05-09T15:55:35Z</time>
      </trkpt>
      <trkpt lat="50.62828" lon="3.07862">
        <ele>123</ele>
        <time>2018-05-09T15:55:39Z</time>
      </trkpt>
      <trkpt lat="50.62818" lon="3.0787">
        <ele>123.2</ele>
        <time>2018-05-09T15:55:43Z</time>
      </trkpt>
      <trkpt lat="50.62801" lon="3.07877">
        <ele>123.8</ele>
        <time>2018-05-09T15:55:47Z</time>
      </trkpt>
      <trkpt lat="50.62789" lon="3.07874">
        <ele>123.8</ele>
        <time>2018-05-09T15:55:51Z</time>
      </trkpt>
      <trkpt lat="50.62783" lon="3.07881">
        <ele>123.4</ele>
        <time>2018-05-09T15:55:55Z</time>
      </trkpt>
      <trkpt lat="50.62772" lon="3.07892">
        <ele>123.8</ele>
        <time>2018-05-09T15:55:59Z</time>
      </trkpt>
      <trkpt lat="50.62758" lon="3.079">
        <ele>124.4</ele>
        <time>2018-05-09T15:56:03Z</time>
      </trkpt>
      <trkpt lat="50.62736" lon="3.07906">
        <ele>125</ele>
        <time>2018-05-09T15:56:07Z</time>
      </trkpt>
      <trkpt lat="50.62718" lon="3.07917">
        <ele>125.4</ele>
        <time>2018-05-09T15:56:11Z</time>
      </trkpt>
      <trkpt lat="50.62697" lon="3.07925">
        <ele>125.6</ele>
        <time>2018-05-09T15:56:15Z</time>
      </trkpt>
      <trkpt lat="50.6268" lon="3.07939">
        <ele>126.4</ele>
        <time>2018-05-09T15:56:19Z</time>
      </trkpt>
      <trkpt lat="50.62663" lon="3.0795">
        <ele>126.4</ele>
        <time>2018-05-09T15:56:23Z</time>
      </trkpt>
      <trkpt lat="50.62645" lon="3.07958">
        <ele>125.8</ele>
        <time>2018-05-09T15:56:27Z</time>
      </trkpt>
      <trkpt lat="50.6263" lon="3.07965">
        <ele>126.8</ele>
        <time>2018-05-09T15:56:31Z</time>
      </trkpt>
      <trkpt lat="50.62614" lon="3.07971">
        <ele>126.6</ele>
        <time>2018-05-09T15:56:35Z</time>
      </trkpt>
      <trkpt lat="50.626" lon="3.07978">
        <ele>127</ele>
        <time>2018-05-09T15:56:39Z</time>
      </trkpt>
      <trkpt lat="50.62583" lon="3.07984">
        <ele>126.8</ele>
        <time>2018-05-09T15:56:43Z</time>
      </trkpt>
      <trkpt lat="50.62568" lon="3.07991">
        <ele>126.4</ele>
        <time>2018-05-09T15:56:47Z</time>
      </trkpt>
      <trkpt lat="50.62557" lon="3.07995">
        <ele>126.4</ele>
        <time>2018-05-09T15:56:51Z</time>
      </trkpt>
      <trkpt lat="50.62547" lon="3.08001">
        <ele>126.4</ele>
        <time>2018-05-09T15:56:55Z</time>
      </trkpt>
      <trkpt lat="50.62533" lon="3.08008">
        <ele>126.6</ele>
        <time>2018-05-09T15:56:59Z</time>
      </trkpt>
      <trkpt lat="50.62518" lon="3.08014">
        <ele>126.2</ele>
        <time>2018-05-09T15:57:03Z</time>
      </trkpt>
      <trkpt lat="50.62503" lon="3.08021">
        <ele>126</ele>
        <time>2018-05-09T15:57:07Z</time>
      </trkpt>
      <trkpt lat="50.6249" lon="3.08029">
        <ele>125.4</ele>
        <time>2018-05-09T15:57:11Z</time>
      </trkpt>
      <trkpt lat="50.62478" lon="3.08037">
        <ele>125.4</ele>
        <time>2018-05-09T15:57:15Z</time>
      </trkpt>
      <trkpt lat="50.62464" lon="3.08042">
        <ele>125.6</ele>
        <time>2018-05-09T15:57:19Z</time>
      </trkpt>
      <trkpt lat="50.62447" lon="3.08042">
        <ele>125.2</ele>
        <time>2018-05-09T15:57:23Z</time>
      </trkpt>
      <trkpt lat="50.62431" lon="3.08039">
        <ele>124.4</ele>
        <time>2018-05-09T15:57:27Z</time>
      </trkpt>
      <trkpt lat="50.62423" lon="3.08038">
        <ele>123.8</ele>
        <time>2018-05-09T15:57:31Z</time>
      </trkpt>
      <trkpt lat="50.62419" lon="3.08036">
        <ele>124.4</ele>
        <time>2018-05-09T15:57:43Z</time>
      </trkpt>
      <trkpt lat="50.6241" lon="3.08035">
        <ele>124</ele>
        <time>2018-05-09T15:57:47Z</time>
      </trkpt>
      <trkpt lat="50.62395" lon="3.08036">
        <ele>124.2</ele>
        <time>2018-05-09T15:57:51Z</time>
      </trkpt>
      <trkpt lat="50.62378" lon="3.08037">
        <ele>123.8</ele>
        <time>2018-05-09T15:57:55Z</time>
      </trkpt>
      <trkpt lat="50.62358" lon="3.08035">
        <ele>123.2</ele>
        <time>2018-05-09T15:57:59Z</time>
      </trkpt>
      <trkpt lat="50.62338" lon="3.08027">
        <ele>122.8</ele>
        <time>2018-05-09T15:58:03Z</time>
      </trkpt>
      <trkpt lat="50.62315" lon="3.08013">
        <ele>123</ele>
        <time>2018-05-09T15:58:07Z</time>
      </trkpt>
      <trkpt lat="50.62294" lon="3.07993">
        <ele>122.8</ele>
        <time>2018-05-09T15:58:11Z</time>
      </trkpt>
      <trkpt lat="50.62274" lon="3.07973">
        <ele>122.2</ele>
        <time>2018-05-09T15:58:15Z</time>
      </trkpt>
      <trkpt lat="50.62256" lon="3.07954">
        <ele>121.4</ele>
        <time>2018-05-09T15:58:19Z</time>
      </trkpt>
      <trkpt lat="50.62237" lon="3.07936">
        <ele>121.4</ele>
        <time>2018-05-09T15:58:23Z</time>
      </trkpt>
      <trkpt lat="50.62219" lon="3.07922">
        <ele>121.2</ele>
        <time>2018-05-09T15:58:27Z</time>
      </trkpt>
      <trkpt lat="50.62202" lon="3.07914">
        <ele>120.8</ele>
        <time>2018-05-09T15:58:31Z</time>
      </trkpt>
      <trkpt lat="50.62184" lon="3.07908">
        <ele>120.8</ele>
        <time>2018-05-09T15:58:35Z</time>
      </trkpt>
      <trkpt lat="50.62165" lon="3.07902">
        <ele>121.2</ele>
        <time>2018-05-09T15:58:39Z</time>
      </trkpt>
      <trkpt lat="50.62147" lon="3.07893">
        <ele>121</ele>
        <time>2018-05-09T15:58:43Z</time>
      </trkpt>
      <trkpt lat="50.6213" lon="3.07887">
        <ele>120.8</ele>
        <time>2018-05-09T15:58:47Z</time>
      </trkpt>
      <trkpt lat="50.62111" lon="3.07878">
        <ele>121</ele>
        <time>2018-05-09T15:58:51Z</time>
      </trkpt>
      <trkpt lat="50.62091" lon="3.07871">
        <ele>121.2</ele>
        <time>2018-05-09T15:58:55Z</time>
      </trkpt>
      <trkpt lat="50.62072" lon="3.0786">
        <ele>120.6</ele>
        <time>2018-05-09T15:58:59Z</time>
      </trkpt>
      <trkpt lat="50.62052" lon="3.0785">
        <ele>120.8</ele>
        <time>2018-05-09T15:59:03Z</time>
      </trkpt>
      <trkpt lat="50.62035" lon="3.07841">
        <ele>121.4</ele>
        <time>2018-05-09T15:59:07Z</time>
      </trkpt>
      <trkpt lat="50.6202" lon="3.07829">
        <ele>121.4</ele>
        <time>2018-05-09T15:59:11Z</time>
      </trkpt>
      <trkpt lat="50.62004" lon="3.07819">
        <ele>121.8</ele>
        <time>2018-05-09T15:59:15Z</time>
      </trkpt>
      <trkpt lat="50.61993" lon="3.07808">
        <ele>121.4</ele>
        <time>2018-05-09T15:59:19Z</time>
      </trkpt>
      <trkpt lat="50.6198" lon="3.07792">
        <ele>122.4</ele>
        <time>2018-05-09T15:59:23Z</time>
      </trkpt>
      <trkpt lat="50.61965" lon="3.07774">
        <ele>122.4</ele>
        <time>2018-05-09T15:59:27Z</time>
      </trkpt>
      <trkpt lat="50.61951" lon="3.07754">
        <ele>122.2</ele>
        <time>2018-05-09T15:59:31Z</time>
      </trkpt>
      <trkpt lat="50.6194" lon="3.07734">
        <ele>122.6</ele>
        <time>2018-05-09T15:59:35Z</time>
      </trkpt>
      <trkpt lat="50.6193" lon="3.07713">
        <ele>122.8</ele>
        <time>2018-05-09T15:59:39Z</time>
      </trkpt>
      <trkpt lat="50.61918" lon="3.07692">
        <ele>123</ele>
        <time>2018-05-09T15:59:43Z</time>
      </trkpt>
      <trkpt lat="50.61912" lon="3.07667">
        <ele>123</ele>
        <time>2018-05-09T15:59:47Z</time>
      </trkpt>
      <trkpt lat="50.61905" lon="3.07639">
        <ele>122.4</ele>
        <time>2018-05-09T15:59:51Z</time>
      </trkpt>
      <trkpt lat="50.61899" lon="3.07612">
        <ele>122.6</ele>
        <time>2018-05-09T15:59:55Z</time>
      </trkpt>
      <trkpt lat="50.61891" lon="3.07581">
        <ele>121.8</ele>
        <time>2018-05-09T15:59:59Z</time>
      </trkpt>
      <trkpt lat="50.61884" lon="3.07552">
        <ele>122.4</ele>
        <time>2018-05-09T16:00:03Z</time>
      </trkpt>
      <trkpt lat="50.61876" lon="3.07521">
        <ele>122.2</ele>
        <time>2018-05-09T16:00:07Z</time>
      </trkpt>
      <trkpt lat="50.61867" lon="3.07493">
        <ele>121.2</ele>
        <time>2018-05-09T16:00:11Z</time>
      </trkpt>
      <trkpt lat="50.61861" lon="3.07466">
        <ele>121.8</ele>
        <time>2018-05-09T16:00:15Z</time>
      </trkpt>
      <trkpt lat="50.61855" lon="3.07442">
        <ele>121.8</ele>
        <time>2018-05-09T16:00:19Z</time>
      </trkpt>
      <trkpt lat="50.6185" lon="3.07418">
        <ele>121.4</ele>
        <time>2018-05-09T16:00:23Z</time>
      </trkpt>
      <trkpt lat="50.61847" lon="3.07397">
        <ele>121.2</ele>
        <time>2018-05-09T16:00:27Z</time>
      </trkpt>
      <trkpt lat="50.61845" lon="3.0738">
        <ele>121</ele>
        <time>2018-05-09T16:00:31Z</time>
      </trkpt>
      <trkpt lat="50.61841" lon="3.07374">
        <ele>120.8</ele>
        <time>2018-05-09T16:00:35Z</time>
      </trkpt>
      <trkpt lat="50.6184" lon="3.07371">
        <ele>121.2</ele>
        <time>2018-05-09T16:00:55Z</time>
      </trkpt>
      <trkpt lat="50.61839" lon="3.07363">
        <ele>121.4</ele>
        <time>2018-05-09T16:00:59Z</time>
      </trkpt>
      <trkpt lat="50.61833" lon="3.07363">
        <ele>120.8</ele>
        <time>2018-05-09T16:01:03Z</time>
      </trkpt>
      <trkpt lat="50.61826" lon="3.07361">
        <ele>120.8</ele>
        <time>2018-05-09T16:01:15Z</time>
      </trkpt>
      <trkpt lat="50.61823" lon="3.07362">
        <ele>121</ele>
        <time>2018-05-09T16:01:19Z</time>
      </trkpt>
      <trkpt lat="50.61808" lon="3.07369">
        <ele>121.4</ele>
        <time>2018-05-09T16:01:23Z</time>
      </trkpt>
      <trkpt lat="50.61793" lon="3.07377">
        <ele>121.8</ele>
        <time>2018-05-09T16:01:27Z</time>
      </trkpt>
      <trkpt lat="50.61779" lon="3.07382">
        <ele>121.8</ele>
        <time>2018-05-09T16:01:31Z</time>
      </trkpt>
      <trkpt lat="50.61763" lon="3.07387">
        <ele>122</ele>
        <time>2018-05-09T16:01:35Z</time>
      </trkpt>
      <trkpt lat="50.61745" lon="3.07391">
        <ele>122.4</ele>
        <time>2018-05-09T16:01:39Z</time>
      </trkpt>
      <trkpt lat="50.61729" lon="3.07396">
        <ele>123</ele>
        <time>2018-05-09T16:01:43Z</time>
      </trkpt>
      <trkpt lat="50.61716" lon="3.07404">
        <ele>122.8</ele>
        <time>2018-05-09T16:01:47Z</time>
      </trkpt>
      <trkpt lat="50.61702" lon="3.07411">
        <ele>123.2</ele>
        <time>2018-05-09T16:01:51Z</time>
      </trkpt>
      <trkpt lat="50.61684" lon="3.07417">
        <ele>123</ele>
        <time>2018-05-09T16:01:55Z</time>
      </trkpt>
      <trkpt lat="50.61662" lon="3.07419">
        <ele>123.6</ele>
        <time>2018-05-09T16:01:59Z</time>
      </trkpt>
      <trkpt lat="50.61642" lon="3.07422">
        <ele>123.6</ele>
        <time>2018-05-09T16:02:03Z</time>
      </trkpt>
      <trkpt lat="50.61623" lon="3.07426">
        <ele>123.2</ele>
        <time>2018-05-09T16:02:07Z</time>
      </trkpt>
      <trkpt lat="50.61606" lon="3.07432">
        <ele>123.2</ele>
        <time>2018-05-09T16:02:11Z</time>
      </trkpt>
      <trkpt lat="50.61589" lon="3.07438">
        <ele>122.4</ele>
        <time>2018-05-09T16:02:15Z</time>
      </trkpt>
      <trkpt lat="50.61573" lon="3.07447">
        <ele>123.2</ele>
        <time>2018-05-09T16:02:19Z</time>
      </trkpt>
      <trkpt lat="50.61558" lon="3.07456">
        <ele>122.2</ele>
        <time>2018-05-09T16:02:23Z</time>
      </trkpt>
      <trkpt lat="50.61535" lon="3.0746">
        <ele>122.2</ele>
        <time>2018-05-09T16:02:27Z</time>
      </trkpt>
      <trkpt lat="50.61515" lon="3.07464">
        <ele>122.6</ele>
        <time>2018-05-09T16:02:31Z</time>
      </trkpt>
      <trkpt lat="50.61497" lon="3.07467">
        <ele>122.2</ele>
        <time>2018-05-09T16:02:35Z</time>
      </trkpt>
      <trkpt lat="50.6148" lon="3.0747">
        <ele>122.4</ele>
        <time>2018-05-09T16:02:39Z</time>
      </trkpt>
      <trkpt lat="50.61462" lon="3.07473">
        <ele>122</ele>
        <time>2018-05-09T16:02:43Z</time>
      </trkpt>
      <trkpt lat="50.61445" lon="3.07477">
        <ele>122.8</ele>
        <time>2018-05-09T16:02:47Z</time>
      </trkpt>
      <trkpt lat="50.61431" lon="3.0748">
        <ele>122.8</ele>
        <time>2018-05-09T16:02:51Z</time>
      </trkpt>
      <trkpt lat="50.61416" lon="3.07479">
        <ele>123</ele>
        <time>2018-05-09T16:02:55Z</time>
      </trkpt>
      <trkpt lat="50.61404" lon="3.07477">
        <ele>122.8</ele>
        <time>2018-05-09T16:02:59Z</time>
      </trkpt>
      <trkpt lat="50.61394" lon="3.07471">
        <ele>123</ele>
        <time>2018-05-09T16:03:03Z</time>
      </trkpt>
      <trkpt lat="50.61381" lon="3.07471">
        <ele>122.8</ele>
        <time>2018-05-09T16:03:07Z</time>
      </trkpt>
      <trkpt lat="50.61369" lon="3.07474">
        <ele>123.8</ele>
        <time>2018-05-09T16:03:11Z</time>
      </trkpt>
      <trkpt lat="50.61356" lon="3.07477">
        <ele>123.4</ele>
        <time>2018-05-09T16:03:15Z</time>
      </trkpt>
      <trkpt lat="50.61343" lon="3.07481">
        <ele>123</ele>
        <time>2018-05-09T16:03:19Z</time>
      </trkpt>
      <trkpt lat="50.61335" lon="3.07486">
        <ele>122.8</ele>
        <time>2018-05-09T16:03:23Z</time>
      </trkpt>
      <trkpt lat="50.61329" lon="3.07491">
        <ele>123.2</ele>
        <time>2018-05-09T16:03:27Z</time>
      </trkpt>
      <trkpt lat="50.61314" lon="3.07494">
        <ele>123.6</ele>
        <time>2018-05-09T16:03:31Z</time>
      </trkpt>
      <trkpt lat="50.61301" lon="3.07497">
        <ele>123.2</ele>
        <time>2018-05-09T16:03:35Z</time>
      </trkpt>
      <trkpt lat="50.61286" lon="3.075">
        <ele>123.8</ele>
        <time>2018-05-09T16:03:39Z</time>
      </trkpt>
      <trkpt lat="50.61272" lon="3.07504">
        <ele>123.8</ele>
        <time>2018-05-09T16:03:43Z</time>
      </trkpt>
      <trkpt lat="50.61254" lon="3.07504">
        <ele>123.8</ele>
        <time>2018-05-09T16:03:47Z</time>
      </trkpt>
      <trkpt lat="50.61241" lon="3.07512">
        <ele>124.2</ele>
        <time>2018-05-09T16:03:51Z</time>
      </trkpt>
      <trkpt lat="50.61232" lon="3.07506">
        <ele>124.4</ele>
        <time>2018-05-09T16:03:55Z</time>
      </trkpt>
      <trkpt lat="50.61229" lon="3.07484">
        <ele>125</ele>
        <time>2018-05-09T16:03:59Z</time>
      </trkpt>
      <trkpt lat="50.61217" lon="3.07468">
        <ele>125.2</ele>
        <time>2018-05-09T16:04:03Z</time>
      </trkpt>
      <trkpt lat="50.61206" lon="3.07457">
        <ele>125.2</ele>
        <time>2018-05-09T16:04:07Z</time>
      </trkpt>
      <trkpt lat="50.61193" lon="3.07447">
        <ele>125</ele>
        <time>2018-05-09T16:04:11Z</time>
      </trkpt>
      <trkpt lat="50.61183" lon="3.07439">
        <ele>125.6</ele>
        <time>2018-05-09T16:04:15Z</time>
      </trkpt>
      <trkpt lat="50.61173" lon="3.07432">
        <ele>125.2</ele>
        <time>2018-05-09T16:04:19Z</time>
      </trkpt>
      <trkpt lat="50.61166" lon="3.07424">
        <ele>125.4</ele>
        <time>2018-05-09T16:04:23Z</time>
      </trkpt>
      <trkpt lat="50.61159" lon="3.07418">
        <ele>124.8</ele>
        <time>2018-05-09T16:04:27Z</time>
      </trkpt>
      <trkpt lat="50.61152" lon="3.0741">
        <ele>124.8</ele>
        <time>2018-05-09T16:04:31Z</time>
      </trkpt>
      <trkpt lat="50.61145" lon="3.07405">
        <ele>124.8</ele>
        <time>2018-05-09T16:04:35Z</time>
      </trkpt>
      <trkpt lat="50.61141" lon="3.07405">
        <ele>125</ele>
        <time>2018-05-09T16:04:39Z</time>
      </trkpt>
      <trkpt lat="50.61141" lon="3.07402">
        <ele>125.2</ele>
        <time>2018-05-09T16:04:47Z</time>
      </trkpt>
      <trkpt lat="50.61146" lon="3.07384">
        <ele>125.4</ele>
        <time>2018-05-09T16:04:59Z</time>
      </trkpt>
      <trkpt lat="50.61148" lon="3.07375">
        <ele>125.2</ele>
        <time>2018-05-09T16:05:07Z</time>
      </trkpt>
      <trkpt lat="50.61158" lon="3.07356">
        <ele>124.6</ele>
        <time>2018-05-09T16:06:15Z</time>
      </trkpt>
      <trkpt lat="50.61159" lon="3.07354">
        <ele>124.6</ele>
        <time>2018-05-09T16:06:23Z</time>
      </trkpt>
      <trkpt lat="50.61158" lon="3.07354">
        <ele>124.4</ele>
        <time>2018-05-09T16:06:27Z</time>
      </trkpt>
      <trkpt lat="50.61157" lon="3.07355">
        <ele>125.2</ele>
        <time>2018-05-09T16:06:47Z</time>
      </trkpt>
      <trkpt lat="50.61161" lon="3.07351">
        <ele>125</ele>
        <time>2018-05-09T16:07:15Z</time>
      </trkpt>
      <trkpt lat="50.61161" lon="3.07353">
        <ele>125.2</ele>
        <time>2018-05-09T16:07:19Z</time>
      </trkpt>
      <trkpt lat="50.61163" lon="3.07354">
        <ele>124.8</ele>
        <time>2018-05-09T16:07:23Z</time>
      </trkpt>
    </trkseg>
  </trk>
</gpx>